Date StartTime U_cm/s V_cm/s W_cm/s Ustd_cm/s Vstd_cm/s Wstd_cm/s Uvar_(cm/s)^2 Vvar_(cm/s)^2 Wvar_(cm/s)^2 KE_(m/s)^2 TurbulentKE_(m/s)^2 HorizWindSpeed_cm/s FrictionSpeec_cm/s DragCoef SpeedOfSound_m/s SonicTemperature_C Pressure_mb 
01/18/2014  00:00:00     -105.169      -13.980      -19.931       11.320       16.922        9.780      128.146      286.356       95.645        0.608        0.026      106.095        7.205        0.005      331.847        0.126      868.778
01/18/2014  00:01:00     -113.385      -13.644      -21.273       15.301       13.657       11.662      234.122      186.504      135.993        0.703        0.028      114.203        8.979        0.006      331.787        0.029      868.766
01/18/2014  00:02:00     -104.595      -29.376      -15.887       17.537       16.768       10.402      307.559      281.151      108.205        0.638        0.035      108.642        6.433        0.004      331.751       -0.031      868.766
01/18/2014  00:03:00     -121.652      -21.500      -16.498       12.126       18.113       11.145      147.049      328.071      124.221        0.807        0.030      123.537        5.918        0.002      331.780        0.016      868.771
01/18/2014  00:04:00      -87.815      -48.219      -10.765       23.440       23.112       18.949      549.418      534.162      359.065        0.580        0.072      100.183       13.550        0.018      331.710       -0.100      868.770
01/18/2014  00:05:00      -86.714      -33.036       -3.175       24.311       26.392       17.574      591.022      696.561      308.832        0.511        0.080       92.794       15.899        0.029      331.750       -0.033      868.764
01/18/2014  00:06:00      -96.052      -26.032      -14.251       24.043       23.758       19.789      578.047      564.452      391.612        0.582        0.077       99.517       13.493        0.018      331.732       -0.062      868.759
01/18/2014  00:07:00     -107.542      -19.411      -22.848       19.676       19.679       18.099      387.140      387.269      327.559        0.678        0.055      109.280        9.934        0.008      331.678       -0.151      868.762
01/18/2014  00:08:00      -84.692      -39.534       -7.494       20.934       22.443       14.588      438.224      503.699      212.816        0.497        0.058       93.464        6.043        0.004      331.735       -0.059      868.754
01/18/2014  00:09:00     -115.535      -16.090      -26.671       24.647       24.968       15.471      607.463      623.377      239.351        0.789        0.074      116.650       15.309        0.017      331.686       -0.139      868.742
01/18/2014  00:10:00      -92.187      -43.492      -16.298       25.314       27.947       14.771      640.806      781.040      218.196        0.615        0.082      101.932        9.140        0.008      331.677       -0.154      868.731
01/18/2014  00:11:00     -112.633      -25.404      -22.710       26.123       24.171       13.250      682.386      584.244      175.560        0.764        0.072      115.462        4.847        0.002      331.627       -0.237      868.723
01/18/2014  00:12:00      -97.159      -26.687      -15.505       24.398       18.474       12.826      595.257      341.295      164.497        0.575        0.055      100.758        7.143        0.005      331.668       -0.169      868.710
01/18/2014  00:13:00      -98.857      -25.498      -13.896       17.609       21.977       15.199      310.067      482.985      231.023        0.582        0.051      102.092        8.851        0.008      331.654       -0.191      868.694
01/18/2014  00:14:00      -86.282      -24.348      -10.303       16.758       17.638       17.529      280.823      311.100      307.281        0.452        0.045       89.651       10.852        0.015      331.651       -0.197      868.699
01/18/2014  00:15:00      -84.202      -28.134      -12.323       23.033       20.336       16.638      530.526      413.540      276.838        0.463        0.061       88.778       13.268        0.022      331.636       -0.222      868.709
01/18/2014  00:16:00     -117.250      -28.966      -16.564       16.047       17.755       15.356      257.501      315.256      235.821        0.783        0.040      120.775        8.933        0.005      331.605       -0.272      868.716
01/18/2014  00:17:00      -85.133      -24.895      -17.857       26.339       16.344       13.426      693.744      267.126      180.259        0.466        0.057       88.698       12.586        0.020      331.606       -0.270      868.721
01/18/2014  00:18:00     -115.258      -18.897      -18.526       20.521       22.678       14.797      421.093      514.302      218.962        0.757        0.058      116.797        8.686        0.006      331.579       -0.315      868.725
01/18/2014  00:19:00     -104.925      -38.032      -15.212       27.211       21.030       15.639      740.453      442.279      244.583        0.706        0.071      111.605        9.835        0.008      331.532       -0.391      868.739
01/18/2014  00:20:00     -108.309      -28.001      -16.948       25.247       25.581       15.084      637.425      654.375      227.542        0.716        0.076      111.870       11.331        0.010      331.526       -0.403      868.740
01/18/2014  00:21:00     -113.661      -33.267      -15.947       20.848       20.800       15.468      434.619      432.646      239.253        0.769        0.055      118.429        5.765        0.002      331.536       -0.385      868.741
01/18/2014  00:22:00      -75.786      -45.160      -12.506       31.727       21.630       15.563     1006.578      467.869      242.210        0.483        0.086       88.221       17.874        0.041      331.560       -0.346      868.743
01/18/2014  00:23:00      -55.378      -43.246      -14.798       32.172       33.346       18.531     1035.044     1111.982      343.401        0.382        0.125       70.264       17.844        0.064      331.564       -0.339      868.755
01/18/2014  00:24:00      -89.294      -26.820      -18.058       30.438       28.022       21.622      926.460      785.216      467.502        0.560        0.109       93.235       18.037        0.037      331.519       -0.414      868.756
01/18/2014  00:25:00     -118.957      -17.581      -14.041       23.709       18.672       16.017      562.117      348.639      256.556        0.791        0.058      120.249       11.896        0.010      331.523       -0.407      868.744
01/18/2014  00:26:00      -86.663      -31.917      -10.561       17.271       23.729       12.944      298.277      563.051      167.539        0.483        0.051       92.353        8.003        0.008      331.609       -0.265      868.747
01/18/2014  00:27:00      -74.227      -30.006       -8.128       17.650       14.636       12.003      311.510      214.214      144.077        0.357        0.033       80.063        8.105        0.010      331.668       -0.169      868.752
01/18/2014  00:28:00      -93.396      -21.319      -11.212       26.274       19.036       13.881      690.320      362.356      192.681        0.527        0.062       95.798       14.083        0.022      331.660       -0.180      868.744
01/18/2014  00:29:00     -104.778       -6.424      -16.393       17.984       12.808       12.385      323.422      164.054      153.395        0.596        0.032      104.975       10.231        0.009      331.639       -0.217      868.740
01/18/2014  00:30:00      -96.214      -19.638      -12.172       16.020       16.886       12.360      256.647      285.123      152.768        0.524        0.035       98.198        5.944        0.004      331.635       -0.223      868.741
01/18/2014  00:31:00      -93.522      -16.942      -17.512       15.850       14.148       12.247      251.236      200.154      149.992        0.497        0.030       95.045        7.975        0.007      331.629       -0.232      868.745
01/18/2014  00:32:00      -59.787      -12.496       -8.768       12.963       12.646       13.125      168.029      159.931      172.253        0.215        0.025       61.079        8.352        0.019      331.589       -0.300      868.749
01/18/2014  00:33:00      -67.039      -19.250      -12.392       14.756       15.934       11.518      217.737      253.903      132.673        0.281        0.030       69.748        9.371        0.018      331.633       -0.225      868.748
01/18/2014  00:34:00      -57.368      -22.079      -13.732       11.599       13.845       11.200      134.527      191.673      125.445        0.221        0.023       61.470        6.588        0.011      331.656       -0.187      868.758
01/18/2014  00:35:00      -68.495      -27.086      -15.146       12.213       11.468       10.035      149.169      131.521      100.702        0.302        0.019       73.656        5.251        0.005      331.579       -0.316      868.766
01/18/2014  00:36:00      -92.352      -20.572      -17.108       11.499       12.636        7.947      132.224      159.680       63.157        0.480        0.018       94.616        3.019        0.001      331.513       -0.425      868.769
01/18/2014  00:37:00      -88.384      -30.370      -17.021       11.461        9.998        9.088      131.344       99.967       82.599        0.467        0.016       93.457        3.673        0.002      331.566       -0.336      868.767
01/18/2014  00:38:00     -113.030      -33.989      -14.034       20.639        9.892        5.562      425.965       97.844       30.940        0.734        0.028      118.030        4.151        0.001      331.560       -0.347      868.765
01/18/2014  00:39:00     -119.076      -27.012      -14.748       14.158       13.118       11.999      200.447      172.088      143.987        0.782        0.026      122.101        7.818        0.004      331.581       -0.311      868.769
01/18/2014  00:40:00     -114.280      -39.679      -14.389        8.885        9.761        7.937       78.948       95.286       63.001        0.754        0.012      120.973        4.136        0.001      331.560       -0.345      868.770
01/18/2014  00:41:00     -102.136      -43.175       -6.113       13.115       14.406       10.407      172.013      207.524      108.311        0.641        0.024      110.886        6.157        0.003      331.563       -0.341      868.769
01/18/2014  00:42:00      -99.107      -48.082        0.337       15.921       19.914       12.690      253.481      396.576      161.048        0.647        0.041      110.155        9.862        0.008      331.581       -0.312      868.766
01/18/2014  00:43:00     -122.195      -36.710      -11.950       10.902       13.096        8.511      118.851      171.506       72.440        0.839        0.018      127.590        4.455        0.001      331.525       -0.404      868.763
01/18/2014  00:44:00     -114.202      -41.992       -9.874       11.024       15.885        9.822      121.523      252.347       96.469        0.769        0.024      121.677        5.073        0.002      331.581       -0.312      868.768
01/18/2014  00:45:00     -115.893      -43.920      -10.115       13.604       10.637        9.003      185.063      113.141       81.048        0.792        0.019      123.936        5.904        0.002      331.627       -0.236      868.766
01/18/2014  00:46:00     -113.606      -35.625      -13.067       23.355       15.222       11.140      545.433      231.724      124.090        0.762        0.045      119.061        8.802        0.005      331.605       -0.271      868.769
01/18/2014  00:47:00     -103.027      -34.651      -10.655       18.927       17.655       13.485      358.248      311.683      181.856        0.639        0.043      108.698       12.883        0.014      331.571       -0.328      868.779
01/18/2014  00:48:00     -106.608      -38.643      -12.295       15.703       13.962       11.482      246.575      194.947      131.844        0.679        0.029      113.395        7.598        0.004      331.533       -0.391      868.776
01/18/2014  00:49:00     -126.620      -41.038      -12.600       14.374       16.604       10.336      206.605      275.677      106.839        0.923        0.029      133.104        3.123        0.001      331.513       -0.424      868.770
01/18/2014  00:50:00     -119.225      -44.529       -9.739       18.417       21.345       16.649      339.188      455.595      277.199        0.868        0.054      127.269        9.059        0.005      331.445       -0.536      868.751
01/18/2014  00:51:00      -86.118      -45.750       -6.156       29.592       18.844       15.324      875.708      355.109      234.827        0.551        0.073       97.516       10.303        0.011      331.405       -0.602      868.740
01/18/2014  00:52:00      -62.402      -47.437       -4.749       31.091       29.702       24.098      966.634      882.196      580.696        0.430        0.121       78.386       22.016        0.079      331.395       -0.617      868.725
01/18/2014  00:53:00      -94.001      -55.299       -9.304       24.854       27.789       17.011      617.699      772.223      289.381        0.683        0.084      109.060        8.986        0.007      331.340       -0.709      868.713
01/18/2014  00:54:00     -100.361      -36.962      -16.712       30.158       20.273       12.664      909.485      410.990      160.372        0.660        0.074      106.951        8.931        0.007      331.384       -0.636      868.715
01/18/2014  00:55:00      -81.866      -35.944      -12.317       28.381       23.193       16.876      805.501      537.919      284.791        0.489        0.081       89.410       11.593        0.017      331.334       -0.719      868.722
01/18/2014  00:56:00      -85.820      -19.276       -4.719       28.841       35.123       25.142      831.829     1233.622      632.145        0.523        0.135       87.958       17.196        0.038      331.352       -0.690      868.728
01/18/2014  00:57:00      -90.194       -8.713      -12.620       24.692       22.282       17.128      609.675      496.491      293.377        0.488        0.070       90.614       13.875        0.023      331.397       -0.615      868.729
01/18/2014  00:58:00      -87.411       -6.387      -10.990       31.790       22.468       14.851     1010.579      504.801      220.557        0.477        0.087       87.644       14.974        0.029      331.369       -0.660      868.733
01/18/2014  00:59:00      -74.411      -22.383      -12.977       16.961       24.595       15.273      287.686      604.927      233.274        0.367        0.056       77.705       13.313        0.029      331.412       -0.591      868.742
01/18/2014  01:00:00      -64.049      -32.126      -10.431       26.561       21.665       17.791      705.487      469.393      316.536        0.337        0.075       71.654       16.891        0.056      331.435       -0.553      868.750
01/18/2014  01:01:00      -66.397      -21.633       -9.497       21.068       18.942       12.978      443.844      358.785      168.434        0.297        0.049       69.832        5.343        0.006      331.425       -0.568      868.756
01/18/2014  01:02:00      -80.751      -17.855      -13.480       23.143       23.817       14.121      535.576      567.262      199.393        0.416        0.065       82.702        7.003        0.007      331.451       -0.526      868.762
01/18/2014  01:03:00      -79.060      -15.415      -12.409       28.400       22.691       15.444      806.555      514.891      238.520        0.410        0.078       80.548        7.480        0.009      331.509       -0.430      868.753
01/18/2014  01:04:00      -70.825      -34.420       -7.192       26.254       17.333       12.103      689.263      300.445      146.482        0.369        0.057       78.746        7.257        0.008      331.503       -0.441      868.747
01/18/2014  01:05:00      -82.915      -26.697       -5.391       16.917       22.220       11.913      286.196      493.738      141.928        0.427        0.046       87.107        8.112        0.009      331.513       -0.424      868.742
01/18/2014  01:06:00      -96.703      -43.096      -11.967       17.986       20.198       12.208      323.484      407.978      149.043        0.612        0.044      105.872        7.547        0.005      331.568       -0.333      868.743
01/18/2014  01:07:00      -76.533      -35.584       -8.175       22.269       19.050       13.883      495.920      362.913      192.750        0.412        0.053       84.401        9.153        0.012      331.522       -0.409      868.754
01/18/2014  01:08:00      -59.251      -42.976       -5.477       18.828       21.681       17.566      354.505      470.053      308.573        0.326        0.057       73.195       11.603        0.025      331.546       -0.368      868.755
01/18/2014  01:09:00      -92.918      -30.592      -16.002       16.946       19.478       12.380      287.156      379.385      153.275        0.532        0.041       97.825       11.787        0.015      331.628       -0.234      868.760
01/18/2014  01:10:00      -94.265      -30.327      -16.913       18.301       13.657       11.788      334.910      186.521      138.951        0.538        0.033       99.024        8.603        0.008      331.606       -0.270      868.767
01/18/2014  01:11:00     -102.546      -34.863      -17.045       19.139       18.433       12.738      366.313      339.765      162.254        0.644        0.043      108.311       10.207        0.009      331.643       -0.211      868.768
01/18/2014  01:12:00     -113.579      -29.948      -22.607       15.718       16.324       11.234      247.060      266.466      126.193        0.747        0.032      117.461        9.143        0.006      331.602       -0.278      868.774
01/18/2014  01:13:00     -106.332      -53.823      -13.978       18.409       19.529       12.002      338.904      381.366      144.051        0.763        0.043      119.178        7.688        0.004      331.611       -0.262      868.778
01/18/2014  01:14:00      -78.032      -40.340       -3.857       24.164       21.112       15.692      583.922      445.731      246.243        0.450        0.064       87.842       13.125        0.022      331.551       -0.361      868.785
01/18/2014  01:15:00     -100.932      -52.426      -12.012       15.570       20.913       12.417      242.429      437.338      154.174        0.696        0.042      113.736        7.536        0.004      331.569       -0.332      868.794
01/18/2014  01:16:00      -97.598      -67.679       -8.298       17.962       20.232       15.108      322.642      409.351      228.245        0.757        0.048      118.767       13.505        0.013      331.603       -0.275      868.806
01/18/2014  01:17:00     -108.730      -46.528      -16.981       22.894       13.479        9.894      524.121      181.685       97.893        0.754        0.040      118.267        8.507        0.005      331.544       -0.372      868.808
01/18/2014  01:18:00     -101.184      -47.263      -18.508       17.246       17.018       10.539      297.412      289.599      111.079        0.676        0.035      111.678        8.750        0.006      331.528       -0.400      868.820
01/18/2014  01:19:00     -133.548      -31.176      -12.212       22.347       13.979       12.917      499.383      195.407      166.841        0.991        0.043      137.139        9.582        0.005      331.457       -0.516      868.825
01/18/2014  01:20:00     -128.362      -41.969      -11.791       21.279       17.210       13.130      452.784      296.198      172.399        0.965        0.046      135.049       11.879        0.008      331.487       -0.468      868.828
01/18/2014  01:21:00     -128.890      -35.230       -9.611       19.531       15.065       17.035      381.443      226.951      290.180        0.942        0.045      133.618       13.382        0.010      331.506       -0.436      868.836
01/18/2014  01:22:00      -96.636      -25.719       -5.004       25.018       14.748       12.768      625.910      217.517      163.010        0.552        0.050      100.000       10.643        0.011      331.459       -0.513      868.840
01/18/2014  01:23:00      -95.056      -23.015      -11.169       20.530       19.080       14.883      421.461      364.060      221.500        0.535        0.050       97.802       10.333        0.011      331.332       -0.723      868.847
01/18/2014  01:24:00      -97.140      -35.611      -11.027       10.173       14.199        9.277      103.490      201.619       86.066        0.561        0.020      103.461        5.172        0.002      331.220       -0.905      868.860
01/18/2014  01:25:00      -92.405      -38.248      -13.517       11.085       13.358       11.241      122.884      178.430      126.371        0.531        0.021      100.008        7.479        0.006      331.275       -0.813      868.866
01/18/2014  01:26:00      -97.383      -33.777      -10.693        6.742        8.614        5.318       45.455       74.209       28.283        0.544        0.007      103.074        2.260        0.000      331.292       -0.786      868.878
01/18/2014  01:27:00      -97.098      -32.208      -10.061       11.481       15.771        8.591      131.821      248.739       73.799        0.551        0.023      102.300        5.713        0.003      331.336       -0.714      868.883
01/18/2014  01:28:00     -100.889      -27.870       -6.371       22.156       15.819       13.864      490.909      250.253      192.201        0.596        0.047      104.668       10.159        0.009      331.345       -0.699      868.883
01/18/2014  01:29:00      -83.091      -19.312       -0.026       28.949       22.418       17.155      838.018      502.584      294.288        0.446        0.082       85.306       13.744        0.026      331.338       -0.712      868.879
01/18/2014  01:30:00      -99.972      -25.562        2.777       25.201       17.424       16.282      635.114      303.582      265.089        0.593        0.060      103.188       15.557        0.023      331.356       -0.682      868.878
01/18/2014  01:31:00     -118.752      -28.524       -5.182       22.121       16.697       14.473      489.325      278.798      209.466        0.796        0.049      122.129        9.013        0.005      331.399       -0.612      868.870
01/18/2014  01:32:00     -109.483      -33.177      -12.297       29.766       21.854       15.303      886.038      477.619      234.189        0.742        0.080      114.399       10.634        0.009      331.372       -0.656      868.869
01/18/2014  01:33:00      -89.745      -23.368       -7.410       31.593       20.702       14.986      998.097      428.593      224.589        0.515        0.083       92.737       12.684        0.019      331.197       -0.941      868.871
01/18/2014  01:34:00     -100.971      -49.524      -12.166       25.430       18.662       18.320      646.704      348.268      335.609        0.706        0.067      112.462       10.995        0.010      331.222       -0.902      868.878
01/18/2014  01:35:00      -85.190      -50.219       -9.555       25.171       23.501       15.337      633.591      552.306      235.238        0.565        0.071       98.891        7.993        0.007      331.234       -0.882      868.877
01/18/2014  01:36:00     -100.854      -38.528      -18.746       31.775       17.517       12.753     1009.636      306.839      162.635        0.674        0.074      107.963       13.194        0.015      331.134       -1.046      868.885
01/18/2014  01:37:00     -110.226      -42.933      -14.785       29.457       29.003       15.212      867.700      841.174      231.394        0.808        0.097      118.292       14.941        0.016      331.161       -1.002      868.878
01/18/2014  01:38:00     -113.101      -34.621      -10.382       23.501       26.057       20.383      552.294      678.943      415.451        0.787        0.082      118.281       14.282        0.015      331.114       -1.079      868.873
01/18/2014  01:39:00      -94.193      -47.150       -6.602       27.816       31.006       20.802      773.732      961.378      432.703        0.665        0.108      105.335       15.998        0.023      331.062       -1.166      868.866
01/18/2014  01:40:00      -94.304      -37.442      -15.186       34.268       24.157       18.839     1174.301      583.552      354.917        0.632        0.106      101.465       18.641        0.034      331.127       -1.059      868.863
01/18/2014  01:41:00     -128.211      -33.522      -19.629       19.358       23.668       14.035      374.742      560.187      196.983        0.954        0.057      132.521        8.581        0.004      331.087       -1.124      868.862
01/18/2014  01:42:00     -105.186      -35.368      -19.410       28.706       24.254       16.435      824.021      588.237      270.117        0.719        0.084      110.973       14.005        0.016      331.039       -1.203      868.872
01/18/2014  01:43:00      -85.434      -38.268       -4.705       27.811       23.328       19.314      773.451      544.203      373.018        0.524        0.085       93.613       17.346        0.034      331.068       -1.157      868.878
01/18/2014  01:44:00      -78.496      -53.980      -10.788       27.687       23.966       18.141      766.555      574.366      329.100        0.543        0.084       95.265       10.367        0.012      331.080       -1.136      868.875
01/18/2014  01:45:00      -85.237      -47.583      -16.399       26.152       20.529       20.220      683.939      421.434      408.865        0.566        0.076       97.619       14.168        0.021      331.140       -1.037      868.868
01/18/2014  01:46:00      -75.867      -35.394       -9.296       20.605       29.312       16.508      424.572      859.194      272.513        0.433        0.078       83.717       10.111        0.015      331.112       -1.082      868.862
01/18/2014  01:47:00      -59.686      -43.961      -11.859       31.412       26.049       20.878      986.717      678.540      435.906        0.387        0.105       74.128       15.162        0.042      331.200       -0.938      868.869
01/18/2014  01:48:00      -84.899      -22.923      -14.581       20.868       20.308       12.039      435.480      412.404      144.949        0.447        0.050       87.940        7.212        0.007      331.202       -0.935      868.879
01/18/2014  01:49:00      -99.823      -14.235      -19.574       20.084       18.895       15.165      403.378      357.006      229.978        0.577        0.050      100.832       10.508        0.011      331.159       -1.005      868.894
01/18/2014  01:50:00      -80.832      -26.000       -5.693       15.485       19.532       15.402      239.788      381.500      237.233        0.405        0.043       84.911        7.523        0.008      331.197       -0.941      868.890
01/18/2014  01:51:00      -89.249      -20.072      -15.520       15.798       18.780       10.998      249.578      352.699      120.955        0.467        0.036       91.478        7.219        0.006      331.190       -0.954      868.892
01/18/2014  01:52:00      -72.630      -22.962      -12.007       18.252       21.175       12.856      333.124      448.391      165.284        0.345        0.047       76.173        9.928        0.017      331.170       -0.987      868.892
01/18/2014  01:53:00      -66.381      -19.766       -9.693       22.842       20.160       16.915      521.736      406.425      286.125        0.305        0.061       69.261       14.773        0.045      331.209       -0.923      868.898
01/18/2014  01:54:00      -78.142       -7.822      -12.024       20.215       20.894       12.947      408.659      436.546      167.637        0.366        0.051       78.532        9.422        0.014      331.241       -0.871      868.897
01/18/2014  01:55:00      -60.954      -27.663      -13.788       18.865       13.671       12.707      355.900      186.902      161.479        0.269        0.035       66.937        7.754        0.013      331.256       -0.845      868.900
01/18/2014  01:56:00      -60.978      -28.111      -17.605       14.020       15.176       10.541      196.567      230.305      111.112        0.268        0.027       67.146        5.905        0.008      331.268       -0.826      868.892
01/18/2014  01:57:00      -50.292      -28.638      -16.588       15.231       12.025       12.822      231.989      144.610      164.401        0.208        0.027       57.874        2.444        0.002      331.299       -0.776      868.880
01/18/2014  01:58:00      -58.336      -33.533      -12.598       13.155       20.434       10.869      173.041      417.551      118.145        0.270        0.035       67.287        6.007        0.008      331.258       -0.843      868.873
01/18/2014  01:59:00      -73.787      -29.159      -11.757       11.273       12.906        8.555      127.076      166.570       73.194        0.340        0.018       79.340        4.332        0.003      331.121       -1.068      868.874
01/18/2014  02:00:00      -90.555      -20.935      -17.858       17.442       16.925       14.625      304.239      286.465      213.893        0.488        0.040       92.943       12.070        0.017      331.016       -1.242      868.884
01/18/2014  02:01:00      -65.646      -21.011      -14.431       22.512       19.501       14.510      506.811      380.276      210.536        0.303        0.055       68.927       12.371        0.032      331.005       -1.259      868.885
01/18/2014  02:02:00      -93.816      -10.261      -14.676       14.549       11.678        9.489      211.669      136.373       90.050        0.478        0.022       94.375        6.199        0.004      330.955       -1.340      868.885
01/18/2014  02:03:00      -92.161       -3.361      -20.050        9.963        7.990        7.044       99.265       63.833       49.619        0.456        0.011       92.222        2.121        0.001      331.030       -1.218      868.895
01/18/2014  02:04:00      -91.121      -26.110      -14.131       14.013       17.936       11.711      196.365      321.706      137.141        0.492        0.033       94.788       10.034        0.011      330.997       -1.272      868.902
01/18/2014  02:05:00      -97.026      -14.267      -19.057       12.201       16.129       12.429      148.861      260.159      154.483        0.527        0.028       98.069       10.711        0.012      331.026       -1.225      868.907
01/18/2014  02:06:00     -100.499      -23.003       -9.707       21.933       25.628       20.727      481.077      656.807      429.603        0.615        0.078      103.098       15.563        0.023      330.918       -1.400      868.911
01/18/2014  02:07:00     -102.846      -41.201      -16.164       24.401       20.496       17.405      595.420      420.104      302.940        0.693        0.066      110.792       10.413        0.009      330.870       -1.480      868.918
01/18/2014  02:08:00     -108.415      -29.310      -23.350       29.725       20.797       17.405      883.582      432.503      302.917        0.739        0.081      112.308       15.278        0.019      330.935       -1.373      868.911
01/18/2014  02:09:00      -86.577      -38.118      -15.767       26.773       24.299       14.414      716.784      590.431      207.775        0.536        0.076       94.597        9.146        0.009      330.867       -1.484      868.892
01/18/2014  02:10:00      -78.781      -30.311       -7.603       29.965       27.904       10.523      897.924      778.609      110.724        0.448        0.089       84.411       11.513        0.019      330.927       -1.388      868.884
01/18/2014  02:11:00      -67.632      -38.408       -6.380       19.696       18.977       13.227      387.942      360.136      174.962        0.351        0.046       77.778        9.224        0.014      330.987       -1.288      868.882
01/18/2014  02:12:00      -69.769      -12.694      -11.635       18.594       18.276       13.776      345.724      334.021      189.781        0.302        0.043       70.914       10.735        0.023      330.990       -1.284      868.886
01/18/2014  02:13:00      -81.329      -27.460      -16.571       14.449       24.412       14.136      208.766      595.935      199.829        0.432        0.050       85.839       12.968        0.023      330.987       -1.289      868.891
01/18/2014  02:14:00      -85.079      -25.717       -9.228       13.502       20.254       11.761      182.296      410.234      138.329        0.436        0.037       88.881        9.251        0.011      330.975       -1.308      868.878
01/18/2014  02:15:00      -88.580      -23.437      -17.123       17.096       19.033       10.984      292.277      362.270      120.651        0.473        0.039       91.628        6.035        0.004      330.949       -1.348      868.873
01/18/2014  02:16:00      -89.885      -18.127      -13.352       17.343       16.011       10.713      300.796      256.353      114.764        0.463        0.034       91.694        5.792        0.004      330.911       -1.413      868.874
01/18/2014  02:17:00      -71.197      -23.754      -16.168       27.700       25.339       18.652      767.285      642.079      347.904        0.383        0.088       75.056       12.226        0.027      330.902       -1.427      868.878
01/18/2014  02:18:00      -86.518      -15.998      -14.608       17.507       10.782       12.220      306.498      116.259      149.339        0.426        0.029       87.984        8.466        0.009      330.877       -1.469      868.885
01/18/2014  02:19:00      -90.849      -17.392      -16.455       13.651       12.731       11.312      186.352      162.073      127.971        0.465        0.024       92.499        6.496        0.005      330.892       -1.444      868.885
01/18/2014  02:20:00      -62.936      -30.726       -9.610       10.570       17.078       11.602      111.718      291.646      134.608        0.277        0.027       70.036        3.520        0.003      330.920       -1.398      868.895
01/18/2014  02:21:00      -88.780      -30.530      -13.465       18.586       15.269        9.348      345.444      233.152       87.379        0.483        0.033       93.883        4.923        0.003      330.883       -1.458      868.901
01/18/2014  02:22:00      -82.252      -24.188      -13.831       12.125       13.120       11.523      147.010      172.135      132.784        0.400        0.023       85.735        9.431        0.012      330.898       -1.434      868.908
01/18/2014  02:23:00     -104.661      -26.105      -15.809       16.166        9.512       10.237      261.341       90.474      104.798        0.617        0.023      107.867        9.906        0.008      330.960       -1.332      868.923
01/18/2014  02:24:00     -106.157      -22.414       -8.685       18.861       15.296       15.043      355.731      233.960      226.288        0.633        0.041      108.498       12.196        0.013      330.924       -1.391      868.944
01/18/2014  02:25:00     -111.625      -30.389      -10.410       18.099       11.246       12.056      327.572      126.472      145.341        0.705        0.030      115.688        9.024        0.006      330.990       -1.284      868.952
01/18/2014  02:26:00     -121.570       -6.056      -20.041       18.302       13.593        9.523      334.953      184.771       90.688        0.791        0.031      121.721        7.267        0.004      330.952       -1.346      868.959
01/18/2014  02:27:00     -115.634       -6.417      -12.486       29.040       14.770       15.462      843.346      218.138      239.087        0.743        0.065      115.812       15.383        0.018      330.902       -1.428      868.955
01/18/2014  02:28:00     -137.384       -3.646      -18.254       14.328       13.248       12.843      205.288      175.507      164.949        0.988        0.027      137.432        7.252        0.003      330.953       -1.344      868.946
01/18/2014  02:29:00     -141.236        2.082      -20.837       24.139       15.749       15.374      582.688      248.027      236.349        1.073        0.053      141.252        9.555        0.005      330.971       -1.315      868.933
01/18/2014  02:30:00     -123.455       -7.195      -12.740       27.178       20.461       17.252      738.666      418.658      297.617        0.845        0.073      123.664       14.235        0.013      330.883       -1.458      868.928
01/18/2014  02:31:00      -85.704      -15.927       -8.148       36.226       22.495       19.346     1312.338      506.009      374.262        0.493        0.110       87.172       18.077        0.043      330.832       -1.543      868.921
01/18/2014  02:32:00      -86.002      -22.021       -8.244       26.724       20.449       16.773      714.156      418.150      281.339        0.468        0.071       88.776       11.482        0.017      330.858       -1.500      868.924
01/18/2014  02:33:00      -88.114       -8.807       -8.338       25.643       22.722       15.895      657.553      516.272      252.639        0.467        0.071       88.553       13.367        0.023      330.888       -1.450      868.934
01/18/2014  02:34:00      -82.491       -9.495      -14.053       18.908       17.565       11.679      357.495      308.520      136.388        0.395        0.040       83.035        9.075        0.012      330.848       -1.515      868.944
01/18/2014  02:35:00      -82.968       -3.620       -9.473       17.377       12.807       13.162      301.969      164.021      173.249        0.381        0.032       83.047        9.371        0.013      330.776       -1.634      868.950
01/18/2014  02:36:00      -76.403      -12.967      -23.759       12.283        9.545       11.421      150.868       91.103      130.437        0.347        0.019       77.495        5.277        0.005      330.830       -1.545      868.958
01/18/2014  02:37:00      -76.114      -32.384      -19.451       17.121       15.604       15.981      293.120      243.483      255.408        0.401        0.040       82.717        9.450        0.013      330.751       -1.677      868.964
01/18/2014  02:38:00      -89.242      -14.151      -10.746       24.592       16.240       13.201      604.746      263.746      174.260        0.466        0.052       90.357        7.552        0.007      330.679       -1.794      868.972
01/18/2014  02:39:00      -89.059       -9.928      -14.517       22.202       23.267       14.338      492.930      541.340      205.587        0.474        0.062       89.611       10.897        0.015      330.624       -1.884      868.982
01/18/2014  02:40:00      -66.760       -9.508       -5.586       24.387       14.077       13.286      594.731      198.171      176.516        0.277        0.048       67.434       13.673        0.041      330.612       -1.904      868.993
01/18/2014  02:41:00      -71.245      -13.535      -13.463        8.610        9.283        8.955       74.131       86.167       80.188        0.284        0.012       72.519        6.642        0.008      330.743       -1.689      869.011
01/18/2014  02:42:00      -56.162      -15.019      -10.751       13.171        9.967        8.185      173.474       99.344       66.990        0.192        0.017       58.135        5.712        0.010      330.696       -1.765      869.032
01/18/2014  02:43:00      -84.805      -14.498      -16.577       18.126       10.135        9.963      328.534      102.716       99.269        0.410        0.027       86.035        9.896        0.013      330.668       -1.811      869.052
01/18/2014  02:44:00      -98.850       -7.604      -17.839       10.067        8.910        8.948      101.338       79.383       80.059        0.520        0.013       99.142        5.988        0.004      330.643       -1.853      869.069
01/18/2014  02:45:00      -95.122       -4.835      -17.944        9.309        7.000        9.598       86.652       49.007       92.118        0.481        0.011       95.244        4.397        0.002      330.657       -1.829      869.078
01/18/2014  02:46:00      -76.644      -10.654      -12.139        9.131        7.980        7.934       83.380       63.681       62.945        0.317        0.011       77.381        4.827        0.004      330.720       -1.727      869.100
01/18/2014  02:47:00      -60.271      -16.084      -11.572       13.111       12.112        7.731      171.904      146.705       59.764        0.220        0.019       62.380        7.553        0.015      330.796       -1.604      869.125
01/18/2014  02:48:00      -66.076      -13.541      -12.928        9.632        8.839        7.325       92.772       78.122       53.653        0.247        0.011       67.449        4.864        0.005      330.728       -1.713      869.146
01/18/2014  02:49:00      -90.290       -4.636      -19.099        8.237        9.200        7.004       67.850       84.642       49.050        0.437        0.010       90.409        4.526        0.003      330.668       -1.812      869.158
01/18/2014  02:50:00      -92.422      -15.053      -17.442       11.379        9.357        8.422      129.471       87.558       70.922        0.468        0.014       93.640        6.052        0.004      330.620       -1.891      869.162
01/18/2014  02:51:00      -74.836      -25.596      -17.102       10.731        7.748        6.155      115.149       60.037       37.878        0.338        0.011       79.092        2.136        0.001      330.624       -1.884      869.164
01/18/2014  02:52:00     -114.053       -4.547      -14.257       14.401       12.459        7.034      207.394      155.215       49.474        0.682        0.021      114.143        4.009        0.001      330.734       -1.703      869.167
01/18/2014  02:53:00      -78.711       -5.241      -12.201       17.595       12.711       11.957      309.571      161.576      142.974        0.349        0.031       78.885        7.166        0.008      330.766       -1.651      869.170
01/18/2014  02:54:00      -67.826        2.269       -8.924       16.895       11.612       10.804      285.449      134.836      116.729        0.261        0.027       67.864        6.250        0.008      330.850       -1.513      869.170
01/18/2014  02:55:00      -57.233       -7.933      -11.155        9.177        8.846        7.943       84.226       78.246       63.087        0.184        0.011       57.780        5.563        0.009      330.786       -1.619      869.177
01/18/2014  02:56:00      -60.588      -23.018      -13.336        9.615        8.104        9.166       92.441       65.674       84.007        0.231        0.012       64.813        6.280        0.009      330.777       -1.635      869.167
01/18/2014  02:57:00      -64.062      -12.543       -8.378       10.699        8.776        9.231      114.479       77.014       85.206        0.230        0.014       65.278        5.568        0.007      330.726       -1.716      869.158
01/18/2014  02:58:00      -77.251       -5.184      -15.034       10.631       11.495        9.259      113.017      132.128       85.726        0.328        0.017       77.424        6.809        0.008      330.698       -1.762      869.152
01/18/2014  02:59:00      -66.953       -6.725       -9.941       19.011        9.132        8.555      361.434       83.387       73.181        0.257        0.026       67.290        7.823        0.014      330.690       -1.775      869.142
01/18/2014  03:00:00      -79.062       -4.538       -7.268       11.754       16.421       10.693      138.163      269.639      114.345        0.342        0.026       79.192        6.264        0.006      330.712       -1.740      869.127
01/18/2014  03:01:00      -61.827       -8.313       -5.675       12.025       11.784       12.015      144.605      138.873      144.366        0.218        0.021       62.383        6.993        0.013      330.748       -1.681      869.118
01/18/2014  03:02:00      -48.784       -2.058       -4.245        8.937       12.850       10.911       79.877      165.115      119.041        0.138        0.018       48.828        6.208        0.016      330.667       -1.812      869.115
01/18/2014  03:03:00      -53.626      -12.452       -6.221       11.475       14.367        9.035      131.667      206.404       81.633        0.174        0.021       55.053        6.615        0.014      330.706       -1.751      869.100
01/18/2014  03:04:00      -66.681      -15.063       -9.768        9.624       13.466       12.276       92.624      181.336      150.707        0.260        0.021       68.361        5.742        0.007      330.645       -1.849      869.084
01/18/2014  03:05:00      -74.539      -15.290      -14.447       16.527       18.272       12.125      273.132      333.863      147.025        0.338        0.038       76.091        8.103        0.011      330.621       -1.889      869.063
01/18/2014  03:06:00      -60.969      -18.408       -9.779       17.782       17.186       12.046      316.183      295.352      145.108        0.245        0.038       63.687       10.905        0.029      330.629       -1.875      869.046
01/18/2014  03:07:00      -74.914       -4.998      -11.472       18.508       20.617       13.100      342.533      425.075      171.599        0.335        0.047       75.080        8.237        0.012      330.678       -1.795      869.030
01/18/2014  03:08:00      -69.304       -8.639      -11.049       13.429       11.374       10.355      180.334      129.365      107.228        0.271        0.021       69.840        6.898        0.010      330.568       -1.975      869.008
01/18/2014  03:09:00      -75.174      -15.245      -11.886       16.313       12.988        8.525      266.105      168.678       72.678        0.327        0.025       76.704        7.088        0.009      330.641       -1.856      868.999
01/18/2014  03:10:00      -76.541      -17.661       -7.848       24.088       13.797       10.608      580.230      190.344      112.528        0.356        0.044       78.552        6.320        0.006      330.610       -1.905      868.994
01/18/2014  03:11:00      -75.791      -20.091      -12.716       20.945       18.327       12.763      438.687      335.871      162.889        0.362        0.047       78.409       11.495        0.021      330.603       -1.919      868.990
01/18/2014  03:12:00      -63.737      -39.566       -8.248       14.217       17.676       16.958      202.132      312.442      287.571        0.325        0.040       75.019        8.345        0.012      330.628       -1.877      868.973
01/18/2014  03:13:00      -97.279      -34.164      -18.653       26.324       21.932       17.347      692.928      481.033      300.906        0.623        0.074      103.103       16.273        0.025      330.613       -1.901      868.959
01/18/2014  03:14:00     -115.004      -30.419       -9.859       17.282       23.050       14.274      298.678      531.284      203.756        0.764        0.052      118.959        8.848        0.006      330.588       -1.942      868.944
01/18/2014  03:15:00     -129.109       -5.651      -11.399       11.799       12.140       13.394      139.219      147.379      179.408        0.865        0.023      129.233        5.845        0.002      330.524       -2.048      868.936
01/18/2014  03:16:00     -115.444       -5.476      -15.905       22.064       16.955       15.446      486.820      287.484      238.593        0.731        0.051      115.573       12.272        0.011      330.625       -1.883      868.931
01/18/2014  03:17:00     -147.311      -16.344      -20.115       15.240       11.400       11.337      232.253      129.971      128.531        1.143        0.025      148.215        6.569        0.002      330.731       -1.709      868.917
01/18/2014  03:18:00     -123.596      -18.427      -20.212       14.533       11.849        8.837      211.204      140.397       78.094        0.823        0.021      124.963        4.605        0.001      330.679       -1.792      868.907
01/18/2014  03:19:00      -82.081      -55.410      -10.807       28.879       26.297       15.616      834.023      691.537      243.852        0.585        0.088       99.033       10.850        0.012      330.569       -1.974      868.893
01/18/2014  03:20:00      -96.075      -49.913      -11.685       19.215       23.355       18.716      369.208      545.456      350.287        0.656        0.063      108.267       10.136        0.009      330.570       -1.972      868.874
01/18/2014  03:21:00      -76.467      -47.557       -9.894       28.765       28.184       19.164      827.433      794.327      367.249        0.510        0.099       90.049       19.075        0.045      330.600       -1.923      868.851
01/18/2014  03:22:00     -127.443      -29.411      -19.450       19.371       21.368       13.250      375.228      456.577      175.574        0.925        0.050      130.793        7.390        0.003      330.509       -2.072      868.834
01/18/2014  03:23:00     -119.077      -14.359      -14.881       24.306       25.166       13.371      590.785      633.320      178.782        0.800        0.070      119.939       13.981        0.014      330.542       -2.018      868.822
01/18/2014  03:24:00      -87.094      -29.902      -11.320       30.267       24.866       15.347      916.099      618.315      235.544        0.519        0.088       92.084        9.851        0.011      330.505       -2.079      868.802
01/18/2014  03:25:00      -75.585      -29.666      -11.814       21.224       19.135       14.691      450.437      366.139      215.835        0.388        0.052       81.198       12.076        0.022      330.539       -2.023      868.788
01/18/2014  03:26:00      -54.947      -29.631       -9.626       36.348       19.972       20.828     1321.167      398.889      433.817        0.307        0.108       62.427       20.924        0.112      330.612       -1.904      868.784
01/18/2014  03:27:00      -86.502      -10.113       -5.390       41.630       26.928       20.248     1733.098      725.133      409.985        0.524        0.143       87.091       15.637        0.032      330.589       -1.940      868.788
01/18/2014  03:28:00      -89.256       -3.386       -2.090       36.393       34.526       24.539     1324.427     1192.047      602.145        0.555        0.156       89.320       18.846        0.045      330.645       -1.850      868.789
01/18/2014  03:29:00     -113.323      -21.981       -2.970       43.286       38.279       27.136     1873.690     1465.310      736.350        0.870        0.204      115.435       23.823        0.043      330.588       -1.943      868.790
01/18/2014  03:30:00      -69.869      -42.085        1.125       62.762       23.926       19.535     3939.013      572.461      381.630        0.577        0.245       81.564       22.864        0.079      330.555       -1.998      868.784
01/18/2014  03:31:00      -39.890      -21.619        1.507       38.104       30.158       17.191     1451.934      909.501      295.527        0.236        0.133       45.372       19.504        0.185      330.539       -2.024      868.790
01/18/2014  03:32:00      -72.431      -32.740       -1.145       49.271       30.106       21.086     2427.594      906.383      444.601        0.505        0.189       79.487       15.286        0.037      330.518       -2.058      868.793
01/18/2014  03:33:00      -48.496      -26.893       -7.153       36.656       21.857       15.070     1343.684      477.725      227.092        0.259        0.102       55.453       16.624        0.090      330.493       -2.100      868.805
01/18/2014  03:34:00      -67.994      -22.866      -16.134       24.965       15.680       15.405      623.233      245.851      237.314        0.326        0.055       71.736        7.340        0.010      330.468       -2.140      868.805
01/18/2014  03:35:00      -48.990      -21.896      -13.797       31.691       15.591       15.810     1004.320      243.092      249.940        0.228        0.075       53.660        8.896        0.027      330.413       -2.232      868.797
01/18/2014  03:36:00      -66.921      -16.797      -11.228       31.710       14.146       13.675     1005.523      200.102      187.013        0.314        0.070       68.997        8.270        0.014      330.386       -2.275      868.790
01/18/2014  03:37:00      -68.285      -29.601      -15.411       33.048       21.698       23.248     1092.175      470.815      540.480        0.394        0.105       74.425        4.075        0.003      330.361       -2.315      868.792
01/18/2014  03:38:00      -45.031      -17.605       -8.628       35.877       19.346       23.294     1287.155      374.268      542.611        0.231        0.110       48.350       21.072        0.190      330.317       -2.388      868.797
01/18/2014  03:39:00      -71.868      -19.115       -9.156       28.212       16.488       13.952      795.915      271.866      194.658        0.344        0.063       74.366       12.977        0.030      330.400       -2.251      868.802
01/18/2014  03:40:00      -72.779      -22.812      -16.758       25.536       15.650       15.376      652.063      244.920      236.435        0.362        0.057       76.270        8.804        0.013      330.453       -2.164      868.808
01/18/2014  03:41:00      -71.098      -37.372      -13.542       17.144       25.467       13.131      293.908      648.592      172.413        0.387        0.056       80.322        4.406        0.003      330.489       -2.106      868.812
01/18/2014  03:42:00      -56.623      -20.897      -22.655       17.879       17.412       13.941      319.656      303.171      194.353        0.249        0.041       60.356        8.650        0.021      330.543       -2.015      868.818
01/18/2014  03:43:00      -52.990      -19.810      -24.078       17.249       21.668       14.356      297.539      469.520      206.099        0.238        0.049       56.572       11.802        0.044      330.658       -1.828      868.824
01/18/2014  03:44:00      -69.497       -8.477      -15.438       12.655       16.648        8.901      160.156      277.159       79.229        0.283        0.026       70.012        7.648        0.012      330.882       -1.461      868.832
01/18/2014  03:45:00      -64.803      -10.360      -25.092        9.818       10.974       13.592       96.384      120.425      184.752        0.267        0.020       65.626        5.560        0.007      331.061       -1.166      868.833
01/18/2014  03:46:00      -60.989      -30.602       -9.282       16.555       16.875       16.392      274.057      284.764      268.709        0.278        0.041       68.236        4.430        0.004      330.684       -1.786      868.825
01/18/2014  03:47:00      -93.567       -8.782      -17.570        8.800        9.761        7.518       77.434       95.280       56.528        0.468        0.011       93.978        4.475        0.002      330.521       -2.052      868.812
01/18/2014  03:48:00      -77.668       -5.989      -20.041        8.550       11.038        8.707       73.101      121.838       75.815        0.337        0.014       77.899        6.002        0.006      330.592       -1.937      868.795
01/18/2014  03:49:00      -75.115      -19.731      -12.488       13.602       12.208        8.358      185.027      149.037       69.860        0.330        0.020       77.664        7.614        0.010      330.482       -2.118      868.786
01/18/2014  03:50:00      -68.780      -33.902      -10.764       11.147       16.506       10.912      124.264      272.458      119.082        0.326        0.026       76.681        6.368        0.007      330.586       -1.945      868.770
01/18/2014  03:51:00      -56.688      -12.953       -9.480        7.595        8.036        6.495       57.688       64.575       42.185        0.182        0.008       58.149        4.136        0.005      330.897       -1.436      868.761
01/18/2014  03:52:00      -27.732       -6.686       -4.201       16.561        7.489        7.282      274.261       56.080       53.029        0.061        0.019       28.527        5.435        0.036      331.087       -1.122      868.770
01/18/2014  03:53:00      -27.817      -21.532       -3.084       15.194       13.709        8.095      230.854      187.946       65.533        0.087        0.024       35.177        4.788        0.019      330.915       -1.407      868.767
01/18/2014  03:54:00      -37.265      -23.496       -5.624       16.534       13.831       12.568      273.386      191.288      157.954        0.130        0.031       44.054        8.961        0.041      330.550       -2.006      868.758
01/18/2014  03:55:00      -83.912      -22.325       -7.423       28.112       18.007       12.311      790.285      324.249      151.561        0.443        0.063       86.831       13.385        0.024      330.432       -2.199      868.762
01/18/2014  03:56:00      -98.642      -18.235      -10.439       14.153       16.048        9.717      200.304      257.536       94.414        0.536        0.028      100.314        6.741        0.005      330.341       -2.348      868.752
01/18/2014  03:57:00      -88.024      -34.165       -9.904       22.856       14.111       10.837      522.387      199.110      117.448        0.493        0.042       94.421        9.470        0.010      330.327       -2.369      868.743
01/18/2014  03:58:00      -82.342      -36.875       -8.384       16.430       12.663       13.592      269.937      160.341      184.744        0.441        0.031       90.222        7.594        0.007      330.313       -2.394      868.737
01/18/2014  03:59:00     -102.484      -14.585      -17.470       12.769       16.266       10.911      163.038      264.591      119.056        0.578        0.027      103.517        4.074        0.002      330.294       -2.425      868.728
01/18/2014  04:00:00     -107.947      -13.981      -15.739       20.014       16.943       13.758      400.552      287.055      189.276        0.649        0.044      108.849       10.550        0.009      330.360       -2.317      868.729
01/18/2014  04:01:00     -134.240      -17.506      -18.015       13.604        8.271        8.766      185.068       68.404       76.851        0.949        0.017      135.376        8.983        0.004      330.330       -2.366      868.731
01/18/2014  04:02:00     -114.772      -31.281      -16.735       18.194       14.598        9.842      331.019      213.090       96.870        0.754        0.032      118.958        4.663        0.002      330.377       -2.289      868.739
01/18/2014  04:03:00     -115.687      -28.779      -12.172       15.898       14.366       11.156      252.755      206.383      124.459        0.747        0.029      119.213        8.136        0.005      330.366       -2.307      868.757
01/18/2014  04:04:00     -126.565      -30.076      -12.489       19.046       15.413       14.854      362.746      237.561      220.635        0.895        0.041      130.089        8.212        0.004      330.339       -2.350      868.783
01/18/2014  04:05:00     -116.229      -21.507      -13.989       13.700       12.871       10.236      187.697      165.656      104.769        0.731        0.023      118.202        6.690        0.003      330.368       -2.304      868.805
01/18/2014  04:06:00     -110.609      -34.463      -13.679       14.448       13.233        9.876      208.751      175.109       97.526        0.705        0.024      115.854        7.499        0.004      330.426       -2.210      868.833
01/18/2014  04:07:00      -99.355      -30.434       -8.889       17.017       10.937       12.952      289.577      119.624      167.766        0.573        0.029      103.911       10.032        0.009      330.491       -2.103      868.847
01/18/2014  04:08:00     -121.761      -22.223      -10.667       13.923       17.336       12.685      193.853      300.533      160.919        0.804        0.033      123.773        9.421        0.006      330.473       -2.133      868.863
01/18/2014  04:09:00     -103.474      -24.519       -6.809       20.746       17.517       13.338      430.410      306.835      177.901        0.613        0.046      106.340        9.077        0.007      330.512       -2.068      868.872
01/18/2014  04:10:00      -82.779      -14.274       -1.017       34.814       13.122       14.948     1212.044      172.190      223.457        0.433        0.080       84.001       17.286        0.042      330.459       -2.153      868.882
01/18/2014  04:11:00      -81.927       -8.552       -2.102       27.105       20.303       15.075      734.684      412.200      227.254        0.408        0.069       82.372       14.542        0.031      330.482       -2.116      868.891
01/18/2014  04:12:00      -88.606      -10.818       -1.172       24.605       13.690       13.931      605.425      187.403      194.068        0.448        0.049       89.263       13.961        0.024      330.502       -2.084      868.899
01/18/2014  04:13:00      -78.362      -14.426       -2.594       25.964       15.891       15.075      674.109      252.532      227.270        0.375        0.058       79.679       16.352        0.042      330.424       -2.211      868.903
01/18/2014  04:14:00      -46.872       -3.402       -1.682       26.399       15.200       16.303      696.890      231.052      265.773        0.170        0.060       46.995       14.765        0.099      330.328       -2.369      868.905
01/18/2014  04:15:00      -82.137       -2.448       -4.659       23.138       12.543       13.396      535.384      157.324      179.446        0.382        0.044       82.173       13.827        0.028      330.371       -2.299      868.921
01/18/2014  04:16:00      -92.393      -10.555       -4.583       17.716       10.520       10.027      313.869      110.672      100.548        0.460        0.026       92.994        9.365        0.010      330.481       -2.118      868.918
01/18/2014  04:17:00      -88.740       -8.991      -10.467       14.126       11.941        7.930      199.553      142.587       62.881        0.424        0.020       89.194        6.489        0.005      330.542       -2.018      868.919
01/18/2014  04:18:00      -88.806      -36.256      -14.168       15.807       15.880        9.706      249.868      252.171       94.204        0.500        0.030       95.922        8.614        0.008      330.348       -2.337      868.919
01/18/2014  04:19:00      -95.579       -7.501       -6.401       22.985       14.360       13.413      528.318      206.203      179.921        0.507        0.046       95.873       13.154        0.019      330.262       -2.477      868.926
01/18/2014  04:20:00      -86.013       -7.785       -5.530       25.650       17.009       16.465      657.925      289.300      271.090        0.435        0.061       86.365       14.951        0.030      330.171       -2.627      868.940
01/18/2014  04:21:00     -120.530      -16.472      -13.149       16.709       14.731       11.236      279.185      216.994      126.245        0.780        0.031      121.650        8.053        0.004      330.143       -2.675      868.949
01/18/2014  04:22:00     -107.846      -27.307       -3.598       29.211       16.493       13.524      853.270      272.026      182.888        0.685        0.065      111.249       14.715        0.017      330.124       -2.705      868.953
01/18/2014  04:23:00     -127.638      -18.931      -11.584       20.005       13.743       14.930      400.187      188.874      222.892        0.880        0.041      129.034       12.668        0.010      330.094       -2.752      868.954
01/18/2014  04:24:00     -101.631      -10.458      -10.329       22.207       11.256       11.222      493.158      126.704      125.944        0.565        0.037      102.168       10.918        0.011      330.082       -2.773      868.948
01/18/2014  04:25:00      -60.921      -20.643       -9.870       17.419       15.544       12.664      303.424      241.602      160.373        0.247        0.035       64.323       10.989        0.029      330.098       -2.749      868.942
01/18/2014  04:26:00      -77.050      -14.966       -9.959       20.693       13.432       12.516      428.221      180.407      156.658        0.351        0.038       78.490       12.269        0.024      330.065       -2.801      868.936
01/18/2014  04:27:00      -85.838      -18.800      -12.182       12.991       16.033       11.447      168.779      257.043      131.038        0.421        0.028       87.872        8.861        0.010      330.080       -2.776      868.925
01/18/2014  04:28:00      -83.263      -23.944      -14.751       14.023       10.071        7.970      196.648      101.434       63.525        0.404        0.018       86.638        6.372        0.005      330.092       -2.757      868.910
01/18/2014  04:29:00      -65.064       -5.323       -7.743       21.335       12.606       11.938      455.165      158.900      142.520        0.254        0.038       65.282       12.864        0.039      330.111       -2.727      868.897
01/18/2014  04:30:00      -49.738        8.553       -8.265       17.633       15.255       11.787      310.925      232.705      138.939        0.165        0.034       50.468        9.375        0.035      330.196       -2.587      868.888
01/18/2014  04:31:00      -40.603       -8.163       -9.081       11.847        9.365        8.836      140.345       87.707       78.073        0.105        0.015       41.415        5.564        0.018      330.311       -2.398      868.880
01/18/2014  04:32:00      -28.916      -18.870        0.704       11.536       10.487       17.348      133.089      109.986      300.944        0.087        0.027       34.529       10.320        0.089      330.428       -2.206      868.877
01/18/2014  04:33:00      -38.119      -18.371      -11.958       13.834       11.476       10.474      191.384      131.694      109.702        0.118        0.022       42.315        5.767        0.019      330.328       -2.370      868.875
01/18/2014  04:34:00      -60.750      -26.644      -10.437       22.435       12.195       12.436      503.322      148.709      154.644        0.266        0.040       66.336        8.408        0.016      330.242       -2.511      868.877
01/18/2014  04:35:00      -79.316       -7.015      -12.268       21.221       11.208       10.363      450.325      125.613      107.386        0.359        0.034       79.625        9.627        0.015      330.101       -2.742      868.888
01/18/2014  04:36:00      -76.124      -12.360       -7.947       14.079       16.343       11.760      198.232      267.092      138.299        0.331        0.030       77.121        8.606        0.012      330.120       -2.711      868.893
01/18/2014  04:37:00     -126.962       -5.136      -18.197       17.685       11.286       10.280      312.754      127.367      105.686        0.851        0.027      127.066        5.227        0.002      330.021       -2.872      868.900
01/18/2014  04:38:00     -129.789        0.463      -19.482       13.662       12.554       12.638      186.658      157.612      159.728        0.886        0.025      129.790        8.648        0.004      329.992       -2.919      868.910
01/18/2014  04:39:00      -76.548       -0.447      -17.268       22.333       11.649        9.067      498.771      135.688       82.217        0.344        0.036       76.550        8.649        0.013      330.142       -2.674      868.918
01/18/2014  04:40:00      -45.001       -4.988       -3.948       16.326        8.745        9.790      266.532       76.470       95.851        0.125        0.022       45.276        9.801        0.047      330.167       -2.633      868.929
01/18/2014  04:41:00      -22.990       -8.235       -6.037        9.540        5.144        3.946       91.015       26.456       15.573        0.038        0.007       24.420        4.868        0.040      330.379       -2.287      868.951
01/18/2014  04:42:00      -26.320       -9.116      -11.358        9.182        5.894        5.394       84.313       34.735       29.100        0.053        0.007       27.854        2.423        0.008      330.301       -2.412      868.980
01/18/2014  04:43:00      -16.025      -11.402       -4.751        8.256        6.626        6.668       68.166       43.908       44.458        0.028        0.008       19.668        3.403        0.030      330.313       -2.394      869.002
01/18/2014  04:44:00      -18.815      -10.140       -8.557        8.073        5.648        5.083       65.166       31.903       25.835        0.033        0.006       21.373        1.496        0.005      330.328       -2.370      869.018
01/18/2014  04:45:00      -11.308       -7.518        2.538       11.267        7.361        9.320      126.937       54.186       86.857        0.023        0.013       13.579        6.847        0.254      330.382       -2.281      869.028
01/18/2014  04:46:00        6.516      -15.197        3.250        8.585       11.483       11.039       73.704      131.859      121.859        0.031        0.016       16.535        8.588        0.270      330.473       -2.132      869.045
01/18/2014  04:47:00        1.924      -27.887       -4.142        9.046       11.937        9.950       81.833      142.504       98.994        0.056        0.016       27.954        7.826        0.078      330.494       -2.098      869.050
01/18/2014  04:48:00      -17.098      -16.108       -4.037       18.787       15.078        8.263      352.938      227.356       68.272        0.061        0.032       23.491        6.947        0.087      330.254       -2.490      869.053
01/18/2014  04:49:00      -37.468       -7.302       -3.949        7.341        5.831        4.616       53.883       33.997       21.310        0.079        0.005       38.173        2.040        0.003      330.197       -2.583      869.061
01/18/2014  04:50:00      -35.958      -11.390       -5.689        8.087        8.234        5.360       65.393       67.801       28.735        0.081        0.008       37.719        2.207        0.003      330.275       -2.457      869.059
01/18/2014  04:51:00      -45.240       -4.178       -6.936        9.021        7.279        6.498       81.370       52.980       42.218        0.114        0.009       45.432        4.828        0.011      330.238       -2.517      869.060
01/18/2014  04:52:00      -32.604       -7.533       -0.522        5.472        7.298        6.195       29.946       53.267       38.382        0.062        0.006       33.463        3.251        0.009      330.305       -2.409      869.056
01/18/2014  04:53:00      -43.832      -12.048       -7.965        6.389        7.334        6.561       40.819       53.786       43.050        0.113        0.007       45.458        3.531        0.006      330.277       -2.452      869.056
01/18/2014  04:54:00      -42.436       -8.141       -8.164        7.066        7.348        4.353       49.933       53.998       18.949        0.103        0.006       43.210        3.379        0.006      330.253       -2.490      869.054
01/18/2014  04:55:00      -33.202        0.561       -5.511        5.456        4.361        5.940       29.765       19.019       35.289        0.061        0.004       33.207        1.212        0.001      330.292       -2.429      869.061
01/18/2014  04:56:00      -28.228        5.335       -3.647        9.073        6.778        6.566       82.324       45.947       43.118        0.050        0.009       28.727        2.932        0.010      330.414       -2.230      869.063
01/18/2014  04:57:00      -21.368        5.340        2.317        8.142        6.641        8.710       66.291       44.108       75.868        0.034        0.009       22.025        5.747        0.068      330.433       -2.198      869.061
01/18/2014  04:58:00      -31.164       -5.852       -3.170        9.552        7.574        7.908       91.248       57.368       62.541        0.061        0.011       31.708        5.643        0.032      330.353       -2.327      869.060
01/18/2014  04:59:00      -28.244       -4.287       -2.924        5.802        5.039        5.411       33.665       25.396       29.280        0.046        0.004       28.567        3.479        0.015      330.300       -2.415      869.059
01/18/2014  05:00:00       -9.631       -9.853       -1.514        8.308        6.156        3.044       69.021       37.898        9.267        0.015        0.006       13.778        2.048        0.022      330.386       -2.276      869.059
01/18/2014  05:01:00      -15.045       -3.666       -3.316        7.620        7.529        4.890       58.067       56.691       23.908        0.019        0.007       15.485        5.346        0.119      330.416       -2.228      869.062
01/18/2014  05:02:00       -6.232       -8.131        6.428        4.865        6.876        7.111       23.670       47.285       50.569        0.013        0.006       10.244        3.665        0.128      330.522       -2.052      869.072
01/18/2014  05:03:00      -10.795       -5.466        4.278        5.054       11.098        5.469       25.542      123.171       29.913        0.017        0.009       12.100        4.412        0.133      330.516       -2.061      869.089
01/18/2014  05:04:00      -26.683       -2.206        2.813       11.636        5.610        6.006      135.404       31.474       36.067        0.046        0.010       26.774        4.896        0.033      330.350       -2.332      869.111
01/18/2014  05:05:00      -13.603       -0.207        6.580       12.095        4.025        5.438      146.283       16.198       29.576        0.021        0.010       13.604        5.339        0.154      330.243       -2.509      869.142
01/18/2014  05:06:00       -8.828        1.214        1.159        7.112        5.359        8.155       50.576       28.718       66.506        0.011        0.007        8.911        3.046        0.117      330.297       -2.420      869.179
01/18/2014  05:07:00       -5.250       -8.539        6.715       14.050        8.638        7.240      197.400       74.622       52.424        0.023        0.016       10.024        8.263        0.679      330.335       -2.357      869.218
01/18/2014  05:08:00      -10.976        8.739        5.964        8.517        8.988        4.620       72.532       80.775       21.340        0.020        0.009       14.030        4.348        0.096      330.394       -2.260      869.244
01/18/2014  05:09:00      -21.839       -6.903        6.731       14.839        7.032        6.597      220.207       49.449       43.526        0.044        0.016       22.904        7.483        0.107      330.297       -2.421      869.265
01/18/2014  05:10:00      -16.050       -8.770       -4.169        8.919        8.100        4.759       79.542       65.605       22.650        0.026        0.008       18.289        3.356        0.034      330.168       -2.633      869.279
01/18/2014  05:11:00      -28.976       -4.867       -9.414        8.487        5.391        4.436       72.033       29.058       19.680        0.054        0.006       29.382        3.253        0.012      330.193       -2.590      869.289
01/18/2014  05:12:00      -29.530        0.103       -5.040        7.083        9.479        4.289       50.170       89.848       18.393        0.053        0.008       29.530        2.913        0.010      330.187       -2.601      869.301
01/18/2014  05:13:00      -26.507        8.611       -4.868       11.451        9.781        5.668      131.117       95.664       32.122        0.053        0.013       27.871        3.742        0.018      330.172       -2.626      869.309
01/18/2014  05:14:00      -16.920       12.576       -2.710       15.601       12.223        6.227      243.381      149.390       38.774        0.044        0.022       21.082        4.666        0.049      330.365       -2.310      869.319
01/18/2014  05:15:00      -11.681       20.390       -5.255       16.789       16.643        9.770      281.854      276.974       95.445        0.062        0.033       23.499        5.763        0.060      330.439       -2.188      869.321
01/18/2014  05:16:00      -38.574       -1.111       -5.359        8.667        5.991        6.155       75.118       35.887       37.881        0.083        0.007       38.590        2.909        0.006      330.299       -2.416      869.321
01/18/2014  05:17:00      -29.386       -8.949       -4.621        6.778        9.610        7.296       45.945       92.354       53.228        0.058        0.010       30.718        4.181        0.019      330.230       -2.531      869.316
01/18/2014  05:18:00      -36.079      -20.786      -10.419       11.290        7.248        6.938      127.454       52.527       48.138        0.104        0.011       41.638        2.005        0.002      330.109       -2.729      869.316
01/18/2014  05:19:00      -42.958      -16.551       -4.272        8.611       10.637        9.627       74.146      113.144       92.677        0.121        0.014       46.036        6.265        0.019      329.994       -2.916      869.308
01/18/2014  05:20:00      -55.238       -3.427      -10.322       11.326        9.244        8.860      128.270       85.443       78.508        0.173        0.015       55.345        4.906        0.008      330.016       -2.881      869.289
01/18/2014  05:21:00      -56.371        1.689       -6.896       22.167       11.156       16.222      491.356      124.449      263.167        0.205        0.044       56.397       14.250        0.064      329.961       -2.972      869.273
01/18/2014  05:22:00      -61.721        0.858       -9.732       19.368        8.738       11.435      375.113       76.347      130.765        0.224        0.029       61.727        8.546        0.019      330.062       -2.807      869.257
01/18/2014  05:23:00      -77.185        1.452      -14.912       11.040        9.369        9.221      121.877       87.776       85.031        0.324        0.015       77.198        5.867        0.006      329.981       -2.939      869.249
01/18/2014  05:24:00      -89.446        4.028      -13.610       11.472        9.471       10.965      131.615       89.692      120.229        0.427        0.017       89.537        6.932        0.006      329.938       -3.009      869.248
01/18/2014  05:25:00      -75.424        7.419      -12.076       17.451       16.221       15.329      304.536      263.116      234.989        0.335        0.040       75.788       11.944        0.025      329.906       -3.061      869.251
01/18/2014  05:26:00      -63.047       -1.637       -8.621       17.351       17.137        9.653      301.073      293.672       93.190        0.237        0.034       63.068       10.891        0.030      330.052       -2.823      869.264
01/18/2014  05:27:00      -72.439        4.053      -14.701       11.884        7.678        6.791      141.240       58.953       46.111        0.286        0.012       72.552        2.839        0.002      330.107       -2.731      869.279
01/18/2014  05:28:00      -65.034        0.568      -14.309       13.662       12.181        9.568      186.641      148.365       91.554        0.243        0.021       65.037        9.418        0.021      330.129       -2.697      869.285
01/18/2014  05:29:00      -72.842       -4.545      -14.684       10.100       10.073        9.239      102.018      101.472       85.362        0.292        0.014       72.984        6.545        0.008      330.155       -2.653      869.296
01/18/2014  05:30:00      -73.927       -7.656      -16.409       14.163       14.553        9.091      200.583      211.799       82.649        0.314        0.025       74.322        7.929        0.011      330.120       -2.711      869.299
01/18/2014  05:31:00      -57.693      -18.424       -9.969       16.034       13.295        9.033      257.093      176.749       81.603        0.214        0.026       60.563        7.161        0.014      330.027       -2.862      869.303
01/18/2014  05:32:00      -65.161      -36.058      -11.764       22.217       16.214       11.856      493.577      262.892      140.565        0.329        0.045       74.473        7.562        0.010      330.175       -2.620      869.309
01/18/2014  05:33:00      -74.979      -23.204      -17.568       18.787       22.399       13.429      352.954      501.714      180.328        0.375        0.052       78.487       12.060        0.024      330.099       -2.745      869.325
01/18/2014  05:34:00      -76.411      -34.545      -14.298       27.648       21.987       14.948      764.411      483.436      223.440        0.435        0.074       83.857        8.508        0.010      329.928       -3.025      869.341
01/18/2014  05:35:00      -95.628      -18.688       -9.315       48.074       25.602       17.904     2311.096      655.457      320.551        0.643        0.164       97.437       24.885        0.065      329.918       -3.041      869.367
01/18/2014  05:36:00     -110.087       -1.110      -18.702       17.815       12.466       11.350      317.388      155.413      128.815        0.654        0.030      110.093        9.986        0.008      329.856       -3.143      869.376
01/18/2014  05:37:00      -85.088      -23.886      -21.703       20.425       21.936       14.458      417.162      481.198      209.042        0.469        0.055       88.377       11.025        0.016      329.854       -3.145      869.388
01/18/2014  05:38:00     -101.385      -39.086      -15.097       23.512       17.136       10.671      552.831      293.626      113.876        0.650        0.048      108.658        7.186        0.004      329.859       -3.136      869.400
01/18/2014  05:39:00     -114.797      -14.118      -16.091       17.357       14.126       13.779      301.276      199.555      189.875        0.716        0.035      115.661       12.053        0.011      329.928       -3.026      869.417
01/18/2014  05:40:00     -125.441       -1.764      -19.278        8.085        9.291        7.182       65.372       86.314       51.575        0.816        0.010      125.453        3.329        0.001      330.020       -2.874      869.432
01/18/2014  05:41:00     -117.173       -9.947      -12.898       14.256       12.503        9.276      203.229      156.317       86.038        0.722        0.022      117.594        3.423        0.001      330.033       -2.853      869.447
01/18/2014  05:42:00      -70.565       -5.102       -0.350       27.032       27.258       17.456      730.725      742.997      304.713        0.339        0.089       70.749       16.962        0.057      329.913       -3.049      869.451
01/18/2014  05:43:00      -82.733       -3.223       -2.720       32.219       18.262       17.048     1038.063      333.508      290.648        0.426        0.083       82.796       17.635        0.045      329.944       -2.999      869.453
01/18/2014  05:44:00      -58.891       -9.092       -2.209       30.472       16.500       16.210      928.541      272.255      262.777        0.251        0.073       59.589       18.097        0.092      329.947       -2.993      869.449
01/18/2014  05:45:00      -85.488       -5.171      -12.551       16.880       10.607       12.911      284.939      112.506      166.684        0.403        0.028       85.644       11.290        0.017      329.981       -2.939      869.450
01/18/2014  05:46:00      -82.041      -27.865      -19.015       15.161       22.520        9.987      229.852      507.154       99.731        0.435        0.042       86.644        6.766        0.006      329.909       -3.056      869.442
01/18/2014  05:47:00      -83.222      -40.346      -14.769       20.615       21.104       16.297      424.959      445.379      265.607        0.495        0.057       92.486       11.732        0.016      329.781       -3.267      869.430
01/18/2014  05:48:00      -74.565      -40.003      -12.263       22.028       23.640       15.498      485.226      558.852      240.196        0.430        0.064       84.618        7.686        0.008      329.747       -3.320      869.411
01/18/2014  05:49:00      -81.197      -25.013      -11.708       34.135       23.298       18.475     1165.197      542.781      341.323        0.470        0.102       84.962       14.194        0.028      329.726       -3.355      869.408
01/18/2014  05:50:00      -96.235      -46.534       -7.663       25.563       23.408       21.101      653.478      547.915      445.236        0.657        0.082      106.895       13.998        0.017      329.690       -3.415      869.403
01/18/2014  05:51:00      -88.848      -10.450        2.988       68.629       49.966       33.283     4709.909     2496.589     1107.758        0.816        0.416       89.461       34.268        0.147      329.833       -3.182      869.387
01/18/2014  05:52:00      -98.240        4.167        0.652       58.831       42.480       29.361     3461.061     1804.516      862.039        0.790        0.306       98.328       28.817        0.086      329.791       -3.250      869.370
01/18/2014  05:53:00     -165.651        3.468      -12.669       38.092       45.034       25.587     1451.032     2028.084      654.687        1.587        0.207      165.688       18.478        0.012      329.722       -3.362      869.355
01/18/2014  05:54:00     -105.765      -48.682       -6.821       43.146       41.051       22.232     1861.590     1685.190      494.268        0.882        0.202      116.431       17.206        0.022      329.678       -3.435      869.341
01/18/2014  05:55:00     -118.877      -43.780       -4.767       41.267       38.304       23.918     1702.956     1467.222      572.080        0.991        0.187      126.682       24.890        0.039      329.621       -3.528      869.326
01/18/2014  05:56:00      -72.912      -52.960        2.846       28.729       37.358       19.828      825.377     1395.657      393.140        0.537        0.131       90.116       14.025        0.024      329.668       -3.450      869.317
01/18/2014  05:57:00      -42.026      -14.241        2.378       41.495       26.368       19.988     1721.824      695.289      399.513        0.240        0.141       44.374       24.318        0.300      329.596       -3.571      869.316
01/18/2014  05:58:00      -71.109      -30.792       -7.481       28.747       27.571       18.222      826.373      760.169      332.029        0.399        0.096       77.490       14.134        0.033      329.621       -3.528      869.316
01/18/2014  05:59:00      -82.182      -27.949       -3.258       28.420       33.780       18.682      807.697     1141.109      349.011        0.492        0.115       86.804       13.441        0.024      329.657       -3.469      869.341
01/18/2014  06:00:00      -69.097      -14.357       -7.284       34.782       22.337       15.573     1209.799      498.960      242.530        0.349        0.098       70.572       16.746        0.056      329.623       -3.525      869.345
01/18/2014  06:01:00     -117.588        5.596      -17.082       24.482       16.861       15.540      599.367      284.298      241.486        0.764        0.056      117.721       11.762        0.010      329.638       -3.500      869.358
01/18/2014  06:02:00     -103.071        7.302       -7.254       28.705       18.039       18.311      823.971      325.422      335.280        0.611        0.074      103.329       15.617        0.023      329.609       -3.547      869.376
01/18/2014  06:03:00     -113.031        0.825      -14.415       21.758       16.837       14.790      473.398      283.487      218.742        0.698        0.049      113.034       13.438        0.014      329.721       -3.363      869.400
01/18/2014  06:04:00      -98.978        0.129      -10.112       15.944       12.685        9.411      254.217      160.920       88.566        0.520        0.025       98.978        3.172        0.001      329.890       -3.087      869.415
01/18/2014  06:05:00      -77.860      -17.275      -11.533       13.708       14.541       11.835      187.919      211.435      140.070        0.352        0.027       79.753        7.584        0.009      329.900       -3.072      869.421
01/18/2014  06:06:00      -74.168      -16.926       -6.558       14.850       14.617       12.097      220.523      213.643      146.346        0.321        0.029       76.075        6.864        0.008      329.913       -3.051      869.432
01/18/2014  06:07:00      -72.767      -10.442       -8.454       15.161       11.264        8.770      229.847      126.887       76.907        0.295        0.022       73.513        6.260        0.007      329.935       -3.014      869.444
01/18/2014  06:08:00      -52.081      -16.985        0.310       15.720       11.478       10.500      247.126      131.740      110.250        0.174        0.024       54.780        9.601        0.031      329.898       -3.075      869.441
01/18/2014  06:09:00      -51.668       -3.514       -0.835       13.437        8.775        9.079      180.555       77.005       82.432        0.151        0.017       51.788        4.956        0.009      329.908       -3.058      869.439
01/18/2014  06:10:00      -45.105       -5.539       -1.859        9.748        8.482        7.861       95.018       71.946       61.793        0.115        0.011       45.444        4.888        0.012      329.874       -3.113      869.433
01/18/2014  06:11:00      -51.621       -8.560       -5.147        8.883        7.935        5.658       78.910       62.966       32.018        0.147        0.009       52.326        2.341        0.002      329.904       -3.065      869.438
01/18/2014  06:12:00      -46.644       -9.020       -4.959        9.880        6.826        6.026       97.623       46.597       36.317        0.123        0.009       47.508        4.096        0.007      329.930       -3.022      869.451
01/18/2014  06:13:00      -40.657       -3.603       -1.426       13.009        8.097        8.839      169.239       65.554       78.131        0.099        0.016       40.817        7.088        0.030      329.952       -2.985      869.452
01/18/2014  06:14:00      -28.447      -10.828       -1.142       10.286        9.145        7.923      105.799       83.637       62.768        0.059        0.013       30.439        6.782        0.050      329.985       -2.932      869.456
01/18/2014  06:15:00      -24.553        5.523       -3.490        7.496        7.689        6.983       56.190       59.122       48.765        0.040        0.008       25.167        5.648        0.050      330.019       -2.876      869.456
01/18/2014  06:16:00      -42.379       -0.482       -5.534        5.094        4.003        5.101       25.945       16.021       26.021        0.095        0.003       42.382        2.511        0.004      330.107       -2.731      869.466
01/18/2014  06:17:00      -33.332       12.752       -1.646       14.556       11.200        5.893      211.876      125.432       34.732        0.082        0.019       35.688        3.399        0.009      330.130       -2.694      869.469
01/18/2014  06:18:00      -41.694        1.132       -3.487        8.305        4.712        4.464       68.968       22.203       19.931        0.093        0.006       41.710        3.432        0.007      330.156       -2.654      869.466
01/18/2014  06:19:00      -35.349      -17.821       -3.722        4.687        6.565        6.144       21.965       43.094       37.746        0.084        0.005       39.587        3.496        0.008      329.973       -2.952      869.464
01/18/2014  06:20:00      -21.937      -14.405       -7.154        5.729        4.874        3.900       32.821       23.757       15.207        0.041        0.004       26.244        2.010        0.006      329.975       -2.949      869.466
01/18/2014  06:21:00       -6.626       -0.536        0.821        6.187        6.550        3.806       38.277       42.897       14.486        0.007        0.005        6.648        2.205        0.110      330.158       -2.648      869.470
01/18/2014  06:22:00        5.492       26.702        0.636       18.966       17.194       12.277      359.700      295.639      150.718        0.077        0.040       27.261        9.518        0.122      330.343       -2.344      869.479
01/18/2014  06:23:00       -3.205       34.255       -2.782       23.819       24.693       13.638      567.324      609.741      185.989        0.128        0.068       34.405       15.126        0.193      330.267       -2.470      869.496
01/18/2014  06:24:00        3.249       30.892       -2.752       19.187       16.623       12.056      368.157      276.322      145.342        0.088        0.039       31.063        9.259        0.089      330.319       -2.384      869.508
01/18/2014  06:25:00        3.888       45.037       -7.747       15.812       15.299        7.794      250.019      234.055       60.748        0.132        0.027       45.204        7.636        0.029      330.374       -2.296      869.533
01/18/2014  06:26:00       13.608       41.633       -6.055       12.889       13.444        7.095      166.130      180.741       50.345        0.118        0.020       43.800        4.501        0.011      330.402       -2.248      869.554
01/18/2014  06:27:00        4.773       49.581       -6.586       10.112       10.810        6.835      102.263      116.858       46.712        0.140        0.013       49.810        5.728        0.013      330.369       -2.304      869.562
01/18/2014  06:28:00        3.354       43.939       -7.427       14.483       15.234        6.773      209.767      232.060       45.869        0.124        0.024       44.067        7.742        0.031      330.316       -2.388      869.567
01/18/2014  06:29:00       -4.867       48.922       -4.280        9.999       16.328        4.984       99.989      266.606       24.840        0.141        0.020       49.163        6.385        0.017      330.332       -2.363      869.572
01/18/2014  06:30:00       -0.571       41.849       -3.503       12.214       21.753        8.478      149.176      473.197       71.875        0.123        0.035       41.853        8.718        0.043      330.366       -2.308      869.568
01/18/2014  06:31:00      -10.731        4.476        6.162       15.952       13.890       10.256      254.462      192.942      105.183        0.036        0.028       11.627        6.068        0.272      330.199       -2.580      869.565
01/18/2014  06:32:00      -32.337      -17.320        2.296       15.574        9.997        7.045      242.540       99.944       49.632        0.087        0.020       36.683        2.777        0.006      329.892       -3.084      869.560
01/18/2014  06:33:00      -38.442      -21.456       -4.623       10.755        7.772        6.749      115.669       60.407       45.554        0.109        0.011       44.024        3.682        0.007      329.661       -3.462      869.554
01/18/2014  06:34:00      -46.369      -15.478      -13.392       13.246        8.884        9.307      175.452       78.920       86.628        0.145        0.017       48.884        5.886        0.014      329.650       -3.480      869.543
01/18/2014  06:35:00      -61.130      -13.886        0.343       11.779       12.948       12.087      138.749      167.657      146.105        0.219        0.023       62.687        7.316        0.014      329.605       -3.553      869.531
01/18/2014  06:36:00      -64.204      -10.652       -9.129       11.299        9.740       10.063      127.668       94.874      101.259        0.232        0.016       65.082        5.061        0.006      329.612       -3.544      869.526
01/18/2014  06:37:00      -55.691        0.620      -14.853       10.417       10.975       10.867      108.507      120.460      118.093        0.183        0.017       55.694        3.757        0.005      329.498       -3.728      869.516
01/18/2014  06:38:00      -51.207      -15.457       -5.104       17.129       20.897       12.004      293.410      436.705      144.098        0.188        0.044       53.489       12.004        0.050      329.579       -3.596      869.517
01/18/2014  06:39:00      -66.375       -8.066      -10.690       11.154        9.716       11.868      124.408       94.397      140.843        0.247        0.018       66.864        5.426        0.007      329.547       -3.648      869.518
01/18/2014  06:40:00      -64.921       -3.605      -14.796        7.750        8.264        7.136       60.066       68.287       50.922        0.231        0.009       65.021        3.378        0.003      329.379       -3.925      869.516
01/18/2014  06:41:00      -62.119       -6.275      -10.299       11.701       10.885        8.504      136.905      118.494       72.317        0.217        0.016       62.436        6.336        0.010      329.462       -3.787      869.513
01/18/2014  06:42:00      -68.154       -8.449      -17.863        8.300        9.226        9.073       68.892       85.115       82.321        0.264        0.012       68.676        7.697        0.013      329.370       -3.939      869.516
01/18/2014  06:43:00      -69.544       -3.845      -12.608       24.758        9.488        9.391      612.943       90.028       88.197        0.290        0.040       69.650        7.863        0.013      329.449       -3.808      869.510
01/18/2014  06:44:00      -77.206        1.764       -9.626       11.503        9.576        9.230      132.317       91.702       85.189        0.318        0.015       77.226        6.113        0.006      329.485       -3.750      869.518
01/18/2014  06:45:00      -85.795        2.407      -19.639       12.965        7.763        9.509      168.096       60.268       90.422        0.404        0.016       85.829        6.690        0.006      329.567       -3.615      869.521
01/18/2014  06:46:00     -109.224        1.929      -15.771       15.103        7.611        8.596      228.088       57.923       73.899        0.627        0.018      109.241        1.830        0.000      329.685       -3.424      869.526
01/18/2014  06:47:00      -83.633        2.183      -15.902       16.813        9.473       10.820      282.684       89.738      117.073        0.387        0.024       83.661        6.129        0.005      329.654       -3.473      869.528
01/18/2014  06:48:00      -94.244        5.409      -13.267       19.661       12.411       10.428      386.570      154.036      108.751        0.487        0.032       94.399        8.336        0.008      329.601       -3.560      869.528
01/18/2014  06:49:00      -92.191        1.580      -13.741       17.046       13.467       15.162      290.553      181.373      229.890        0.470        0.035       92.205       13.146        0.020      329.626       -3.521      869.526
01/18/2014  06:50:00      -79.896        1.707       -9.440       17.880       12.311       12.145      319.683      151.565      147.494        0.355        0.031       79.914       10.632        0.018      329.590       -3.580      869.525
01/18/2014  06:51:00      -73.546        0.138      -12.125       20.166       13.741       12.918      406.658      188.821      166.864        0.316        0.038       73.546       12.893        0.031      329.605       -3.555      869.514
01/18/2014  06:52:00      -73.069        0.608      -13.453       21.638       19.729       14.851      468.217      389.249      220.546        0.330        0.054       73.072       10.546        0.021      329.573       -3.607      869.504
01/18/2014  06:53:00      -73.842       -6.357      -12.473       21.204       15.317       14.020      449.624      234.623      196.557        0.326        0.044       74.116       10.416        0.020      329.574       -3.605      869.483
01/18/2014  06:54:00      -72.949        0.853       -9.740       29.372       13.377       12.085      862.727      178.956      146.054        0.330        0.059       72.954       13.944        0.037      329.639       -3.499      869.474
01/18/2014  06:55:00      -65.295       -4.176      -10.855       22.623       13.334       11.201      511.802      177.785      125.459        0.261        0.041       65.428       10.593        0.026      329.659       -3.465      869.477
01/18/2014  06:56:00      -81.317       -8.150      -15.482       18.113       17.594        9.402      328.064      309.556       88.393        0.382        0.036       81.725        9.249        0.013      329.634       -3.507      869.471
01/18/2014  06:57:00      -93.466      -14.484      -11.302       18.487       20.178       12.140      341.753      407.160      147.389        0.498        0.045       94.582        9.687        0.010      329.515       -3.700      869.467
01/18/2014  06:58:00      -75.869      -10.109      -10.662       20.170       19.616       15.285      406.836      384.768      233.624        0.350        0.051       76.539       10.803        0.020      329.524       -3.686      869.467
01/18/2014  06:59:00      -81.288       -2.664      -14.182       17.806       16.608       12.650      317.053      275.819      160.021        0.378        0.038       81.331       10.902        0.018      329.557       -3.633      869.474
01/18/2014  07:00:00      -69.786        1.915       -9.799       25.060       16.916       13.796      628.027      286.155      190.331        0.304        0.055       69.813       12.312        0.031      329.659       -3.464      869.484
01/18/2014  07:01:00      -76.820       -4.738      -12.002       13.666       18.161       12.770      186.755      329.813      163.080        0.337        0.034       76.966       10.007        0.017      329.615       -3.537      869.488
01/18/2014  07:02:00      -73.741       -3.991      -11.292       19.810       17.098       12.919      392.434      292.356      166.889        0.322        0.043       73.849        7.674        0.011      329.718       -3.367      869.492
01/18/2014  07:03:00      -78.708      -14.735       -7.863       19.188       12.426       12.756      368.173      154.399      162.713        0.358        0.034       80.075        8.618        0.012      329.622       -3.525      869.486
01/18/2014  07:04:00      -87.839      -28.607      -18.717       14.977       22.337        8.740      224.315      498.952       76.391        0.484        0.040       92.380        7.839        0.007      329.658       -3.469      869.476
01/18/2014  07:05:00      -75.337      -21.197      -14.195       17.215       21.275       13.965      296.350      452.614      195.020        0.364        0.047       78.263        7.754        0.010      329.639       -3.499      869.475
01/18/2014  07:06:00      -69.859      -18.216      -12.180       15.684       16.015        8.878      245.998      256.482       78.825        0.297        0.029       72.195        3.697        0.003      329.524       -3.686      869.471
01/18/2014  07:07:00      -63.362      -15.578      -10.320       16.102       12.368        7.013      259.267      152.977       49.181        0.241        0.023       65.249        6.548        0.010      329.496       -3.730      869.462
01/18/2014  07:08:00      -75.200      -13.346      -12.131       12.533        8.321        7.013      157.078       69.243       49.187        0.313        0.014       76.375        4.833        0.004      329.484       -3.752      869.444
01/18/2014  07:09:00      -94.407      -15.614      -16.129       12.509       11.928        8.410      156.466      142.284       70.734        0.489        0.018       95.689        2.031        0.000      329.500       -3.725      869.429
01/18/2014  07:10:00      -99.121      -23.547      -15.206       20.364       16.664       10.856      414.682      277.696      117.854        0.571        0.041      101.880       10.670        0.011      329.476       -3.764      869.423
01/18/2014  07:11:00     -124.783      -22.998      -15.582       20.823       18.518       10.028      433.586      342.921      100.552        0.861        0.044      126.885        6.103        0.002      329.431       -3.839      869.410
01/18/2014  07:12:00     -127.983      -27.814      -16.301       25.000       23.112       14.230      625.000      534.183      202.491        0.939        0.068      130.971       11.103        0.007      329.386       -3.912      869.391
01/18/2014  07:13:00     -110.340      -29.348       -9.509       25.608       22.024       15.486      655.775      485.061      239.802        0.725        0.069      114.177       11.821        0.011      329.323       -4.015      869.384
01/18/2014  07:14:00     -110.575      -18.268      -10.382       22.817       23.110       15.035      520.593      534.094      226.051        0.697        0.064      112.074       11.695        0.011      329.291       -4.066      869.371
01/18/2014  07:15:00     -113.610      -19.188       -5.546       25.796       30.053       15.454      665.421      903.166      238.818        0.756        0.090      115.219       12.760        0.012      329.296       -4.059      869.370
01/18/2014  07:16:00      -88.650      -10.165       -1.806       40.401       30.933       25.597     1632.201      956.828      655.227        0.560        0.162       89.231       16.498        0.034      329.350       -3.970      869.363
01/18/2014  07:17:00      -45.362       -2.445       -4.030       52.590       39.186       23.172     2765.747     1535.512      536.928        0.346        0.242       45.428       11.290        0.062      329.464       -3.784      869.372
01/18/2014  07:18:00     -119.431       19.865       -8.079       46.074       33.162       25.508     2122.785     1099.742      650.634        0.930        0.194      121.072       25.193        0.043      329.464       -3.785      869.371
01/18/2014  07:19:00     -128.936        1.082       -5.884       48.721       28.310       23.216     2373.761      801.468      538.997        1.019        0.186      128.940       23.181        0.032      329.357       -3.959      869.371
01/18/2014  07:20:00     -105.888        1.956       -1.284       48.154       33.144       22.902     2318.802     1098.543      524.482        0.758        0.197      105.906       25.854        0.060      329.312       -4.032      869.370
01/18/2014  07:21:00     -129.351       11.472       -7.096       24.807       27.796       19.907      615.369      772.637      396.305        0.935        0.089      129.859       13.195        0.010      329.350       -3.972      869.365
01/18/2014  07:22:00     -116.526       18.760       -9.037       42.824       24.653       18.829     1833.900      607.771      354.548        0.840        0.140      118.026       16.581        0.020      329.390       -3.907      869.378
01/18/2014  07:23:00     -127.992        7.414       -6.246       41.967       28.098       19.895     1761.205      789.473      395.830        0.971        0.147      128.206       20.782        0.026      329.379       -3.924      869.380
01/18/2014  07:24:00      -64.718        2.990        1.858       38.409       34.937       20.106     1475.272     1220.599      404.264        0.365        0.155       64.787       20.367        0.099      329.376       -3.929      869.383
01/18/2014  07:25:00      -53.214      -22.281       -2.528       24.722       30.397       16.038      611.172      923.979      257.225        0.256        0.090       57.690       11.824        0.042      329.431       -3.838      869.382
01/18/2014  07:26:00      -82.204      -20.699       -4.339       23.563       27.250       15.256      555.194      742.582      232.752        0.437        0.077       84.770       11.015        0.017      329.511       -3.708      869.378
01/18/2014  07:27:00      -14.295       -8.724        5.148       26.723       14.310       13.096      714.123      204.784      171.508        0.070        0.055       16.747       12.206        0.531      329.476       -3.765      869.387
01/18/2014  07:28:00      -29.955      -15.039       -6.865       18.563       13.913       11.045      344.579      193.565      121.983        0.092        0.033       33.518        7.060        0.044      329.533       -3.671      869.390
01/18/2014  07:29:00      -29.518      -10.213      -12.884       10.744       10.775       14.181      115.439      116.092      201.110        0.079        0.022       31.235        7.967        0.065      329.817       -3.205      869.393
01/18/2014  07:30:00      -41.198      -14.766      -11.476       10.934       11.330       10.864      119.547      128.361      118.035        0.121        0.018       43.765        7.937        0.033      330.011       -2.889      869.404
01/18/2014  07:31:00      -13.447       -8.198        0.424        9.434        7.636        6.014       89.008       58.306       36.170        0.022        0.009       15.749        4.672        0.088      329.967       -2.961      869.415
01/18/2014  07:32:00       -7.755      -10.584       -3.554        8.537        5.923        4.367       72.873       35.083       19.067        0.016        0.006       13.121        4.573        0.121      329.984       -2.934      869.417
01/18/2014  07:33:00       13.553        3.805        2.897       14.602       15.204       13.387      213.233      231.166      179.203        0.041        0.031       14.077        9.631        0.468      330.159       -2.648      869.426
01/18/2014  07:34:00       16.937       17.762        0.762       11.619       17.455       12.724      135.011      304.679      161.900        0.060        0.030       24.542       11.692        0.227      330.187       -2.600      869.433
01/18/2014  07:35:00       -6.362       38.324        0.153       14.849       22.197       14.204      220.494      492.718      201.743        0.121        0.046       38.849       11.015        0.080      330.189       -2.597      869.435
01/18/2014  07:36:00      -29.979       -2.460        0.468        7.509        7.298        7.831       56.388       53.264       61.323        0.054        0.009       30.079        3.462        0.013      329.955       -2.980      869.434
01/18/2014  07:37:00      -17.015      -14.277       -3.344       10.351       13.583        7.931      107.139      184.505       62.901        0.043        0.018       22.211        4.086        0.034      329.995       -2.916      869.440
01/18/2014  07:38:00      -11.021      -18.817      -11.221       11.194       13.933        8.285      125.304      194.134       68.635        0.049        0.019       21.807        5.744        0.069      329.958       -2.977      869.433
01/18/2014  07:39:00        6.220        1.564        3.004        8.311        8.713        8.608       69.078       75.921       74.104        0.013        0.011        6.413        5.954        0.862      330.113       -2.722      869.441
01/18/2014  07:40:00       13.642       -0.993        4.375       14.816       20.845       10.999      219.527      434.507      120.970        0.049        0.039       13.678        5.213        0.145      330.211       -2.563      869.447
01/18/2014  07:41:00       33.369       17.863        8.125       18.407       19.235       15.075      338.806      369.973      227.252        0.122        0.047       37.849       12.828        0.115      330.244       -2.507      869.454
01/18/2014  07:42:00       31.314       25.023        8.594       18.192       16.809       14.513      330.966      282.526      210.636        0.125        0.041       40.084       10.934        0.074      330.258       -2.486      869.446
01/18/2014  07:43:00       33.880       21.586        4.533       14.491       13.697       15.067      209.987      187.615      227.017        0.113        0.031       40.172        9.992        0.062      330.230       -2.531      869.450
01/18/2014  07:44:00       23.446        9.112        7.255       16.494        9.773       13.048      272.057       95.519      170.256        0.061        0.027       25.155       10.917        0.188      330.247       -2.501      869.462
01/18/2014  07:45:00      -10.358        1.895        9.415        6.521        5.453        5.207       42.522       29.735       27.115        0.015        0.005       10.530        1.801        0.029      330.318       -2.385      869.458
01/18/2014  07:46:00       -9.827        4.454       12.602        7.799        8.083        6.075       60.832       65.328       36.909        0.022        0.008       10.789        3.225        0.089      330.174       -2.622      869.462
01/18/2014  07:47:00        1.413        7.777       16.587       15.594        6.998        6.428      243.158       48.967       41.323        0.034        0.017        7.905        8.339        1.113      330.227       -2.536      869.464
01/18/2014  07:48:00       15.979       11.633       13.631       13.039        6.390       11.459      170.012       40.835      131.298        0.046        0.017       19.765        5.192        0.069      330.274       -2.457      869.459
01/18/2014  07:49:00       39.569       10.828       10.450       16.128       12.606       13.794      260.107      158.909      190.267        0.120        0.030       41.023       11.979        0.085      330.267       -2.470      869.473
01/18/2014  07:50:00       45.794       22.826       17.200       23.156       12.304       17.498      536.191      151.385      306.174        0.195        0.050       51.167       13.831        0.073      330.252       -2.493      869.473
01/18/2014  07:51:00       33.706       11.206       21.010       21.993       18.600       19.953      483.714      345.949      398.111        0.147        0.061       35.520       17.983        0.256      330.303       -2.411      869.468
01/18/2014  07:52:00       -3.272       17.238       29.587        8.066       13.135        8.681       65.067      172.516       75.357        0.075        0.016       17.546        6.936        0.156      330.440       -2.186      869.472
01/18/2014  07:53:00       -0.893        2.947       26.377       11.578       15.476       13.394      134.061      239.512      179.389        0.063        0.028        3.080       13.089       18.064      330.422       -2.216      869.470
01/18/2014  07:54:00        3.127        5.354       24.836       14.788       22.316       15.980      218.678      497.995      255.374        0.081        0.049        6.201       14.716        5.633      330.474       -2.131      869.469
01/18/2014  07:55:00       -0.230       22.659       42.122       16.815       21.320       16.290      282.744      454.533      265.357        0.164        0.050       22.660       14.243        0.395      330.448       -2.173      869.468
01/18/2014  07:56:00       -1.844       41.535       48.897        8.769       27.614       16.228       76.902      762.531      263.350        0.261        0.055       41.575       17.029        0.168      330.314       -2.392      869.467
01/18/2014  07:57:00        7.477       24.386       37.281       17.901       17.738       17.488      320.453      314.637      305.821        0.149        0.047       25.507       12.324        0.233      330.335       -2.359      869.473
01/18/2014  07:58:00       34.186       42.598       43.367       24.388       20.988       12.243      594.751      440.487      149.892        0.302        0.059       54.619        5.556        0.010      330.227       -2.536      869.484
01/18/2014  07:59:00       20.709       39.255       41.668       27.023       22.667       19.033      730.262      513.771      362.269        0.266        0.080       44.383       11.886        0.072      330.257       -2.486      869.488
01/18/2014  08:00:00       13.093       31.856       34.274       11.965       19.025        9.233      143.164      361.935       85.248        0.148        0.030       34.442        8.247        0.057      330.335       -2.357      869.487
01/18/2014  08:01:00        0.134       22.818       41.860       14.819       20.106        8.166      219.594      404.259       66.679        0.148        0.035       22.818        7.827        0.118      330.433       -2.197      869.487
01/18/2014  08:02:00       -2.481       13.102       33.634       13.226       15.383        7.834      174.917      236.622       61.365        0.089        0.024       13.335        5.061        0.144      330.528       -2.042      869.497
01/18/2014  08:03:00       -0.604       25.641       35.166        8.767       17.114        7.940       76.868      292.899       63.039        0.116        0.022       25.648        8.898        0.120      330.442       -2.183      869.510
01/18/2014  08:04:00       -1.127        0.623       16.475        7.476        5.674        8.338       55.888       32.190       69.516        0.022        0.008        1.288        3.687        8.197      330.819       -1.563      869.524
01/18/2014  08:05:00        8.423        3.742       34.594       11.096        9.092        7.190      123.124       82.657       51.697        0.077        0.013        9.217        6.182        0.450      330.759       -1.662      869.545
01/18/2014  08:06:00       -8.671       24.829       30.740        7.286       13.586       13.701       53.085      184.572      187.709        0.103        0.021       26.299        7.790        0.088      330.627       -1.879      869.553
01/18/2014  08:07:00       -6.537        7.186       23.562        6.846       11.353       10.577       46.866      128.893      111.878        0.047        0.014        9.714        8.974        0.853      330.885       -1.456      869.563
01/18/2014  08:08:00       -8.536       10.143       13.012       13.579        9.244        8.741      184.382       85.450       76.400        0.035        0.017       13.257        5.162        0.152      330.642       -1.857      869.560
01/18/2014  08:09:00      -17.886        3.067        4.932        7.162        8.345        6.249       51.297       69.643       39.054        0.026        0.008       18.147        5.719        0.099      330.427       -2.207      869.570
01/18/2014  08:10:00       -8.571       -0.546        8.892        8.903        5.232        6.034       79.255       27.370       36.405        0.015        0.007        8.588        3.424        0.159      330.783       -1.624      869.572
01/18/2014  08:11:00        5.310        1.019       13.774       11.807        6.769        7.707      139.394       45.819       59.394        0.023        0.012        5.407        7.084        1.717      330.964       -1.325      869.580
01/18/2014  08:12:00       36.141       20.339        2.398       16.250       11.005       13.388      264.077      121.112      179.239        0.114        0.028       41.471        5.472        0.017      330.576       -1.962      869.589
01/18/2014  08:13:00       26.412       21.759        9.246       16.998       16.656       18.423      288.940      277.433      339.409        0.108        0.045       34.221       11.213        0.107      330.759       -1.663      869.589
01/18/2014  08:14:00       34.585       27.675        9.709       16.455       13.262       14.620      270.780      175.888      213.732        0.136        0.033       44.295        7.824        0.031      330.686       -1.782      869.586
01/18/2014  08:15:00       39.168       28.539       -0.632       13.661       12.455       16.709      186.624      155.135      279.179        0.148        0.031       48.462        3.632        0.006      330.593       -1.934      869.586
01/18/2014  08:16:00       35.659       25.032       -4.092       11.430       11.740       11.246      130.643      137.820      126.466        0.115        0.020       43.568        8.194        0.035      330.659       -1.827      869.583
01/18/2014  08:17:00       26.645       29.155        2.484       19.545       15.455       17.910      382.012      238.865      320.777        0.125        0.047       39.497       12.812        0.105      330.853       -1.508      869.572
01/18/2014  08:18:00        5.965        6.033        9.617       10.054       10.573       13.616      101.084      111.792      185.392        0.028        0.020        8.485        8.624        1.033      331.162       -1.000      869.572
01/18/2014  08:19:00       -1.717       19.644        4.360       14.280       19.133       13.177      203.916      366.058      173.635        0.058        0.037       19.719        9.264        0.221      330.996       -1.273      869.580
01/18/2014  08:20:00        1.851       18.372       15.608       15.327       13.421       13.170      234.921      180.117      173.459        0.059        0.029       18.465        6.266        0.115      331.046       -1.192      869.588
01/18/2014  08:21:00      -32.263        3.071       16.278       12.218        9.819        7.835      149.276       96.419       61.390        0.081        0.015       32.409        7.716        0.057      330.859       -1.498      869.585
01/18/2014  08:22:00        4.545       14.156       12.876       17.565       12.800       12.892      308.532      163.834      166.208        0.051        0.032       14.867        6.110        0.169      331.010       -1.250      869.574
01/18/2014  08:23:00       -5.113        7.716       18.703        8.282       13.776       12.314       68.591      189.769      151.626        0.042        0.020        9.257        9.329        1.016      331.286       -0.797      869.563
01/18/2014  08:24:00       -4.857        2.910       25.202        5.409        7.867        7.502       29.259       61.886       56.279        0.041        0.007        5.662        4.660        0.677      331.615       -0.256      869.568
01/18/2014  08:25:00       -0.166       19.527       30.979        8.037       15.830        8.595       64.587      250.602       73.871        0.086        0.019       19.528        4.177        0.046      331.328       -0.728      869.572
01/18/2014  08:26:00       -4.473        1.036       20.591       11.301       10.103        9.526      127.720      102.078       90.743        0.038        0.016        4.591        6.097        1.764      331.442       -0.540      869.568
01/18/2014  08:27:00       -8.484        0.206       19.433       11.488       11.633       11.055      131.970      135.320      122.208        0.042        0.019        8.486        7.226        0.725      331.383       -0.637      869.566
01/18/2014  08:28:00       -9.956       -6.546        6.790        9.079       10.804       10.251       82.436      116.723      105.074        0.025        0.015       11.915        3.426        0.083      331.158       -1.007      869.570
01/18/2014  08:29:00       -8.384        7.340       19.490       10.130       11.155       14.128      102.616      124.441      199.600        0.047        0.021       11.143        8.082        0.526      331.601       -0.277      869.575
01/18/2014  08:30:00       39.077       17.085        4.841       17.039       14.483       19.381      290.335      209.764      375.611        0.136        0.044       42.649       12.611        0.087      331.192       -0.952      869.593
01/18/2014  08:31:00       53.030       28.809        6.550       14.815       13.865       16.876      219.484      192.225      284.800        0.219        0.035       60.350        3.895        0.004      331.171       -0.985      869.609
01/18/2014  08:32:00       66.309       41.343        1.453       15.851       18.804       18.851      251.241      353.584      355.375        0.353        0.048       78.141       10.912        0.020      331.098       -1.106      869.611
01/18/2014  08:33:00       70.641       36.092       -6.127       18.381       23.756       18.803      337.878      564.331      353.571        0.379        0.063       79.327        6.241        0.006      331.093       -1.114      869.612
01/18/2014  08:34:00       67.043       61.806       -2.788       20.938       16.098       13.423      438.379      259.137      180.178        0.460        0.044       91.185        6.441        0.005      331.043       -1.197      869.609
01/18/2014  08:35:00       71.302       46.817      -10.964       23.386       23.818       18.658      546.898      567.278      348.121        0.443        0.073       85.299       10.137        0.014      331.172       -0.984      869.608
01/18/2014  08:36:00       84.324       63.235        4.113       23.166       22.442       24.633      536.683      503.645      606.798        0.639        0.082      105.400        8.128        0.006      331.105       -1.094      869.603
01/18/2014  08:37:00       89.349       66.756       13.812       23.227       22.879       26.242      539.485      523.429      688.633        0.719        0.088      111.533        9.773        0.008      331.111       -1.086      869.597
01/18/2014  08:38:00       43.363       52.425       29.027       29.908       25.573       29.916      894.500      653.988      894.953        0.396        0.122       68.035       18.156        0.071      331.306       -0.764      869.583
01/18/2014  08:39:00       58.708       30.689       19.376       31.052       31.389       35.007      964.216      985.284     1225.483        0.397        0.159       66.245       19.616        0.088      331.341       -0.706      869.577
01/18/2014  08:40:00       82.118       71.169        0.427       25.390       23.067       22.887      644.646      532.091      523.819        0.675        0.085      108.666       16.294        0.022      331.206       -0.928      869.575
01/18/2014  08:41:00       81.215       69.096       13.606       21.187       23.369       27.236      448.901      546.127      741.810        0.665        0.087      106.630        8.837        0.007      331.126       -1.060      869.587
01/18/2014  08:42:00       40.167       51.518       10.396       30.895       26.446       26.207      954.480      699.405      686.808        0.336        0.117       65.326       18.541        0.081      331.388       -0.630      869.587
01/18/2014  08:43:00       50.280       55.490        0.260       32.158       21.686       18.172     1034.154      470.295      330.207        0.372        0.092       74.881        9.643        0.017      331.391       -0.624      869.597
01/18/2014  08:44:00       46.653       47.737       -6.698       19.856       20.257       21.317      394.263      410.326      454.395        0.288        0.063       66.748       16.411        0.060      331.331       -0.723      869.615
01/18/2014  08:45:00       53.620       35.305       -9.897       29.004       18.584       21.925      841.256      345.365      480.694        0.294        0.083       64.199       17.407        0.074      331.180       -0.972      869.630
01/18/2014  08:46:00       33.938       40.071        3.570       24.231       22.840       18.730      587.153      521.663      350.818        0.211        0.073       52.512       10.249        0.038      331.277       -0.812      869.653
01/18/2014  08:47:00       28.935       43.312       -5.839       23.368       29.880       16.699      546.061      892.823      278.868        0.223        0.086       52.088       16.256        0.097      331.312       -0.753      869.681
01/18/2014  08:48:00      -21.253       64.626      -10.214       13.577       31.426       22.111      184.337      987.582      488.910        0.320        0.083       68.031       20.162        0.088      331.453       -0.522      869.716
01/18/2014  08:49:00       -3.471       54.894      -11.234       19.313       17.891       13.684      373.005      320.075      187.261        0.202        0.044       55.004        6.016        0.012      331.315       -0.748      869.731
01/18/2014  08:50:00       -3.829       44.023        6.480       14.937       41.619       19.626      223.101     1732.109      385.197        0.217        0.117       44.189       22.928        0.269      331.761       -0.014      869.741
01/18/2014  08:51:00        8.508       41.229       -0.484       22.261       27.035       18.343      495.562      730.896      336.451        0.167        0.078       42.097       17.540        0.174      331.724       -0.076      869.742
01/18/2014  08:52:00       20.013       62.458       -9.936       17.600       28.701       21.522      309.760      823.742      463.201        0.300        0.080       65.585       17.409        0.070      331.537       -0.383      869.743
01/18/2014  08:53:00       55.249       26.174       14.414       20.342       16.260       21.666      413.804      264.377      469.431        0.255        0.057       61.135       10.418        0.029      331.566       -0.337      869.736
01/18/2014  08:54:00       27.674       18.256        5.806       15.377       24.317       14.656      236.467      591.310      214.802        0.109        0.052       33.153       10.840        0.107      331.672       -0.162      869.726
01/18/2014  08:55:00       42.877       28.862        7.055       21.664       25.910       28.343      469.345      671.323      803.342        0.233        0.097       51.686       14.352        0.077      331.585       -0.304      869.717
01/18/2014  08:56:00       48.291       33.608       12.744       19.198       20.662       18.748      368.560      426.924      351.480        0.239        0.057       58.835       11.002        0.035      331.663       -0.175      869.705
01/18/2014  08:57:00       -4.813       41.376        3.671        9.697       25.581       19.385       94.029      654.368      375.772        0.144        0.056       41.655       19.432        0.218      331.875        0.172      869.708
01/18/2014  08:58:00        4.771       33.169       17.229       22.528       15.227       20.405      507.533      231.876      416.373        0.129        0.058       33.510       11.593        0.120      332.123        0.580      869.712
01/18/2014  08:59:00        6.275       26.679       26.662       19.630       20.173       26.271      385.339      406.936      690.169        0.147        0.074       27.407       18.567        0.459      332.168        0.656      869.715
01/18/2014  09:00:00       28.996       33.060       27.886       35.538       31.338       26.091     1262.962      982.085      680.736        0.282        0.146       43.974       13.965        0.101      332.143        0.613      869.727
01/18/2014  09:01:00        7.903       29.162       31.609       20.517       22.136       17.633      420.946      489.997      310.939        0.157        0.061       30.214       12.363        0.167      332.417        1.067      869.738
01/18/2014  09:02:00       30.748       43.188       27.882       26.258       28.304       28.638      689.500      801.096      820.160        0.295        0.116       53.016       24.195        0.208      332.291        0.859      869.757
01/18/2014  09:03:00       -1.078       61.883       79.870       21.537       43.811       25.278      463.852     1919.422      638.993        0.662        0.151       61.892       26.447        0.183      332.168        0.655      869.771
01/18/2014  09:04:00       53.762       67.495       60.767       29.849       24.518       17.206      890.957      601.150      296.044        0.646        0.089       86.290       14.816        0.029      331.938        0.277      869.787
01/18/2014  09:05:00       24.867       36.443       38.638       29.781       21.225       21.119      886.910      450.491      446.001        0.261        0.089       44.119       17.017        0.149      332.168        0.655      869.795
01/18/2014  09:06:00       37.240       89.212       70.349       48.520       29.626       40.548     2354.234      877.722     1644.172        0.958        0.244       96.672       37.234        0.148      331.917        0.242      869.797
01/18/2014  09:07:00       47.496       94.358       90.053       36.339       30.796       22.490     1320.559      948.393      505.788        1.102        0.139      105.638       16.206        0.024      331.972        0.332      869.804
01/18/2014  09:08:00       91.739       75.379       48.822       40.027       19.996       28.652     1602.157      399.854      820.957        0.965        0.141      118.735       19.136        0.026      331.825        0.091      869.806
01/18/2014  09:09:00       49.974       71.396       62.707       34.290       37.376       33.417     1175.781     1396.960     1116.677        0.761        0.184       87.149       24.542        0.079      331.938        0.276      869.806
01/18/2014  09:10:00       39.554       60.959       57.575       37.578       30.482       22.700     1412.144      929.163      515.305        0.573        0.143       72.667       21.213        0.085      332.123        0.581      869.805
01/18/2014  09:11:00       52.740       88.701       73.283       37.909       26.267       30.841     1437.067      689.966      951.137        0.955        0.154      103.196       20.216        0.038      332.047        0.457      869.815
01/18/2014  09:12:00       61.391       82.819       78.296       37.061       29.584       26.124     1373.507      875.230      682.444        0.984        0.147      103.091       16.304        0.025      332.077        0.505      869.815
01/18/2014  09:13:00       16.559       64.123       81.352       30.385       41.065       24.186      923.256     1686.333      584.966        0.710        0.160       66.226       19.846        0.090      332.302        0.877      869.826
01/18/2014  09:14:00       55.911       92.261       66.457       48.857       37.069       39.163     2387.024     1374.124     1533.706        1.067        0.265      107.880       26.248        0.059      331.988        0.358      869.838
01/18/2014  09:15:00       28.854       51.949       72.132       42.673       39.977       25.330     1821.009     1598.148      641.613        0.640        0.203       59.425       24.492        0.170      332.309        0.887      869.849
01/18/2014  09:16:00       16.523       66.477       66.589       40.172       44.549       34.176     1613.824     1984.592     1167.996        0.695        0.238       68.500       26.611        0.151      332.361        0.973      869.867
01/18/2014  09:17:00       82.910       88.356       12.061       40.022       38.825       32.486     1601.740     1507.409     1055.331        0.949        0.208      121.165       26.883        0.049      331.983        0.351      869.883
01/18/2014  09:18:00       93.160       71.824        6.242       29.732       22.501       25.279      884.005      506.286      639.010        0.795        0.101      117.633       17.227        0.021      331.961        0.314      869.904
01/18/2014  09:19:00       45.823       26.239       18.918       38.666       26.479       19.319     1495.054      701.119      373.211        0.286        0.128       52.804       12.029        0.052      332.317        0.901      869.922
01/18/2014  09:20:00       94.048       77.719        2.340       27.900       27.853       27.314      778.431      775.785      746.029        0.860        0.115      122.005       18.933        0.024      332.124        0.583      869.927
01/18/2014  09:21:00       69.197       60.011        3.621       20.581       17.064       28.870      423.585      291.185      833.450        0.498        0.077       91.594       10.296        0.013      331.970        0.329      869.941
01/18/2014  09:22:00       65.731       57.617       26.789       41.129       27.432       34.720     1691.633      752.535     1205.505        0.600        0.182       87.408       19.957        0.052      332.358        0.968      869.946
01/18/2014  09:23:00        0.795       41.624       76.217       23.039       39.769       25.315      530.783     1581.603      640.838        0.515        0.138       41.631       23.982        0.332      332.672        1.487      869.957
01/18/2014  09:24:00       10.424       44.259       67.410       36.562       43.657       31.619     1336.759     1905.957      999.737        0.543        0.212       45.470       26.739        0.346      332.883        1.836      869.967
01/18/2014  09:25:00       89.721       70.703        9.484       28.451       21.177       35.114      809.459      448.463     1232.997        0.781        0.125      114.231       16.112        0.020      332.190        0.691      869.992
01/18/2014  09:26:00       55.600       68.820       -8.574       30.321       30.790       26.675      919.333      948.033      711.532        0.524        0.129       88.473       19.714        0.050      332.299        0.872      869.996
01/18/2014  09:27:00       25.802       56.023       -2.113       22.884       38.946       24.051      523.660     1516.795      578.461        0.321        0.131       61.679       24.217        0.154      332.485        1.179      870.010
01/18/2014  09:28:00       24.626       32.836        6.766       22.018       29.003       23.697      484.789      841.155      561.525        0.181        0.094       41.044       17.406        0.180      332.822        1.734      870.021
01/18/2014  09:29:00       24.480       75.564       -0.706       32.261       28.451       28.759     1040.761      809.464      827.058        0.449        0.134       79.430       20.857        0.069      332.537        1.265      870.031
01/18/2014  09:30:00       14.475       60.872       56.578       31.001       33.710       22.631      961.079     1136.369      512.143        0.486        0.130       62.569       16.754        0.072      332.933        1.918      870.031
01/18/2014  09:31:00       31.461        0.449       24.695       34.992       38.116       33.286     1224.442     1452.851     1107.932        0.269        0.189       31.464       25.237        0.643      332.817        1.727      870.037
01/18/2014  09:32:00       10.628       40.157       45.971       27.172       27.373       21.327      738.295      749.286      454.835        0.289        0.097       41.539       12.939        0.097      333.036        2.088      870.036
01/18/2014  09:33:00        1.005        2.326       35.631       25.311       25.386       15.366      640.652      644.449      236.116        0.140        0.076        2.534       10.672       17.736      333.408        2.703      870.030
01/18/2014  09:34:00       -4.064       46.536       79.157       21.894       39.130       24.680      479.336     1531.168      609.091        0.553        0.131       46.713       24.882        0.284      333.086        2.171      870.040
01/18/2014  09:35:00       75.741       78.256       59.237       35.009       26.565       34.881     1225.608      705.708     1216.715        0.926        0.157      108.907       13.760        0.016      332.506        1.212      870.049
01/18/2014  09:36:00       41.910       64.654       43.250       33.338       30.002       34.232     1111.429      900.145     1171.813        0.549        0.159       77.049       15.119        0.039      332.713        1.554      870.048
01/18/2014  09:37:00       31.605       51.355       73.397       29.982       31.641       18.190      898.915     1001.127      330.887        0.563        0.112       60.301       15.303        0.064      332.830        1.746      870.039
01/18/2014  09:38:00       54.998       61.863       75.046       32.898       28.183       30.035     1082.292      794.292      902.086        0.763        0.139       82.776       20.329        0.060      332.616        1.394      870.034
01/18/2014  09:39:00        3.499       47.626       70.578       15.184       25.893       17.196      230.554      670.426      295.690        0.423        0.060       47.754       17.629        0.136      332.841        1.767      870.033
01/18/2014  09:40:00        9.848       43.482       68.597       21.504       35.259       16.811      462.428     1243.217      282.594        0.434        0.099       44.583       20.294        0.207      333.002        2.033      870.027
01/18/2014  09:41:00        2.302       23.566       61.972       20.504       33.896       21.437      420.419     1148.912      459.526        0.321        0.101       23.678       21.883        0.854      333.123        2.232      870.024
01/18/2014  09:42:00       13.994       28.619       60.291       28.748       25.432       15.476      826.446      646.772      239.505        0.318        0.086       31.858       15.766        0.245      333.127        2.239      870.029
01/18/2014  09:43:00       34.323       34.771       48.840       24.482       31.846       21.316      599.349     1014.199      454.367        0.342        0.103       48.857       10.112        0.043      333.155        2.286      870.043
01/18/2014  09:44:00       47.975       46.810       37.202       14.456       13.535       14.010      208.967      183.190      196.277        0.323        0.029       67.028        2.972        0.002      332.735        1.592      870.045
01/18/2014  09:45:00       62.649       59.296        9.584       17.615       13.521       14.287      310.285      182.811      204.130        0.411        0.035       86.261        8.258        0.009      332.699        1.530      870.047
01/18/2014  09:46:00       50.271       66.171       62.734       38.524       32.907       27.289     1484.101     1082.840      744.705        0.708        0.166       83.101       20.841        0.063      332.942        1.933      870.049
01/18/2014  09:47:00       39.988       65.134       54.073       32.331       32.427       29.937     1045.302     1051.481      896.213        0.588        0.150       76.430       17.346        0.052      333.093        2.182      870.054
01/18/2014  09:48:00       56.617       84.817       65.067       35.823       23.072       20.669     1283.266      532.305      427.223        0.844        0.112      101.978       12.191        0.014      333.061        2.129      870.059
01/18/2014  09:49:00       82.505       70.768       51.209       32.221       22.531       34.260     1038.163      507.650     1173.765        0.858        0.136      108.698       18.956        0.030      332.937        1.925      870.062
01/18/2014  09:50:00       79.725       77.196       42.650       39.107       22.687       37.562     1529.320      514.700     1410.891        0.879        0.173      110.974       25.096        0.051      333.037        2.090      870.069
01/18/2014  09:51:00       18.435       49.854       46.761       28.401       31.320       31.278      806.618      980.956      978.317        0.389        0.138       53.153       18.191        0.117      333.322        2.561      870.073
01/18/2014  09:52:00        1.457       21.990       56.334       21.048       37.187       19.820      443.014     1382.908      392.820        0.294        0.111       22.039       13.373        0.368      333.720        3.220      870.077
01/18/2014  09:53:00       42.075       47.657       58.178       42.126       47.273       39.918     1774.600     2234.751     1593.434        0.651        0.280       63.573       36.632        0.332      333.435        2.748      870.090
01/18/2014  09:54:00       18.327       39.116       42.444       28.472       32.170       36.086      810.636     1034.901     1302.204        0.341        0.157       43.196       32.044        0.550      333.521        2.891      870.093
01/18/2014  09:55:00       14.686       52.638       68.001       31.095       33.409       23.603      966.920     1116.166      557.124        0.512        0.132       54.649       21.080        0.149      333.653        3.108      870.091
01/18/2014  09:56:00       23.575       38.409       54.904       46.586       42.967       21.995     2170.226     1846.195      483.770        0.477        0.225       45.067       16.710        0.137      333.747        3.265      870.097
01/18/2014  09:57:00       32.807       54.461       52.982       34.880       29.437       27.461     1216.614      866.521      754.084        0.484        0.142       63.579       17.440        0.075      333.585        2.997      870.100
01/18/2014  09:58:00       -5.927       24.247       62.636       16.459       38.113       19.107      270.898     1452.623      365.088        0.332        0.104       24.961       13.490        0.292      334.000        3.684      870.101
01/18/2014  09:59:00       24.093       53.963       43.490       46.035       46.919       33.921     2119.252     2201.355     1150.643        0.543        0.274       59.097       22.613        0.146      333.678        3.152      870.104
01/18/2014  10:00:00        4.422       44.313       68.830       35.971       43.370       25.543     1293.938     1880.985      652.457        0.527        0.191       44.533       23.379        0.276      333.987        3.662      870.100
01/18/2014  10:01:00       38.586       58.516       67.823       27.591       26.846       16.501      761.270      720.710      272.284        0.563        0.088       70.092       11.602        0.027      333.794        3.341      870.103
01/18/2014  10:02:00       33.441       69.930       58.474       43.139       28.968       43.040     1860.996      839.131     1852.408        0.699        0.228       77.514       36.252        0.219      333.690        3.170      870.108
01/18/2014  10:03:00       88.879       82.885       55.071       36.673       29.821       38.280     1344.874      889.313     1465.366        1.075        0.185      121.529       28.917        0.057      333.525        2.897      870.104
01/18/2014  10:04:00       71.444       71.732       78.322       42.046       39.360       41.485     1767.869     1549.194     1721.002        1.071        0.252      101.241       21.962        0.047      333.589        3.002      870.101
01/18/2014  10:05:00       96.144      111.817       57.955       34.721       24.122       36.074     1205.523      581.859     1301.318        1.410        0.154      147.467       13.381        0.008      333.494        2.845      870.100
01/18/2014  10:06:00       21.233       50.873       63.543       32.531       45.274       32.670     1058.274     2049.758     1067.334        0.563        0.209       55.126       20.213        0.134      334.048        3.763      870.089
01/18/2014  10:07:00       72.604       82.362       44.744       31.655       24.734       44.580     1002.068      611.749     1987.412        0.883        0.180      109.795       27.935        0.065      333.602        3.024      870.086
01/18/2014  10:08:00       71.793       71.696        4.498       40.988       48.541       32.388     1679.978     2356.273     1048.963        0.770        0.254      101.462       25.989        0.066      333.775        3.310      870.077
01/18/2014  10:09:00       83.565       60.716        9.561       36.678       30.898       26.436     1345.247      954.717      698.853        0.688        0.150      103.294        9.409        0.008      333.748        3.266      870.069
01/18/2014  10:10:00       77.719       79.349       17.589       35.530       26.154       32.261     1262.384      684.053     1040.741        0.782        0.149      111.070        9.274        0.007      333.735        3.243      870.063
01/18/2014  10:11:00       53.846       35.802       40.095       43.823       51.507       31.393     1920.488     2652.980      985.534        0.567        0.278       64.662       22.819        0.125      334.261        4.118      870.058
01/18/2014  10:12:00       77.041       24.192       21.164       28.532       62.541       30.479      814.080     3911.315      928.944        0.631        0.283       80.750       21.244        0.069      333.789        3.333      870.055
01/18/2014  10:13:00       59.811       76.323       57.897       52.739       40.982       37.569     2781.440     1679.530     1411.441        0.931        0.294       96.967       25.232        0.068      333.991        3.670      870.057
01/18/2014  10:14:00       19.622       46.213       53.807       26.357       32.041       22.475      694.698     1026.654      505.135        0.382        0.111       50.206       18.999        0.143      334.216        4.043      870.064
01/18/2014  10:15:00      -14.329      -15.115       20.969       21.686       25.347       17.612      470.280      642.491      310.198        0.115        0.071       20.828       12.439        0.357      334.426        4.391      870.065
01/18/2014  10:16:00       19.613       52.476       70.348       32.608       50.106       33.245     1063.308     2510.597     1105.250        0.638        0.234       56.021       36.984        0.436      334.176        3.976      870.058
01/18/2014  10:17:00       75.040       86.685       65.935       45.493       31.207       28.888     2069.651      973.885      834.545        1.068        0.194      114.653       22.765        0.039      333.828        3.398      870.050
01/18/2014  10:18:00       54.217       71.970       76.659       41.997       41.245       23.591     1763.780     1701.166      556.551        0.901        0.201       90.106       25.040        0.077      334.040        3.751      870.056
01/18/2014  10:19:00       42.171       42.216       62.675       32.599       29.029       22.824     1062.698      842.674      520.935        0.496        0.121       59.670       23.685        0.158      334.050        3.767      870.063
01/18/2014  10:20:00       32.960       50.001       70.460       53.002       47.530       40.488     2809.225     2259.079     1639.299        0.763        0.335       59.887       27.802        0.216      334.239        4.082      870.054
01/18/2014  10:21:00       45.343      -14.656       24.049       34.036       51.331       34.372     1158.476     2634.834     1181.432        0.391        0.249       47.653       37.066        0.605      334.155        3.942      870.055
01/18/2014  10:22:00       50.044        3.321       34.299       51.417       42.023       32.268     2643.684     1765.968     1041.235        0.457        0.273       50.154       35.309        0.496      334.411        4.367      870.044
01/18/2014  10:23:00      -10.524       14.579       55.355       22.684       37.670       25.098      514.550     1419.067      629.920        0.298        0.128       17.981       21.007        1.365      334.543        4.586      870.043
01/18/2014  10:24:00       -6.402       16.358       33.823       33.778       38.913       29.574     1140.932     1514.220      874.641        0.249        0.176       17.566       13.117        0.558      334.470        4.463      870.041
01/18/2014  10:25:00       81.574       58.490       51.958       51.559       40.760       32.753     2658.297     1661.392     1072.782        0.908        0.270      100.376       22.711        0.051      334.165        3.958      870.058
01/18/2014  10:26:00       53.722       31.571       -0.585       30.644       19.686       17.399      939.050      387.536      302.722        0.276        0.081       62.312       18.397        0.087      333.836        3.413      870.062
01/18/2014  10:27:00       18.512       41.257       26.103       37.537       38.603       33.597     1409.007     1490.225     1128.737        0.338        0.201       45.219       27.566        0.372      334.599        4.678      870.060
01/18/2014  10:28:00       -5.868       51.577      102.080       37.004       43.070       19.998     1369.296     1855.062      399.905        0.837        0.181       51.909       21.306        0.168      334.633        4.735      870.064
01/18/2014  10:29:00        4.417       55.709       87.454       34.061       44.868       28.685     1160.154     2013.160      822.843        0.738        0.200       55.884       24.174        0.187      334.612        4.700      870.079
01/18/2014  10:30:00       99.747       93.926       48.828       37.615       26.214       33.942     1414.880      687.158     1152.087        1.220        0.163      137.009       20.378        0.022      333.894        3.508      870.081
01/18/2014  10:31:00       70.375       78.017       45.649       27.593       19.733       32.418      761.381      389.380     1050.933        0.766        0.110      105.068       13.104        0.016      333.938        3.582      870.086
01/18/2014  10:32:00       48.011       59.686       35.780       29.832       27.654       31.083      889.954      764.763      966.142        0.488        0.131       76.599       18.674        0.059      334.224        4.056      870.069
01/18/2014  10:33:00       26.730       24.308       56.382       42.406       52.352       41.192     1798.278     2740.703     1696.805        0.536        0.312       36.129       40.044        1.228      334.584        4.652      870.054
01/18/2014  10:34:00       20.436       51.170       82.118       41.466       52.284       33.167     1719.446     2733.631     1100.082        0.767        0.278       55.100       34.391        0.390      334.570        4.629      870.035
01/18/2014  10:35:00       73.181       56.816       48.763       37.647       27.217       28.451     1417.261      740.760      809.446        0.696        0.148       92.647       21.884        0.056      334.272        4.136      870.020
01/18/2014  10:36:00       32.477       51.266       49.425       56.619       51.737       28.247     3205.735     2676.727      797.884        0.640        0.334       60.687       32.714        0.291      334.606        4.689      869.996
01/18/2014  10:37:00       15.925       41.882       59.588       32.465       33.590       17.349     1053.961     1128.305      300.997        0.402        0.124       44.808       13.163        0.086      334.803        5.017      869.980
01/18/2014  10:38:00       42.500      -33.598       32.117       50.295       70.827       44.655     2529.539     5016.409     1994.096        0.675        0.477       54.176       47.318        0.763      334.662        4.783      869.967
01/18/2014  10:39:00       19.422       28.910       59.263       40.942       51.601       39.269     1676.218     2662.621     1542.044        0.530        0.294       34.829       40.694        1.365      334.681        4.815      869.959
01/18/2014  10:40:00       40.766       -0.767       24.652       33.251       37.331       27.872     1105.608     1393.591      776.866        0.277        0.164       40.773       19.548        0.230      334.825        5.053      869.935
01/18/2014  10:41:00       82.585       -2.257       21.885       33.384       27.283       29.087     1114.500      744.359      846.047        0.500        0.135       82.616       27.824        0.113      334.411        4.365      869.927
01/18/2014  10:42:00       66.300       48.555       56.748       52.594       55.255       33.498     2766.133     3053.079     1122.145        0.846        0.347       82.179       32.821        0.160      334.566        4.623      869.908
01/18/2014  10:43:00       95.615       80.088       75.738       66.198       53.639       42.749     4382.171     2877.109     1827.453        1.519        0.454      124.724       37.504        0.090      334.362        4.283      869.885
01/18/2014  10:44:00       78.395       72.080       53.021       32.843       24.608       27.545     1078.694      605.557      758.718        0.830        0.122      106.495       11.902        0.012      334.368        4.294      869.887
01/18/2014  10:45:00       35.954       67.581       88.312       49.178       45.954       33.395     2418.449     2111.739     1115.205        0.965        0.282       76.550       30.614        0.160      334.734        4.903      869.859
01/18/2014  10:46:00       44.604      -24.843       39.015       70.991       81.389       66.138     5039.695     6624.242     4374.226        1.008        0.802       51.056       38.891        0.580      334.813        5.033      869.852
01/18/2014  10:47:00       91.609       78.527       91.343       41.968       56.658       39.864     1761.290     3210.172     1589.123        1.473        0.328      120.659       22.759        0.036      334.463        4.451      869.848
01/18/2014  10:48:00       62.327       31.760       45.674       35.037       46.596       30.229     1227.596     2171.233      913.774        0.565        0.216       69.952       19.300        0.076      334.628        4.727      869.840
01/18/2014  10:49:00       97.345       75.664        9.602       37.452       25.640       34.278     1402.662      657.387     1174.999        0.926        0.162      123.293       23.693        0.037      334.322        4.218      869.825
01/18/2014  10:50:00       31.903       48.053       -4.270       30.427       39.303       27.275      925.793     1544.758      743.925        0.328        0.161       57.679       13.208        0.052      334.598        4.675      869.809
01/18/2014  10:51:00       17.831       20.368       10.426       37.056       52.385       29.426     1373.121     2744.219      865.910        0.291        0.249       27.070       21.212        0.614      334.858        5.110      869.784
01/18/2014  10:52:00       -5.984       24.222       37.913       24.607       24.961       23.542      605.481      623.065      554.204        0.192        0.089       24.951       18.284        0.537      335.490        6.157      869.770
01/18/2014  10:53:00       21.304       63.607       75.748       50.921       44.810       23.777     2592.931     2007.924      565.363        0.770        0.258       67.079       20.037        0.089      335.152        5.595      869.754
01/18/2014  10:54:00       20.334      -25.474        7.846       53.781       38.901       31.720     2892.429     1513.291     1006.142        0.327        0.271       32.594       23.662        0.527      334.925        5.219      869.747
01/18/2014  10:55:00       23.872       27.512       64.847       38.357       68.452       39.535     1471.272     4685.720     1562.980        0.662        0.386       36.425       39.720        1.189      335.182        5.647      869.732
01/18/2014  10:56:00       75.234       85.358       51.317       46.529       36.269       41.634     2164.977     1315.421     1733.371        1.040        0.261      113.781       29.009        0.065      334.723        4.885      869.721
01/18/2014  10:57:00       25.359       36.957       34.749       31.194       37.789       39.116      973.049     1428.014     1530.040        0.357        0.197       44.821       30.342        0.458      335.140        5.577      869.711
01/18/2014  10:58:00       69.662       83.560       54.661       39.530       30.487       34.955     1562.628      929.439     1221.842        0.927        0.186      108.789       23.896        0.048      335.027        5.389      869.709
01/18/2014  10:59:00       42.280        0.278       34.794       28.296       56.818       30.380      800.671     3228.298      922.936        0.397        0.248       42.281       19.544        0.214      334.975        5.302      869.705
01/18/2014  11:00:00        6.530       -3.237       30.444       30.083       43.490       28.501      904.998     1891.374      812.323        0.229        0.180        7.288       21.436        8.650      335.439        6.074      869.691
01/18/2014  11:01:00       54.552      -29.494       24.261       48.339       44.128       40.011     2336.630     1947.318     1600.912        0.516        0.294       62.014       33.482        0.292      335.220        5.711      869.687
01/18/2014  11:02:00       30.161      -25.206       18.140       37.897       35.730       31.199     1436.159     1276.628      973.372        0.278        0.184       39.307       27.229        0.480      334.857        5.106      869.668
01/18/2014  11:03:00       14.552      -11.490      -10.952       12.488       20.874       16.561      155.956      435.729      274.273        0.066        0.043       18.541       11.682        0.397      334.977        5.307      869.654
01/18/2014  11:04:00       -3.982       15.669       42.145       18.989       38.426       26.552      360.564     1476.533      705.016        0.229        0.127       16.167       23.269        2.072      335.735        6.566      869.640
01/18/2014  11:05:00       18.152       16.414       40.277       36.349       40.601       26.037     1321.219     1648.475      677.943        0.293        0.182       24.473       19.163        0.613      335.759        6.607      869.631
01/18/2014  11:06:00       35.091      -30.139       15.307       46.346       47.644       35.681     2147.922     2269.953     1273.113        0.403        0.285       46.257       36.827        0.634      335.362        5.946      869.616
01/18/2014  11:07:00       17.858       -8.466       50.315       36.470       44.448       43.640     1330.047     1975.598     1904.480        0.407        0.261       19.763       33.550        2.882      335.521        6.210      869.613
01/18/2014  11:08:00       25.279      -25.052       33.563       25.763       45.575       31.227      663.721     2077.079      975.111        0.305        0.186       35.590       29.122        0.670      335.298        5.839      869.610
01/18/2014  11:09:00       22.957       38.584       65.498       32.624       48.614       30.604     1064.326     2363.312      936.635        0.533        0.218       44.897       26.469        0.348      335.378        5.973      869.592
01/18/2014  11:10:00       62.378       59.795       16.046       41.088       34.700       43.646     1688.196     1204.067     1905.016        0.626        0.240       86.408       23.067        0.071      335.341        5.910      869.572
01/18/2014  11:11:00      121.158      108.667       13.159       39.039       35.654       37.618     1524.080     1271.232     1415.087        1.543        0.211      162.750       19.757        0.015      334.945        5.253      869.556
01/18/2014  11:12:00       83.959       83.156      -10.833       42.065       32.875       31.284     1769.427     1080.750      978.681        0.895        0.191      118.169       14.206        0.014      335.069        5.458      869.553
01/18/2014  11:13:00        7.982       87.984       -6.439       31.673       33.280       25.306     1003.183     1107.536      640.400        0.530        0.138       88.345       18.106        0.042      335.268        5.789      869.549
01/18/2014  11:14:00       30.254       68.348        5.837       29.869       35.560       33.775      892.178     1264.510     1140.730        0.446        0.165       74.744       30.250        0.164      335.560        6.276      869.553
01/18/2014  11:15:00       30.908       60.659        3.823       25.297       26.352       29.883      639.959      694.434      892.986        0.344        0.111       68.080       16.235        0.057      335.450        6.093      869.541
01/18/2014  11:16:00       54.745       39.615        5.835       32.610       23.089       18.244     1063.410      533.104      332.841        0.326        0.096       67.575       13.393        0.039      335.307        5.854      869.543
01/18/2014  11:17:00       14.555       28.900        8.773       26.906       25.810       23.631      723.913      666.144      558.433        0.154        0.097       32.359       14.228        0.193      335.733        6.563      869.525
01/18/2014  11:18:00       34.433       46.182       85.177       54.097       34.794       25.603     2926.490     1210.616      655.509        0.768        0.240       57.606       19.017        0.109      335.604        6.350      869.529
01/18/2014  11:19:00       39.915       66.704       60.402       33.921       33.089       35.699     1150.627     1094.872     1274.440        0.660        0.176       77.735       15.141        0.038      335.384        5.982      869.508
01/18/2014  11:20:00       23.154       41.644       41.136       32.289       30.296       39.001     1042.601      917.848     1521.103        0.372        0.174       47.648       24.586        0.266      335.462        6.111      869.504
01/18/2014  11:21:00       12.494       -8.421       18.255       30.741       62.257       25.409      945.029     3875.909      645.636        0.301        0.273       15.068       21.833        2.100      335.809        6.691      869.480
01/18/2014  11:22:00       52.276      -45.444        8.278       38.914       50.487       36.845     1514.296     2548.892     1357.581        0.514        0.271       69.267       37.275        0.290      335.603        6.348      869.461
01/18/2014  11:23:00       21.914        7.017       47.047       45.013       78.855       36.474     2026.194     6218.096     1330.338        0.616        0.479       23.010       42.175        3.360      335.840        6.742      869.421
01/18/2014  11:24:00       22.495       58.737       77.309       51.590       49.294       45.914     2661.578     2429.877     2108.088        0.856        0.360       62.897       44.099        0.492      335.948        6.921      869.406
01/18/2014  11:25:00       31.486       22.787       62.060       41.190       36.718       31.652     1696.647     1348.222     1001.841        0.470        0.202       38.867       24.732        0.405      336.042        7.078      869.371
01/18/2014  11:26:00       16.976       13.975       56.801       29.370       42.850       36.666      862.597     1836.082     1344.416        0.388        0.202       21.988       33.808        2.364      336.093        7.163      869.342
01/18/2014  11:27:00       42.455      -73.222        3.543       26.286       24.515       30.205      690.967      600.962      912.341        0.469        0.110       84.640       14.693        0.030      335.490        6.157      869.317
01/18/2014  11:28:00       42.981       51.425       40.610       44.499       49.671       33.375     1980.192     2467.164     1113.877        0.585        0.278       67.021       22.469        0.112      335.863        6.779      869.281
01/18/2014  11:29:00       38.013       31.621       32.229       49.451       51.496       34.069     2445.433     2651.863     1160.681        0.487        0.313       49.446       22.651        0.210      336.011        7.027      869.252
01/18/2014  11:30:00       83.241       96.216       25.831       57.616       33.975       38.056     3319.656     1154.294     1448.248        1.139        0.296      127.227       28.001        0.048      335.599        6.340      869.232
01/18/2014  11:31:00       47.080       57.543       40.889       47.291       40.828       35.501     2236.444     1666.903     1260.309        0.618        0.258       74.348       30.602        0.169      335.807        6.688      869.214
01/18/2014  11:32:00       71.757       75.215       42.754       41.485       28.991       31.923     1720.996      840.504     1019.100        0.811        0.179      103.954       12.900        0.015      335.844        6.748      869.218
01/18/2014  11:33:00       40.339       40.725       53.545       47.379       38.324       39.590     2244.809     1468.732     1567.397        0.572        0.264       57.322       23.143        0.163      336.288        7.490      869.204
01/18/2014  11:34:00       52.493       50.319       10.816       41.900       33.018       27.253     1755.579     1090.172      742.708        0.450        0.179       72.715       23.252        0.102      335.575        6.301      869.212
01/18/2014  11:35:00       44.682       20.536       16.295       40.031       26.874       17.011     1602.495      722.225      289.382        0.265        0.131       49.175        9.973        0.041      335.984        6.983      869.202
01/18/2014  11:36:00       70.205      -64.529       -7.740       73.393       60.973       39.642     5386.509     3717.720     1571.449        0.991        0.534       95.356       25.746        0.073      335.812        6.695      869.195
01/18/2014  11:37:00       29.735      -44.655       24.614       46.195       65.800       36.444     2134.014     4329.663     1328.151        0.564        0.390       53.649       45.244        0.711      336.129        7.224      869.185
01/18/2014  11:38:00      114.922     -143.364      -27.337       40.870       41.107       22.060     1670.386     1689.819      486.625        1.918        0.192      183.740       14.521        0.006      335.609        6.354      869.180
01/18/2014  11:39:00       58.427      -15.872       39.444       47.308       61.550       41.507     2238.068     3788.421     1722.814        0.648        0.387       60.544       35.329        0.340      336.155        7.268      869.156
01/18/2014  11:40:00       27.126       69.418       72.625       47.043       41.471       43.459     2213.047     1719.881     1888.726        0.832        0.291       74.530       28.656        0.148      336.106        7.186      869.148
01/18/2014  11:41:00       26.299       84.093       94.898       59.906       67.601       41.963     3588.768     4569.855     1760.905        1.334        0.496       88.109       39.871        0.205      336.101        7.177      869.109
01/18/2014  11:42:00       39.510       36.744       68.880       48.128       71.280       59.505     2316.282     5080.881     3540.827        0.929        0.547       53.955       58.057        1.158      335.942        6.911      869.097
01/18/2014  11:43:00       41.152       72.279       55.262       62.735       49.864       65.067     3935.714     2486.373     4233.675        1.031        0.533       83.173       48.921        0.346      335.973        6.963      869.067
01/18/2014  11:44:00       87.916       74.639        2.725       49.029       29.565       38.063     2403.806      874.089     1448.804        0.902        0.236      115.327       30.872        0.072      335.731        6.560      869.044
01/18/2014  11:45:00        3.885       68.863      -14.310       34.275       29.011       21.898     1174.772      841.666      479.520        0.373        0.125       68.973        9.577        0.019      336.066        7.118      869.020
01/18/2014  11:46:00       25.935       55.405       57.083       63.545       57.940       54.614     4038.014     3357.030     2982.639        0.869        0.519       61.175       46.754        0.584      336.258        7.439      868.995
01/18/2014  11:47:00      108.032       51.331       32.837       26.269       41.618       23.462      690.060     1732.059      550.464        0.918        0.149      119.607       16.544        0.019      335.668        6.456      868.986
01/18/2014  11:48:00       34.846       -1.384       16.638       31.086       36.575       20.568      966.349     1337.705      423.036        0.211        0.136       34.874       21.163        0.368      336.198        7.337      868.941
01/18/2014  11:49:00       71.709       84.908       68.420       48.471       53.136       43.949     2349.450     2823.395     1931.523        1.207        0.355      111.138       35.641        0.103      336.297        7.505      868.922
01/18/2014  11:50:00       29.783       28.204       59.747       46.393       42.985       30.267     2152.353     1847.746      916.117        0.508        0.246       41.019       24.448        0.355      336.547        7.923      868.898
01/18/2014  11:51:00        9.631       28.375       49.018       27.469       37.856       23.555      754.563     1433.049      554.857        0.302        0.137       29.965       20.136        0.452      336.698        8.175      868.874
01/18/2014  11:52:00      -22.234        0.232       30.455       26.174       32.087       25.601      685.085     1029.544      655.417        0.190        0.119       22.235       13.250        0.355      336.877        8.473      868.854
01/18/2014  11:53:00       44.875       48.978       38.562       49.069       46.796       33.656     2407.775     2189.845     1132.711        0.581        0.287       66.428       21.605        0.106      336.573        7.965      868.832
01/18/2014  11:54:00       71.930       75.954       28.953       49.552       39.127       43.353     2455.378     1530.947     1879.459        0.882        0.293      104.609       28.693        0.075      336.482        7.813      868.827
01/18/2014  11:55:00       53.366       50.212       18.432       28.770       40.292       44.900      827.717     1623.435     2015.986        0.509        0.223       73.275       17.616        0.058      336.389        7.658      868.808
01/18/2014  11:56:00       62.714       46.821       10.064       55.721       53.485       40.752     3104.828     2860.612     1660.693        0.692        0.381       78.264       24.465        0.098      336.254        7.432      868.787
01/18/2014  11:57:00       21.991       64.684       92.951       44.165       36.718       26.776     1950.570     1348.235      716.950        0.866        0.201       68.320       29.033        0.181      336.211        7.361      868.776
01/18/2014  11:58:00       61.026       55.439       81.189       67.523       53.140       41.183     4559.419     2823.901     1696.021        1.123        0.454       82.448       36.771        0.199      336.283        7.479      868.760
01/18/2014  11:59:00       58.602       80.415       83.187       42.045       33.486       29.103     1767.808     1121.324      846.975        1.028        0.187       99.503       15.859        0.025      336.338        7.574      868.754
01/18/2014  12:00:00        1.290       24.325       53.375       20.691       32.954       21.304      428.127     1085.941      453.844        0.270        0.098       24.359       14.652        0.362      336.915        8.537      868.723
01/18/2014  12:01:00        0.456      -35.629       24.125       20.698       36.150       24.528      428.407     1306.846      601.624        0.209        0.117       35.632       24.701        0.481      336.914        8.535      868.709
01/18/2014  12:02:00       16.034      -65.351      -25.104       21.785       32.525       15.291      474.574     1057.844      233.813        0.346        0.088       67.289        7.885        0.014      336.367        7.621      868.680
01/18/2014  12:03:00       17.308        5.939       16.638       34.126       38.062       32.983     1164.605     1448.701     1087.855        0.216        0.185       18.299       30.676        2.810      336.617        8.038      868.655
01/18/2014  12:04:00       56.536       69.252       53.584       45.003       35.771       38.140     2025.295     1279.588     1454.622        0.781        0.238       89.399       29.204        0.107      336.490        7.826      868.631
01/18/2014  12:05:00       57.781       60.876       29.091       46.831       36.451       34.511     2193.189     1328.679     1190.981        0.630        0.236       83.931       26.620        0.101      336.677        8.139      868.600
01/18/2014  12:06:00       65.817       75.665       17.724       40.943       40.566       32.332     1676.348     1645.600     1045.371        0.737        0.218      100.285       21.367        0.045      336.549        7.926      868.581
01/18/2014  12:07:00       15.699       45.344       42.170       35.048       35.848       30.167     1228.331     1285.109      910.071        0.375        0.171       47.985       15.833        0.109      337.094        8.837      868.557
01/18/2014  12:08:00        4.290       62.993       75.649       27.318       44.215       22.273      746.250     1954.978      496.098        0.645        0.160       63.139       24.675        0.153      336.730        8.227      868.527
01/18/2014  12:09:00       23.094       34.919       58.757       21.030       52.195       31.862      442.260     2724.317     1015.193        0.469        0.209       41.865       37.717        0.812      336.681        8.147      868.519
01/18/2014  12:10:00       27.670        2.919       19.008       23.733       45.946       28.738      563.238     2111.069      825.849        0.232        0.175       27.823       26.246        0.890      336.647        8.089      868.488
01/18/2014  12:11:00       47.510      -18.876       19.875       61.047       68.603       32.521     3726.723     4706.400     1057.620        0.625        0.475       51.123       31.136        0.371      336.762        8.281      868.463
01/18/2014  12:12:00       65.344       41.572       10.650       56.033       34.440       31.825     3139.717     1186.103     1012.822        0.572        0.267       77.447       19.383        0.063      336.800        8.345      868.441
01/18/2014  12:13:00       47.389       45.359       19.636       45.217       34.925       29.128     2044.576     1219.724      848.460        0.440        0.206       65.598       11.719        0.032      336.860        8.448      868.421
01/18/2014  12:14:00        9.350       55.478       -4.804       21.243       38.469       27.784      451.255     1479.859      771.970        0.295        0.135       56.260       17.791        0.100      336.761        8.279      868.396
01/18/2014  12:15:00      133.477       77.722        8.126       57.066       45.725       35.282     3256.578     2090.779     1244.841        1.526        0.330      154.457       26.673        0.030      336.599        8.010      868.368
01/18/2014  12:16:00       96.489       84.815       47.597       46.629       35.522       30.949     2174.239     1261.818      957.846        1.158        0.220      128.467       20.781        0.026      336.713        8.200      868.357
01/18/2014  12:17:00       71.522       44.146        3.340       28.804       21.583       27.842      829.675      465.824      775.198        0.457        0.104       84.049       15.246        0.033      336.433        7.731      868.338
01/18/2014  12:18:00       29.637       47.923       16.285       35.668       28.152       21.733     1272.231      792.545      472.336        0.299        0.127       56.347       12.202        0.047      336.840        8.412      868.315
01/18/2014  12:19:00        1.916       40.524       25.203       34.395       38.258       31.188     1183.008     1463.704      972.669        0.295        0.181       40.570       20.771        0.262      337.172        8.967      868.281
01/18/2014  12:20:00        1.550       34.166       62.311       34.627       31.678       19.520     1199.055     1003.497      381.016        0.382        0.129       34.201       16.908        0.244      337.475        9.473      868.261
01/18/2014  12:21:00       18.679        7.789       21.116       37.081       23.541       22.821     1374.990      554.182      520.802        0.165        0.122       20.238       19.375        0.917      337.111        8.864      868.248
01/18/2014  12:22:00        3.157       -6.392       16.749       13.369       15.857       16.042      178.733      251.438      257.356        0.051        0.034        7.129       11.906        2.789      337.288        9.161      868.220
01/18/2014  12:23:00       20.616      -41.645       -6.086       30.938       38.465       15.941      957.163     1479.536      254.106        0.244        0.135       46.468       19.742        0.180      337.101        8.848      868.210
01/18/2014  12:24:00       21.989      -19.511       13.161       21.673       26.534       23.956      469.698      704.039      573.896        0.139        0.087       29.397       20.178        0.471      337.297        9.176      868.188
01/18/2014  12:25:00        5.613       32.075       36.373       25.281       27.445       35.053      639.148      753.213     1228.684        0.250        0.131       32.562       13.229        0.165      337.432        9.403      868.170
01/18/2014  12:26:00       20.512       42.116       65.959       38.104       31.383       28.252     1451.910      984.914      798.193        0.489        0.162       46.846       23.189        0.245      337.333        9.237      868.151
01/18/2014  12:27:00       38.429       12.084       23.323       28.696       47.041       37.457      823.465     2212.873     1403.051        0.330        0.222       40.285       27.816        0.477      337.069        8.795      868.141
01/18/2014  12:28:00       20.599       28.420       38.035       27.183       25.358       26.678      738.935      643.030      711.732        0.239        0.105       35.100        7.991        0.052      337.558        9.614      868.113
01/18/2014  12:29:00       14.254       60.398        4.518       27.509       42.235       30.724      756.752     1783.794      943.984        0.368        0.174       62.057       27.149        0.191      337.262        9.117      868.105
01/18/2014  12:30:00       43.404       28.988       -6.874       18.310       22.906       19.004      335.271      524.677      361.137        0.200        0.061       52.194        9.808        0.035      336.941        8.580      868.086
01/18/2014  12:31:00       16.284       46.929        1.290       20.683       31.242       24.482      427.773      976.074      599.375        0.224        0.100       49.674       21.254        0.183      337.311        9.199      868.072
01/18/2014  12:32:00        2.590       91.679       -8.202       24.079       35.904       20.427      579.786     1289.075      417.263        0.538        0.114       91.716       16.189        0.031      337.065        8.788      868.052
01/18/2014  12:33:00       39.381       23.541        5.934       20.599       18.171       16.309      424.318      330.193      265.969        0.158        0.051       45.881        6.662        0.021      337.289        9.163      868.035
01/18/2014  12:34:00       44.396        9.565        4.242       21.681       29.538       26.179      470.045      872.508      685.366        0.205        0.101       45.414       14.093        0.096      337.221        9.048      868.011
01/18/2014  12:35:00        4.610       40.142       62.536       29.546       25.677       19.231      872.946      659.284      369.821        0.372        0.095       40.406       17.418        0.186      337.539        9.581      867.976
01/18/2014  12:36:00        3.229       41.307       62.240       28.136       47.196       31.285      791.617     2227.464      978.725        0.479        0.200       41.433       33.775        0.665      337.527        9.561      867.959
01/18/2014  12:37:00       23.272      -41.075       28.040       35.381       75.852       41.219     1251.790     5753.496     1699.017        0.586        0.435       47.210       51.382        1.185      337.509        9.530      867.933
01/18/2014  12:38:00      -13.079       47.211       78.323       29.331       43.283       35.880      860.322     1873.429     1287.355        0.628        0.201       48.989       23.599        0.232      337.870       10.137      867.903
01/18/2014  12:39:00       44.830      109.043       92.228       43.360       38.676       36.780     1880.070     1495.839     1352.751        1.357        0.236      117.899       29.548        0.063      337.302        9.185      867.872
01/18/2014  12:40:00       63.130       77.022       61.525       33.624       39.419       47.912     1130.596     1553.879     2295.566        0.934        0.249       99.588       22.767        0.052      337.277        9.143      867.857
01/18/2014  12:41:00       41.485       79.269       76.761       54.963       52.044       27.565     3020.896     2708.562      759.842        1.019        0.324       89.469       17.554        0.038      337.463        9.455      867.816
01/18/2014  12:42:00       80.105       72.971       60.091       37.456       25.080       27.848     1402.986      629.004      775.514        0.908        0.140      108.359       19.762        0.033      337.209        9.028      867.805
01/18/2014  12:43:00       15.945       50.215       48.911       33.452       28.912       24.407     1119.048      835.884      595.700        0.386        0.128       52.685       24.652        0.219      337.659        9.782      867.775
01/18/2014  12:44:00       11.698       13.261       41.387       30.287       40.666       36.181      917.297     1653.731     1309.064        0.295        0.194       17.683       29.342        2.753      338.025       10.397      867.753
01/18/2014  12:45:00       11.048      -17.265       34.929       25.611       37.752       21.034      655.929     1425.224      442.424        0.208        0.126       20.497       17.678        0.744      337.990       10.338      867.734
01/18/2014  12:46:00       30.822      -51.447       -0.652       22.359       23.713       21.161      499.941      562.300      447.799        0.255        0.076       59.973       12.298        0.042      337.244        9.086      867.720
01/18/2014  12:47:00      -12.054      -26.436      -14.527       14.546       20.615       10.098      211.593      424.969      101.969        0.090        0.037       29.054       11.030        0.144      337.409        9.364      867.703
01/18/2014  12:48:00       17.341       15.076      -19.709       27.543       25.010       16.630      758.599      625.497      276.548        0.129        0.083       22.978       13.098        0.325      337.591        9.668      867.667
01/18/2014  12:49:00       12.862       99.195      -16.079       28.581       43.041       19.276      816.872     1852.504      371.567        0.665        0.152      100.025       11.291        0.013      337.512        9.536      867.660
01/18/2014  12:50:00       12.353      104.101       -8.874       26.490       40.235       25.004      701.696     1618.871      625.175        0.701        0.147      104.831       25.798        0.061      337.482        9.486      867.639
01/18/2014  12:51:00       -2.665       95.956        0.371       29.335       52.467       33.457      860.520     2752.793     1119.379        0.697        0.237       95.993       31.405        0.107      337.611        9.703      867.620
01/18/2014  12:52:00        1.488      109.493       -3.995       29.346       49.671       27.423      861.199     2467.212      752.004        0.804        0.204      109.504       26.972        0.061      337.552        9.601      867.598
01/18/2014  12:53:00       -1.851      106.355       -9.270       13.816       51.462       18.504      190.873     2648.320      342.406        0.729        0.159      106.371       25.515        0.058      337.577        9.645      867.588
01/18/2014  12:54:00       19.598       37.475        4.642       22.181       30.579       21.520      492.002      935.052      463.114        0.185        0.095       42.290       19.444        0.211      337.816       10.045      867.575
01/18/2014  12:55:00       40.197       41.103       18.448       55.381       34.555       31.418     3067.092     1194.065      987.095        0.445        0.262       57.491       18.478        0.103      337.885       10.162      867.549
01/18/2014  12:56:00       97.077       79.866       15.283       49.061       37.893       42.717     2406.946     1435.885     1824.724        1.085        0.283      125.708       23.905        0.036      337.727        9.896      867.541
01/18/2014  12:57:00       74.323       95.899       -8.537       41.694       24.812       29.673     1738.364      615.642      880.516        0.901        0.162      121.328       16.126        0.018      337.580        9.649      867.529
01/18/2014  12:58:00       28.821       72.390        2.027       43.416       32.484       27.173     1884.989     1055.184      738.355        0.488        0.184       77.917       25.048        0.103      337.762        9.955      867.516
01/18/2014  12:59:00       39.364       51.926        5.794       27.129       35.701       26.419      735.996     1274.575      697.988        0.349        0.135       65.160       13.023        0.040      337.817       10.048      867.499
01/18/2014  13:00:00       19.076       21.324        0.155       22.700       15.868       17.008      515.304      251.808      289.289        0.094        0.053       28.612       10.066        0.124      337.923       10.226      867.483
01/18/2014  13:01:00       21.235       48.674       64.493       39.721       29.835       32.887     1577.766      890.147     1081.556        0.526        0.177       53.105       29.487        0.308      337.953       10.277      867.465
01/18/2014  13:02:00       13.419       23.397       60.569       26.970       28.677       24.160      727.363      822.394      583.686        0.326        0.107       26.972       20.775        0.593      338.355       10.952      867.442
01/18/2014  13:03:00       72.519       56.993       47.604       44.542       32.905       32.077     1983.947     1082.741     1028.912        0.743        0.205       92.235       22.881        0.062      337.946       10.264      867.442
01/18/2014  13:04:00        2.857       34.442        5.283       15.816       29.746       26.451      250.142      884.823      699.652        0.153        0.092       34.560       10.961        0.101      338.085       10.498      867.420
01/18/2014  13:05:00       10.363       42.207       50.440       34.811       39.252       42.484     1211.806     1540.739     1804.903        0.449        0.228       43.460       33.523        0.595      338.508       11.208      867.414
01/18/2014  13:06:00      123.386       89.954       30.559       83.961       40.537       46.347     7049.514     1643.283     2148.050        1.754        0.542      152.696       49.443        0.105      337.788        9.997      867.405
01/18/2014  13:07:00      141.934       94.066       12.296       51.872       36.618       35.479     2690.715     1340.896     1258.735        1.722        0.265      170.276       16.482        0.009      337.770        9.967      867.399
01/18/2014  13:08:00       77.077       58.373       59.561       53.470       36.781       35.054     2859.018     1352.871     1228.814        0.917        0.272       96.687       28.803        0.089      338.131       10.573      867.384
01/18/2014  13:09:00       32.683       35.428       14.295       41.539       37.062       51.002     1725.510     1373.584     2601.202        0.411        0.285       48.201       34.661        0.517      338.133       10.577      867.378
01/18/2014  13:10:00       49.407       37.057       12.166       59.593       34.095       25.679     3551.281     1162.453      659.405        0.467        0.269       61.760       19.825        0.103      338.147       10.602      867.358
01/18/2014  13:11:00       66.041       57.410       21.244       56.873       26.068       50.803     3234.495      679.551     2580.988        0.730        0.325       87.506       36.888        0.178      338.100       10.522      867.341
01/18/2014  13:12:00       34.880       40.396       25.899       37.601       29.700       19.313     1413.864      882.076      372.984        0.309        0.133       53.371       11.494        0.046      338.155       10.615      867.332
01/18/2014  13:13:00       22.212       48.398       60.717       37.018       44.346       34.869     1370.319     1966.610     1215.879        0.554        0.228       53.252       27.568        0.268      338.291       10.842      867.309
01/18/2014  13:14:00       40.112      -77.998       15.741       56.252       77.936       47.006     3164.341     6074.078     2209.609        0.969        0.572       87.707       58.568        0.446      338.157       10.619      867.301
01/18/2014  13:15:00       50.886      -24.054       20.538       45.221       42.048       34.153     2044.973     1768.027     1166.409        0.428        0.249       56.285       40.276        0.512      338.312       10.878      867.289
01/18/2014  13:16:00       30.567      -21.430       23.190       40.689       30.310       23.934     1655.598      918.682      572.855        0.254        0.157       37.331       21.914        0.345      338.415       11.050      867.280
01/18/2014  13:17:00       49.865      -56.089       -7.185       23.422       25.153       20.260      548.603      632.681      410.456        0.364        0.080       75.050        8.678        0.013      338.081       10.491      867.268
01/18/2014  13:18:00      -25.249      -59.360       -6.424       29.784       27.838       20.422      887.095      774.977      417.045        0.314        0.104       64.507       13.905        0.046      338.093       10.511      867.249
01/18/2014  13:19:00       11.433      -23.629        7.544       15.844       23.022       19.202      251.047      530.007      368.721        0.095        0.057       26.250       12.619        0.231      338.602       11.363      867.241
01/18/2014  13:20:00       -0.321      -17.840        6.722       26.746       18.922       13.312      715.336      358.060      177.218        0.081        0.063       17.843        9.703        0.296      338.700       11.529      867.217
01/18/2014  13:21:00       16.504       34.478       41.440       27.180       29.387       21.344      738.740      863.600      455.551        0.262        0.103       38.225       19.893        0.271      338.692       11.517      867.204
01/18/2014  13:22:00       82.955       64.711       48.114       47.948       31.789       33.490     2298.963     1010.537     1121.547        0.891        0.222      105.210       27.182        0.067      338.372       10.980      867.191
01/18/2014  13:23:00       79.252       98.294        7.515       31.975       38.874       43.404     1022.389     1511.153     1883.899        1.021        0.221      126.264       12.199        0.009      338.311       10.876      867.176
01/18/2014  13:24:00       15.752       38.743       55.475       25.735       44.051       21.253      662.300     1940.500      451.685        0.394        0.153       41.823       15.979        0.146      338.633       11.418      867.172
01/18/2014  13:25:00       21.118        4.450       16.694       26.257       25.720       23.812      689.412      661.526      567.010        0.133        0.096       21.581       19.668        0.831      338.458       11.123      867.161
01/18/2014  13:26:00        5.260      -26.892        7.144       26.418       49.298       29.102      697.891     2430.289      846.927        0.239        0.199       27.401       26.334        0.924      338.610       11.378      867.142
01/18/2014  13:27:00       21.875      -46.755       12.742       30.482       47.270       33.001      929.156     2234.491     1089.079        0.354        0.213       51.620       30.005        0.338      338.863       11.803      867.134
01/18/2014  13:28:00       19.677     -131.433      -25.403       55.071       49.739       35.646     3032.838     2473.939     1270.612        1.254        0.339      132.898       21.468        0.026      338.507       11.205      867.119
01/18/2014  13:29:00       83.653     -121.080      -32.890       28.646       36.810       17.507      820.577     1354.949      306.481        1.261        0.124      147.168        9.415        0.004      338.228       10.737      867.113
01/18/2014  13:30:00       71.732      -49.645        0.922       55.612       57.253       35.391     3092.709     3277.913     1252.547        0.762        0.381       87.236       37.558        0.185      338.437       11.088      867.112
01/18/2014  13:31:00       -1.553      -72.831      -10.156       62.262       34.607       31.333     3876.567     1197.662      981.755        0.573        0.303       72.847       27.040        0.138      338.192       10.677      867.121
01/18/2014  13:32:00       -1.697       45.491       73.567       23.932       45.045       26.429      572.729     2029.032      698.477        0.539        0.165       45.523       29.153        0.410      338.640       11.428      867.123
01/18/2014  13:33:00        7.445        2.703        0.567       42.393       33.379       36.417     1797.173     1114.143     1326.210        0.215        0.212        7.920       37.074       21.911      338.412       11.047      867.128
01/18/2014  13:34:00       83.616       68.769       19.059       56.896       43.325       24.346     3237.205     1877.035      592.715        0.889        0.285      108.263       12.185        0.013      338.403       11.031      867.124
01/18/2014  13:35:00       35.055       40.266       25.026       25.146       26.645       20.297      632.307      709.951      411.950        0.262        0.088       53.387       11.690        0.048      338.519       11.226      867.119
01/18/2014  13:36:00       35.544        9.027       29.921       18.518       41.361       31.434      342.910     1710.740      988.082        0.264        0.152       36.673       31.912        0.757      338.608       11.375      867.113
01/18/2014  13:37:00       83.536      -49.468       19.181       45.383       86.771       50.422     2059.645     7529.180     2542.364        1.096        0.607       97.085       59.094        0.370      338.468       11.139      867.100
01/18/2014  13:38:00       87.610      -62.518       -6.216       34.019       33.453       35.374     1157.290     1119.086     1251.350        0.757        0.176      107.629       26.094        0.059      338.356       10.952      867.101
01/18/2014  13:39:00      -27.527      -50.364        6.389       30.884       30.754       24.612      953.839      945.814      605.737        0.292        0.125       57.396       18.087        0.099      338.505       11.203      867.092
01/18/2014  13:40:00      -34.737      -65.525        2.410       40.692       55.984       26.857     1655.826     3134.182      721.314        0.551        0.276       74.163       31.422        0.180      338.679       11.495      867.070
01/18/2014  13:41:00       -8.389       -7.913       25.618       29.881       40.891       27.336      892.896     1672.049      747.284        0.205        0.166       11.532       25.616        4.934      339.054       12.125      867.066
01/18/2014  13:42:00      -10.917      -52.878       12.091       53.717       43.172       31.016     2885.500     1863.835      962.021        0.439        0.286       53.993       23.913        0.196      338.691       11.515      867.054
01/18/2014  13:43:00        9.998       12.225        9.592       20.417       20.818       21.691      416.854      433.401      470.482        0.083        0.066       15.792       15.223        0.929      338.922       11.903      867.043
01/18/2014  13:44:00      -28.976        7.416       -0.986       32.482       25.076       22.016     1055.108      628.789      484.697        0.153        0.108       29.910       21.728        0.528      338.655       11.454      867.045
01/18/2014  13:45:00      -37.225      -12.160        4.830       26.184       27.776       16.486      685.579      771.503      271.804        0.164        0.086       39.161       12.276        0.098      338.784       11.670      867.030
01/18/2014  13:46:00        3.644       13.267       15.514       56.852       34.353       36.448     3232.164     1180.139     1328.473        0.308        0.287       13.758       32.099        5.443      338.991       12.019      867.011
01/18/2014  13:47:00       35.886       43.842       50.695       51.071       59.489       44.459     2608.213     3538.979     1976.619        0.695        0.406       56.656       41.691        0.541      338.671       11.481      867.008
01/18/2014  13:48:00       12.481      -20.337       -4.279       58.079       50.809       34.407     3373.140     2581.560     1183.825        0.386        0.357       23.861       25.711        1.161      338.751       11.615      866.991
01/18/2014  13:49:00      -15.538       35.716       47.055       28.930       43.398       38.404      836.962     1883.421     1474.869        0.396        0.210       38.949       34.385        0.779      339.015       12.059      866.981
01/18/2014  13:50:00      -10.554       41.522       56.896       28.938       29.193       22.422      837.432      852.224      502.759        0.363        0.110       42.843       12.702        0.088      339.192       12.357      866.961
01/18/2014  13:51:00      -12.306       19.004       59.935       30.124       38.188       32.597      907.431     1458.305     1062.535        0.377        0.171       22.641       28.481        1.582      339.152       12.290      866.962
01/18/2014  13:52:00       10.366      -20.419       21.631       17.944       31.602       24.294      321.970      998.706      590.194        0.145        0.096       22.900       20.235        0.781      338.884       11.840      866.952
01/18/2014  13:53:00       28.163       15.771       12.865       28.165       44.451       21.876      793.251     1975.917      478.562        0.223        0.162       32.278       17.583        0.297      338.847       11.778      866.931
01/18/2014  13:54:00       31.050       33.589       24.622       23.716       33.061       20.252      562.431     1093.023      410.140        0.238        0.103       45.742       13.259        0.084      338.869       11.813      866.930
01/18/2014  13:55:00       52.895       31.909       14.550       31.607       30.470       33.429      999.002      928.404     1117.469        0.354        0.152       61.775       18.418        0.089      338.688       11.510      866.930
01/18/2014  13:56:00       -5.171        8.041       -7.133       22.176       25.075       10.190      491.765      628.766      103.838        0.068        0.061        9.560       10.315        1.164      338.761       11.633      866.917
01/18/2014  13:57:00        3.406       16.492       -0.013       19.552       12.145       17.103      382.299      147.496      292.527        0.055        0.041       16.840       12.510        0.552      338.842       11.768      866.927
01/18/2014  13:58:00       15.834       24.012        6.010       26.089       23.705       17.542      680.614      561.929      307.707        0.121        0.078       28.763       13.415        0.218      339.005       12.042      866.927
01/18/2014  13:59:00       52.806       39.550       30.381       30.071       25.008       23.533      904.275      625.419      553.815        0.368        0.104       65.974       14.257        0.047      338.807       11.709      866.927
01/18/2014  14:00:00       -1.729       35.691       52.164       23.641       39.773       29.640      558.876     1581.928      878.553        0.351        0.151       35.733       23.936        0.449      339.254       12.461      866.913
01/18/2014  14:01:00       36.789       58.604       48.919       60.243       46.095       53.767     3629.276     2124.745     2890.883        0.791        0.432       69.194       50.808        0.539      338.844       11.771      866.909
01/18/2014  14:02:00       -5.192       57.318       76.705       24.902       33.349       24.733      620.093     1112.177      611.727        0.577        0.117       57.553       22.065        0.147      339.015       12.060      866.908
01/18/2014  14:03:00       58.780       67.082       27.312       50.290       41.075       30.941     2529.073     1687.183      957.347        0.694        0.259       89.192       19.890        0.050      338.856       11.793      866.912
01/18/2014  14:04:00       36.312      -29.476       10.511       30.053       52.061       29.234      903.185     2710.297      854.614        0.338        0.223       46.770       20.915        0.200      338.716       11.557      866.909
01/18/2014  14:05:00       -8.587       65.634       -8.967       28.362       56.523       20.145      804.381     3194.816      405.802        0.443        0.220       66.193       26.829        0.164      338.675       11.488      866.904
01/18/2014  14:06:00      -33.975       37.598       -8.043       39.776       27.834       25.199     1582.163      774.732      634.968        0.281        0.150       50.675       28.911        0.325      338.821       11.733      866.897
01/18/2014  14:07:00      -77.267       78.061      -22.968       27.763       34.542       21.152      770.788     1193.144      447.416        0.750        0.121      109.835       18.733        0.029      338.914       11.890      866.886
01/18/2014  14:08:00      -45.183       57.163        4.328       29.092       29.648       23.372      846.322      879.029      546.261        0.380        0.114       72.863       19.739        0.073      339.015       12.059      866.891
01/18/2014  14:09:00       29.372       39.749        0.849       29.269       27.054       17.057      856.675      731.941      290.941        0.216        0.094       49.423       12.787        0.067      338.881       11.833      866.892
01/18/2014  14:10:00       28.763       27.489       21.123       32.959       20.859       22.075     1086.268      435.113      487.310        0.202        0.100       39.786       21.449        0.291      339.070       12.151      866.892
01/18/2014  14:11:00        7.554      -50.398       16.960       40.866       64.348       36.598     1670.025     4140.726     1339.381        0.502        0.358       50.961       24.769        0.236      339.181       12.340      866.879
01/18/2014  14:12:00       43.119       29.695       48.896       51.296       37.283       37.952     2631.318     1390.021     1440.355        0.530        0.273       52.355       18.335        0.123      339.193       12.360      866.876
01/18/2014  14:13:00       33.888      -16.897        9.654       50.179       63.162       36.237     2517.976     3989.428     1313.106        0.467        0.391       37.867       36.356        0.922      338.980       11.999      866.888
01/18/2014  14:14:00       28.293       51.007       67.630       45.544       36.329       35.612     2074.263     1319.777     1268.197        0.632        0.233       58.328       31.711        0.296      339.066       12.146      866.881
01/18/2014  14:15:00       30.881       78.989      111.142       60.028       84.772       53.630     3603.356     7186.316     2876.220        1.660        0.683       84.811       53.450        0.397      339.008       12.046      866.883
01/18/2014  14:16:00       60.978       -3.510       30.818       54.245       31.850       30.498     2942.506     1014.454      930.122        0.478        0.244       61.079       35.838        0.344      338.798       11.694      866.906
01/18/2014  14:17:00       46.029       63.499       71.971       45.535       48.566       32.986     2073.425     2358.704     1088.049        0.842        0.276       78.427       34.910        0.198      338.906       11.877      866.892
01/18/2014  14:18:00       40.177       27.301       37.125       37.088       56.288       38.070     1375.515     3168.354     1449.334        0.486        0.300       48.575       44.609        0.843      338.956       11.959      866.874
01/18/2014  14:19:00       13.893       31.024       45.042       27.102       41.587       32.921      734.519     1729.448     1083.763        0.337        0.177       33.992       32.388        0.908      339.122       12.239      866.855
01/18/2014  14:20:00       31.636       39.308        1.542       44.440       32.238       30.782     1974.901     1039.257      947.561        0.325        0.198       50.458       21.697        0.185      339.095       12.193      866.848
01/18/2014  14:21:00        5.289      -41.085        8.830       19.133       32.722       18.635      366.073     1070.718      347.245        0.179        0.089       41.424       11.752        0.080      339.116       12.228      866.830
01/18/2014  14:22:00       25.793       30.076       36.938       41.890       36.133       38.391     1754.792     1305.611     1473.853        0.373        0.227       39.622       20.795        0.275      339.138       12.266      866.814
01/18/2014  14:23:00       28.583      -45.200       -4.830       47.642       25.918       23.072     2269.753      671.754      532.313        0.318        0.174       53.479       19.192        0.129      338.929       11.916      866.798
01/18/2014  14:24:00       21.493      -70.722       16.836       52.153       42.560       36.006     2719.960     1811.329     1296.444        0.579        0.291       73.916       33.903        0.210      339.175       12.329      866.777
01/18/2014  14:25:00       53.340      -45.651       19.725       52.134       94.584       42.617     2717.992     8946.115     1816.200        0.940        0.674       70.208       53.114        0.572      339.075       12.161      866.770
01/18/2014  14:26:00       29.735      -74.397        8.397       29.511       73.108       40.894      870.891     5344.732     1672.311        0.719        0.394       80.119       49.973        0.389      338.893       11.855      866.766
01/18/2014  14:27:00       33.973       14.805       47.402       53.185       60.595       33.128     2828.636     3671.743     1097.462        0.561        0.380       37.059       39.068        1.111      339.073       12.157      866.749
01/18/2014  14:28:00       22.280      -12.573       32.423       41.732       49.535       30.213     1741.531     2453.667      912.824        0.341        0.255       25.583       30.260        1.399      339.240       12.436      866.749
01/18/2014  14:29:00       64.625        0.131       20.715       41.150       52.596       40.412     1693.330     2766.343     1633.169        0.535        0.305       64.625       27.992        0.188      339.096       12.196      866.757
01/18/2014  14:30:00       21.710      -26.682       13.208       45.662       69.320       39.482     2085.018     4805.215     1558.792        0.490        0.422       34.399       46.887        1.858      339.039       12.101      866.774
01/18/2014  14:31:00       60.487      -76.272        2.091       61.776       79.659       36.135     3816.332     6345.530     1305.735        1.047        0.573       97.345       44.009        0.204      339.080       12.168      866.773
01/18/2014  14:32:00      137.655     -117.877      -11.482       42.217       59.892       35.877     1782.289     3587.059     1287.166        1.981        0.333      181.229       25.619        0.020      338.886       11.842      866.773
01/18/2014  14:33:00       98.155     -143.177      -14.388       44.183       66.288       24.661     1952.175     4394.079      608.189        1.865        0.348      173.592       29.692        0.029      338.879       11.829      866.790
01/18/2014  14:34:00       73.650      -93.511       -4.916       64.699       73.670       36.300     4185.963     5427.201     1317.724        1.256        0.547      119.032       46.984        0.156      339.058       12.131      866.796
01/18/2014  14:35:00       72.947     -102.469       -8.217       36.544       35.022       27.434     1335.471     1226.574      752.614        0.960        0.166      125.783       20.948        0.028      338.961       11.969      866.804
01/18/2014  14:36:00       62.649     -102.461      -16.629       33.803       45.778       29.836     1142.664     2095.583      890.191        0.941        0.206      120.097       13.867        0.013      338.954       11.957      866.795
01/18/2014  14:37:00       67.421      -98.229      -16.873       30.725       37.948       18.087      944.053     1440.081      327.126        0.859        0.136      119.141       14.526        0.015      338.917       11.892      866.782
01/18/2014  14:38:00       48.065     -106.159       -0.148       30.499       45.540       19.515      930.170     2073.913      380.834        0.848        0.169      116.533       15.535        0.018      338.973       11.989      866.768
01/18/2014  14:39:00       -0.766      -41.482       -6.633       29.573       36.905       23.213      874.569     1361.983      538.856        0.227        0.139       41.489       19.648        0.224      339.047       12.115      866.758
01/18/2014  14:40:00        6.739      -52.980        6.211       37.991       62.800       31.813     1443.303     3943.778     1012.061        0.464        0.320       53.407       31.119        0.340      339.327       12.585      866.750
01/18/2014  14:41:00       78.407      -40.264       -1.020       30.209       50.257       28.977      912.579     2525.791      839.665        0.602        0.214       88.141       33.746        0.147      338.952       11.953      866.752
01/18/2014  14:42:00       -8.049      -24.839      -12.278       37.025       17.698       20.073     1370.851      313.233      402.933        0.146        0.104       26.111       23.200        0.789      338.969       11.983      866.747
01/18/2014  14:43:00      -40.871       37.895      -14.296       14.848       22.761       11.365      220.455      518.078      129.168        0.209        0.043       55.736        8.526        0.023      338.938       11.930      866.737
01/18/2014  14:44:00      -37.434       13.444       14.989       29.556       12.927       18.299      873.569      167.112      334.855        0.159        0.069       39.775       15.679        0.155      339.278       12.502      866.728
01/18/2014  14:45:00      -12.253       31.326        2.161       20.448       18.961       15.308      418.107      359.527      234.323        0.107        0.051       33.638        6.460        0.037      339.342       12.609      866.717
01/18/2014  14:46:00      -72.182      -22.368        0.735       43.223       26.433       15.435     1868.269      698.708      238.241        0.426        0.140       75.568       12.916        0.029      339.239       12.436      866.707
01/18/2014  14:47:00      -34.635      -42.613        3.800       48.139       33.057       15.907     2317.404     1092.780      253.046        0.335        0.183       54.913       15.300        0.078      339.286       12.515      866.700
01/18/2014  14:48:00       27.853      -45.657        0.849       19.991       20.571       19.597      399.624      423.148      384.047        0.203        0.060       53.482        9.516        0.032      339.321       12.575      866.680
01/18/2014  14:49:00       -0.535       -2.417       24.047       19.586       17.596       11.963      383.619      309.623      143.111        0.071        0.042        2.476        9.094       13.493      339.786       13.359      866.667
01/18/2014  14:50:00      -26.173      -21.257        8.786       40.103       20.458       16.945     1608.215      418.543      287.142        0.176        0.116       33.718       16.782        0.248      339.576       13.004      866.663
01/18/2014  14:51:00       19.825      -70.138        3.642       38.493       42.994       32.381     1481.721     1848.498     1048.545        0.485        0.219       72.886       28.398        0.152      339.430       12.759      866.661
01/18/2014  14:52:00      -23.910      -11.376        3.755       31.629       26.698       21.338     1000.376      712.803      455.314        0.144        0.108       26.479       14.747        0.310      339.480       12.841      866.660
01/18/2014  14:53:00      -16.914       -8.568        7.889       25.402       27.125       14.655      645.252      735.792      214.765        0.101        0.080       18.960        8.898        0.220      339.614       13.069      866.660
01/18/2014  14:54:00       11.535      -35.817        1.668       18.945       35.303       18.025      358.896     1246.280      324.903        0.167        0.097       37.628       16.577        0.194      339.506       12.886      866.653
01/18/2014  14:55:00        3.156      -78.836       -2.252       18.796       20.424       19.842      353.279      417.159      393.705        0.370        0.058       78.899       10.234        0.017      339.347       12.618      866.645
01/18/2014  14:56:00       13.998      -63.935        4.229       36.962       30.151       23.518     1366.214      909.085      553.087        0.356        0.141       65.449       20.037        0.094      339.426       12.751      866.626
01/18/2014  14:57:00       45.785      -64.841        3.014       34.547       32.699       25.222     1193.512     1069.202      636.126        0.460        0.145       79.377       18.845        0.056      339.407       12.721      866.615
01/18/2014  14:58:00       31.517      -77.895        3.699       31.004       44.724       28.872      961.244     2000.228      833.573        0.543        0.190       84.030       19.326        0.053      339.289       12.521      866.606
01/18/2014  14:59:00       47.458      -42.788        4.914       48.593       50.588       30.187     2361.254     2559.108      911.248        0.497        0.292       63.899       29.001        0.206      339.290       12.522      866.607
01/18/2014  15:00:00       11.977       26.713       31.739       33.703       34.787       23.314     1135.925     1210.152      543.554        0.238        0.144       29.275       17.002        0.337      339.542       12.947      866.601
01/18/2014  15:01:00      -19.180        2.892       13.473       17.148       29.439       18.557      294.038      866.627      344.346        0.103        0.075       19.397       12.963        0.447      339.711       13.233      866.597
01/18/2014  15:02:00       -0.649      -32.023        6.004       35.286       41.764       23.262     1245.101     1744.269      541.108        0.230        0.177       32.029       23.760        0.550      339.769       13.330      866.597
01/18/2014  15:03:00       22.469      -91.661       -1.482       42.088       51.295       38.603     1771.367     2631.225     1490.164        0.740        0.295       94.375       21.199        0.050      339.396       12.700      866.590
01/18/2014  15:04:00       -2.775       -4.056       42.122       28.460       31.105       21.633      809.975      967.543      467.968        0.202        0.112        4.915       21.432       19.018      339.677       13.174      866.594
01/18/2014  15:05:00       -4.459        4.391       24.458       29.111       25.340       26.292      847.440      642.123      691.252        0.141        0.109        6.258       21.991       12.349      339.397       12.703      866.596
01/18/2014  15:06:00       39.279      -22.958       19.162       45.417       54.872       30.563     2062.712     3010.970      934.103        0.422        0.300       45.496       33.574        0.545      339.375       12.666      866.587
01/18/2014  15:07:00      -48.283      -58.110      -16.440       46.771       37.972       24.440     2187.488     1441.844      597.330        0.510        0.211       75.551       20.856        0.076      339.485       12.850      866.586
01/18/2014  15:08:00       93.371     -114.341      -25.453       68.634       40.704       31.055     4710.579     1656.852      964.443        1.488        0.367      147.621       27.567        0.035      339.157       12.297      866.581
01/18/2014  15:09:00       -6.390      -24.567       24.716       29.802       31.102       25.641      888.131      967.332      657.480        0.188        0.126       25.385       10.931        0.185      339.528       12.925      866.570
01/18/2014  15:10:00       16.297       47.722       57.258       25.009       27.147       17.836      625.452      736.972      318.139        0.375        0.084       50.428       14.326        0.081      339.407       12.718      866.561
01/18/2014  15:11:00       -6.394      -11.035       25.073       12.223       27.713       28.955      149.403      768.004      838.365        0.127        0.088       12.753       23.636        3.435      339.698       13.210      866.557
01/18/2014  15:12:00       -4.453      -27.269       -5.972       13.900       12.643       10.772      193.205      159.853      116.031        0.063        0.023       27.630        7.422        0.072      339.580       13.010      866.553
01/18/2014  15:13:00        2.363      -75.688       -9.389       26.201       37.386       22.355      686.476     1397.717      499.739        0.420        0.129       75.725       13.230        0.031      339.459       12.808      866.564
01/18/2014  15:14:00      -76.486      -58.423        1.067       39.099       36.949       20.596     1528.745     1365.261      424.194        0.629        0.166       96.246       19.039        0.039      339.339       12.604      866.568
01/18/2014  15:15:00      -55.311      -17.326       -0.723       49.340       42.666       27.224     2434.428     1820.375      741.124        0.418        0.250       57.961       22.125        0.146      339.480       12.841      866.572
01/18/2014  15:16:00      -23.393      -18.478       17.150       35.553       29.811       22.282     1264.036      888.701      496.485        0.192        0.132       29.811       17.392        0.340      339.679       13.177      866.571
01/18/2014  15:17:00      -10.803      -27.471       10.123       31.517       31.266       23.414      993.315      977.579      548.194        0.175        0.126       29.519       21.636        0.537      339.734       13.269      866.575
01/18/2014  15:18:00      -10.854      -41.097        0.375       39.554       30.816       26.548     1564.499      949.609      704.804        0.251        0.161       42.506       24.296        0.327      339.608       13.059      866.577
01/18/2014  15:19:00      -35.325      -27.706        1.672       46.984       32.159       26.159     2207.473     1034.171      684.295        0.297        0.196       44.894       20.645        0.211      339.542       12.947      866.582
01/18/2014  15:20:00        7.278      -48.937       -1.024       41.569       40.089       27.527     1727.964     1607.147      757.737        0.327        0.205       49.475       26.478        0.286      339.429       12.756      866.595
01/18/2014  15:21:00      -68.576      -40.542       -3.770       62.226       33.456       22.337     3872.064     1119.281      498.962        0.592        0.275       79.664       25.054        0.099      339.369       12.657      866.595
01/18/2014  15:22:00      -26.461      -52.740        5.689       48.922       29.870       16.845     2393.357      892.232      283.749        0.354        0.178       59.006       20.180        0.117      339.480       12.841      866.596
01/18/2014  15:23:00      -32.561      -29.953        1.714       36.346       36.361       20.455     1321.014     1322.096      418.414        0.251        0.153       44.243       18.730        0.179      339.598       13.042      866.600
01/18/2014  15:24:00      -66.353     -139.985      -11.995       27.180       51.315       21.874      738.771     2633.261      478.463        1.400        0.193      154.914       16.229        0.011      339.211       12.388      866.597
01/18/2014  15:25:00      -78.681      -16.006      -21.129       15.099       29.667       18.115      227.982      880.113      328.153        0.416        0.072       80.292        5.122        0.004      339.234       12.427      866.587
01/18/2014  15:26:00      -40.282      -27.511       10.112       44.214       27.071       24.836     1954.894      732.832      616.821        0.289        0.165       48.780       27.435        0.316      339.631       13.097      866.573
01/18/2014  15:27:00      -85.105      -84.844       -7.163       46.345       46.014       19.714     2147.832     2117.331      388.645        0.957        0.233      120.172        6.199        0.003      339.285       12.513      866.568
01/18/2014  15:28:00      -57.188      -10.158        6.066       39.429       17.024       15.923     1554.674      289.818      253.551        0.275        0.105       58.083       21.014        0.131      339.426       12.752      866.566
01/18/2014  15:29:00      -30.460      -30.489       -3.195       20.059       18.124       18.857      402.378      328.478      355.605        0.148        0.054       43.097        8.349        0.038      339.492       12.864      866.563
01/18/2014  15:30:00      -47.597       14.934        2.420       18.342       23.398       15.506      336.432      547.460      240.451        0.181        0.056       49.885        9.881        0.039      339.364       12.647      866.557
01/18/2014  15:31:00      -10.841       17.421        2.650       15.644       10.609       10.942      244.745      112.551      119.719        0.045        0.024       20.519        8.834        0.185      339.532       12.931      866.554
01/18/2014  15:32:00       -0.226      -28.234       -6.704       17.783       21.775       15.950      316.230      474.142      254.401        0.094        0.052       28.235       10.781        0.146      339.806       13.392      866.553
01/18/2014  15:33:00       -9.787      -13.392        6.945       15.849       20.205       10.439      251.197      408.230      108.968        0.055        0.038       16.587        9.396        0.321      339.962       13.657      866.555
01/18/2014  15:34:00       -4.906      -14.126       15.803       36.950       28.600       19.600     1365.339      817.961      384.161        0.152        0.128       14.954       19.883        1.768      339.757       13.309      866.563
01/18/2014  15:35:00       24.324      -52.154        2.316       26.378       49.248       26.984      695.817     2425.406      728.112        0.358        0.192       57.548       29.267        0.259      339.631       13.097      866.570
01/18/2014  15:36:00       22.119      -50.155       -1.305       32.208       52.322       32.422     1037.343     2737.587     1051.171        0.392        0.241       54.816       34.871        0.405      339.475       12.835      866.581
01/18/2014  15:37:00       -2.928      -45.351       -3.188       18.746       38.895       20.640      351.426     1512.812      426.026        0.218        0.115       45.446       18.536        0.166      339.541       12.945      866.589
01/18/2014  15:38:00      -17.948      -38.439       -0.985       39.325       16.783       13.297     1546.434      281.675      176.814        0.190        0.100       42.423       10.396        0.060      339.421       12.743      866.601
01/18/2014  15:39:00      -41.979      -31.666       -7.373       18.582       28.093       11.753      345.306      789.198      138.134        0.205        0.064       52.584        9.356        0.032      339.591       13.030      866.616
01/18/2014  15:40:00       -8.228      -21.176       -1.120       38.820       24.028       15.111     1506.994      577.334      228.348        0.141        0.116       22.719       16.151        0.505      339.581       13.013      866.620
01/18/2014  15:41:00       12.593      -47.635        9.658       30.462       40.408       29.818      927.950     1632.825      889.111        0.298        0.172       49.271       25.803        0.274      339.535       12.934      866.622
01/18/2014  15:42:00       21.284       13.395       17.314       17.018       15.517       27.856      289.605      240.775      775.957        0.112        0.065       25.148       13.652        0.295      339.464       12.816      866.628
01/18/2014  15:43:00       14.943       24.558       16.128       16.994       21.935       21.568      288.796      481.153      465.170        0.116        0.062       28.747        9.899        0.119      339.460       12.809      866.633
01/18/2014  15:44:00       28.194       18.865       26.716       12.930       12.682       10.339      167.189      160.824      106.897        0.115        0.022       33.924        5.262        0.024      339.417       12.737      866.637
01/18/2014  15:45:00        6.649        7.254        1.840       10.367        7.599        6.707      107.475       57.749       44.983        0.016        0.011        9.840        2.565        0.068      339.632       13.098      866.638
01/18/2014  15:46:00        6.832        8.742       -3.329        7.517        6.936        5.996       56.504       48.104       35.958        0.014        0.007       11.095        3.189        0.083      339.487       12.857      866.637
01/18/2014  15:47:00       40.606       22.169       10.788       38.379       23.543       17.671     1472.919      554.276      312.247        0.230        0.117       46.263        9.899        0.046      339.456       12.800      866.631
01/18/2014  15:48:00       48.885       36.721       15.831       44.342       24.321       27.631     1966.192      591.527      763.482        0.365        0.166       61.141       27.670        0.205      339.405       12.716      866.632
01/18/2014  15:49:00      -16.847       14.855       41.020       23.644       32.816       26.559      559.025     1076.904      705.364        0.226        0.117       22.461       24.674        1.207      339.723       13.253      866.635
01/18/2014  15:50:00       32.368       45.017       49.814       39.691       25.354       25.725     1575.338      642.844      661.754        0.422        0.144       55.446       25.756        0.216      339.379       12.671      866.645
01/18/2014  15:51:00       46.496       39.653       36.408       22.459       25.204       21.385      504.427      635.246      457.327        0.333        0.080       61.108       16.601        0.074      339.348       12.619      866.650
01/18/2014  15:52:00        1.967       33.998       48.731       17.389       26.631       18.977      302.376      709.202      360.141        0.245        0.069       34.055       19.188        0.317      339.558       12.975      866.656
01/18/2014  15:53:00       52.646        0.314       20.953       25.903       32.723       23.662      670.973     1070.808      559.885        0.276        0.115       52.647       25.188        0.229      339.389       12.688      866.659
01/18/2014  15:54:00       -4.761       25.625       47.686       10.567       21.487       13.680      111.664      461.670      187.153        0.186        0.038       26.064       13.545        0.270      339.637       13.108      866.661
01/18/2014  15:55:00       34.497       45.693       28.236       22.360       17.043       19.946      499.970      290.467      397.836        0.263        0.059       57.253       17.638        0.095      339.407       12.720      866.660
01/18/2014  15:56:00       28.917       22.316       12.081       18.599       16.074       19.039      345.909      258.374      362.478        0.122        0.048       36.527       12.022        0.108      339.431       12.760      866.657
01/18/2014  15:57:00       54.818       32.536       26.173       28.765       18.508       18.196      827.399      342.550      331.081        0.312        0.075       63.746       10.592        0.028      339.384       12.680      866.647
01/18/2014  15:58:00       76.303       52.062       22.565       40.814       27.754       26.636     1665.748      770.301      709.480        0.609        0.157       92.372       22.325        0.058      339.332       12.591      866.638
01/18/2014  15:59:00       25.343       35.662       40.832       33.736       30.145       19.610     1138.131      908.719      384.566        0.301        0.122       43.749       16.811        0.148      339.466       12.819      866.633
01/18/2014  16:00:00       12.218       61.366       67.453       25.542       25.473       21.732      652.378      648.873      472.266        0.512        0.089       62.571       18.550        0.088      339.434       12.765      866.622
01/18/2014  16:01:00       57.300       92.072       63.035       30.249       28.933       33.397      914.999      837.090     1115.377        0.930        0.143      108.446       22.523        0.043      339.329       12.588      866.612
01/18/2014  16:02:00       32.112       53.127       59.029       35.362       23.613       22.317     1250.474      557.592      498.060        0.482        0.115       62.078       22.601        0.133      339.417       12.736      866.612
01/18/2014  16:03:00       45.024       31.119       43.277       29.881       30.235       23.165      892.850      914.167      536.597        0.361        0.117       54.731       23.306        0.181      339.403       12.713      866.608
01/18/2014  16:04:00       43.499       29.334       36.234       31.450       34.148       26.458      989.081     1166.092      700.001        0.346        0.143       52.466       21.930        0.175      339.406       12.717      866.609
01/18/2014  16:05:00       34.085       30.245       22.075       21.278       17.887       19.774      452.766      319.957      391.030        0.186        0.058       45.569       12.274        0.073      339.457       12.803      866.615
01/18/2014  16:06:00       40.800       38.626       13.115       27.034       15.219       16.892      730.828      231.628      285.349        0.229        0.062       56.184        9.785        0.030      339.378       12.671      866.623
01/18/2014  16:07:00       60.270       35.994       11.427       19.372       20.506       15.030      375.279      420.512      225.910        0.304        0.051       70.200        9.460        0.018      339.313       12.562      866.630
01/18/2014  16:08:00       28.554       30.352        8.251       11.235       12.364       11.893      126.228      152.864      141.447        0.111        0.021       41.672        5.775        0.019      339.307       12.550      866.621
01/18/2014  16:09:00       42.475       44.640        9.437       14.919       13.775       13.200      222.576      189.741      174.239        0.224        0.029       61.619        9.271        0.023      339.370       12.657      866.635
01/18/2014  16:10:00       26.611       27.252        3.623       14.177       14.649       10.004      200.984      214.603      100.078        0.099        0.026       38.089        6.268        0.027      339.398       12.707      866.634
01/18/2014  16:11:00       24.292       -6.001       23.593       27.957       39.207       26.398      781.612     1537.183      696.869        0.210        0.151       25.022       22.573        0.814      339.454       12.798      866.622
01/18/2014  16:12:00       88.147     -128.996      -22.840       42.787       24.978       20.438     1830.732      623.922      417.707        1.390        0.144      156.237       14.309        0.008      339.446       12.784      866.615
01/18/2014  16:13:00       22.279      -86.212      -11.748       32.952       30.694       28.415     1085.812      942.149      807.435        0.545        0.142       89.044       25.183        0.080      339.490       12.859      866.604
01/18/2014  16:14:00        0.289      -46.682        0.854       52.210       26.436       22.887     2725.865      698.843      523.807        0.306        0.197       46.683       17.443        0.140      339.529       12.926      866.592
01/18/2014  16:15:00       13.493      -33.347        3.295       39.746       39.463       28.233     1579.729     1557.318      797.116        0.262        0.197       35.974       28.079        0.609      339.498       12.872      866.586
01/18/2014  16:16:00       27.715      -41.164       -3.069       26.260       37.171       24.344      689.578     1381.655      592.636        0.257        0.133       49.625       19.233        0.150      339.537       12.937      866.576
01/18/2014  16:17:00       95.629      -91.422       -5.130       54.576       43.358       29.147     2978.537     1879.933      849.559        1.162        0.285      132.299       27.640        0.044      339.444       12.781      866.571
01/18/2014  16:18:00       87.944     -135.651      -22.012       36.054       31.520       23.086     1299.912      993.485      532.970        1.472        0.141      161.664       17.215        0.011      339.370       12.657      866.581
01/18/2014  16:19:00       64.608      -99.564       -8.397       24.825       43.267       25.342      616.278     1871.993      642.225        0.864        0.157      118.690       18.657        0.025      339.390       12.689      866.588
01/18/2014  16:20:00       84.283      -81.452      -11.686       21.387       23.113       11.562      457.424      534.231      133.691        0.750        0.056      117.210       13.454        0.013      339.405       12.716      866.599
01/18/2014  16:21:00       48.527      -28.436       12.599       37.030       63.420       27.678     1371.186     4022.052      766.098        0.474        0.308       56.245       40.261        0.512      339.373       12.661      866.601
01/18/2014  16:22:00       23.294       44.634       58.662       31.950       32.568       19.127     1020.777     1060.691      365.857        0.421        0.122       50.347       20.975        0.174      339.297       12.535      866.616
01/18/2014  16:23:00       32.423       23.201       24.664       26.453       25.589       19.626      699.745      654.809      385.183        0.197        0.087       39.869       11.906        0.089      339.269       12.487      866.626
01/18/2014  16:24:00       -2.371       -4.824        8.584       19.624       14.522       16.759      385.092      210.893      280.867        0.049        0.044        5.375       11.588        4.648      339.487       12.854      866.638
01/18/2014  16:25:00       11.216       -9.676        7.954       45.707       22.162       16.591     2089.123      491.166      275.259        0.157        0.143       14.813       11.919        0.647      339.464       12.815      866.648
01/18/2014  16:26:00       24.935      -25.997       12.102       46.587       40.021       25.129     2170.303     1601.694      631.464        0.292        0.220       36.022       15.769        0.192      339.416       12.734      866.654
01/18/2014  16:27:00       11.995      -14.756        3.422       15.299       33.144       15.809      234.054     1098.529      249.925        0.098        0.079       19.016       13.612        0.512      339.358       12.636      866.668
01/18/2014  16:28:00       -5.111        9.002       20.258       18.454       26.488       24.472      340.548      701.589      598.878        0.108        0.082       10.352       22.881        4.886      339.308       12.552      866.678
01/18/2014  16:29:00      -13.764       27.007       40.646       14.910       23.149       23.704      222.317      535.862      561.892        0.195        0.066       30.312       19.742        0.424      339.337       12.600      866.682
01/18/2014  16:30:00       -4.919       18.753       32.853       11.408       16.469       19.395      130.152      271.236      376.167        0.112        0.039       19.387       10.458        0.291      339.358       12.636      866.680
01/18/2014  16:31:00        2.295       26.054       39.732       22.851       18.405       15.205      522.169      338.760      231.177        0.168        0.055       26.155        8.416        0.104      339.314       12.563      866.686
01/18/2014  16:32:00       23.328       10.990       24.267       21.546       22.249       16.144      464.215      495.033      260.616        0.124        0.061       25.788       12.348        0.229      339.302       12.542      866.686
01/18/2014  16:33:00       -3.445       15.107       21.524       11.864       15.795        9.826      140.757      249.466       96.542        0.059        0.024       15.495       11.092        0.512      339.270       12.488      866.683
01/18/2014  16:34:00       -1.628       12.362       26.205       12.971       16.601       14.151      168.249      275.593      200.265        0.074        0.032       12.468       12.032        0.931      339.253       12.459      866.677
01/18/2014  16:35:00       -1.947        4.739       20.449       11.083       19.578       16.560      122.830      383.296      274.230        0.061        0.039        5.123        6.484        1.602      339.438       12.772      866.672
01/18/2014  16:36:00       16.066       35.764       22.279       15.713       12.018       15.559      246.891      144.441      242.092        0.133        0.032       39.207        7.936        0.041      339.248       12.450      866.680
01/18/2014  16:37:00        1.923        0.678       17.154       13.703       17.744       14.106      187.774      314.844      198.968        0.050        0.035        2.039       14.328       49.385      339.331       12.591      866.677
01/18/2014  16:38:00       20.445        6.952       17.069       20.838       19.128       14.602      434.214      365.864      213.205        0.089        0.051       21.595       14.704        0.464      339.123       12.240      866.671
01/18/2014  16:39:00       23.466       -1.584       28.371       22.086       27.861       16.328      487.802      776.246      266.588        0.144        0.077       23.519       13.805        0.345      339.155       12.295      866.662
01/18/2014  16:40:00       30.684       -7.653       18.840       27.896       32.065       24.150      778.198     1028.150      583.201        0.187        0.119       31.624       20.559        0.423      339.202       12.373      866.649
01/18/2014  16:41:00       19.846        9.959       22.753       18.692       18.406       18.004      349.404      338.767      324.147        0.101        0.051       22.205       12.370        0.310      339.099       12.200      866.652
01/18/2014  16:42:00       44.539      -29.455        7.988       30.358       30.268       26.452      921.603      916.156      699.709        0.273        0.127       53.398       21.173        0.157      339.187       12.348      866.650
01/18/2014  16:43:00       17.508      -15.322       12.478       23.301       28.414       16.754      542.914      807.367      280.694        0.116        0.082       23.265       20.749        0.795      339.133       12.259      866.645
01/18/2014  16:44:00       60.906      -58.242       -7.470       25.621       24.822       13.881      656.453      616.142      192.673        0.431        0.073       84.271        8.954        0.011      339.189       12.353      866.636
01/18/2014  16:45:00       43.126      -39.685        1.046       21.386       30.201       16.130      457.371      912.077      260.167        0.253        0.081       58.607       14.619        0.062      339.111       12.221      866.646
01/18/2014  16:46:00       21.429        2.592       16.288       20.901       28.446       16.080      436.860      809.182      258.560        0.112        0.075       21.585       14.021        0.422      338.961       11.968      866.648
01/18/2014  16:47:00        6.089       19.641       20.232       10.343       11.524       11.676      106.983      132.794      136.319        0.060        0.019       20.563        7.588        0.136      338.925       11.908      866.642
01/18/2014  16:48:00       11.336        2.231       12.147       15.544       15.491       11.397      241.612      239.973      129.885        0.045        0.031       11.553       10.452        0.819      338.890       11.847      866.649
01/18/2014  16:49:00       30.066        2.417        5.554       13.900       18.143       11.264      193.217      329.183      126.874        0.079        0.032       30.163       10.965        0.132      338.945       11.940      866.653
01/18/2014  16:50:00       58.814       27.634       25.862       22.554       18.250       18.827      508.663      333.074      354.448        0.304        0.060       64.982        9.196        0.020      338.964       11.974      866.645
01/18/2014  16:51:00       49.722        4.112       13.456       26.713       22.723       15.051      713.609      516.351      226.546        0.206        0.073       49.891       13.747        0.076      338.986       12.010      866.653
01/18/2014  16:52:00       24.073        6.472        8.501       15.997       16.855       10.679      255.904      284.103      114.052        0.067        0.033       24.928        8.847        0.126      338.915       11.890      866.643
01/18/2014  16:53:00       46.000       13.968       16.085       21.872       20.892       18.973      478.377      436.493      359.963        0.192        0.064       48.074       14.854        0.095      338.926       11.909      866.635
01/18/2014  16:54:00        6.715       -9.869       -0.529       10.611       10.264        9.807      112.594      105.355       96.168        0.023        0.016       11.936        7.976        0.447      338.881       11.833      866.626
01/18/2014  16:55:00       34.002      -12.361       -0.516       13.956       12.588       10.337      194.772      158.449      106.855        0.088        0.023       36.179        8.995        0.062      338.909       11.880      866.615
01/18/2014  16:56:00        8.136        0.862        5.024       11.228       16.044       10.563      126.074      257.401      111.570        0.029        0.025        8.181        8.979        1.204      338.768       11.644      866.615
01/18/2014  16:57:00       43.306      -28.069        2.307       17.797       19.666        8.098      316.743      386.742       65.576        0.172        0.038       51.607       11.026        0.046      338.969       11.980      866.612
01/18/2014  16:58:00       12.118      -16.604        7.841       16.842       28.524       13.580      283.644      813.607      184.421        0.088        0.064       20.556       11.793        0.329      338.847       11.775      866.611
01/18/2014  16:59:00       10.862      -25.006        9.096       13.780       18.811       12.591      189.888      353.865      158.538        0.076        0.035       27.263       10.562        0.150      338.705       11.538      866.617
01/18/2014  17:00:00       -3.098        2.976        7.971        7.280        9.765        7.399       52.992       95.363       54.743        0.014        0.010        4.296        4.091        0.907      338.608       11.374      866.621
01/18/2014  17:01:00       16.009       -2.090        0.537       10.806       16.899        7.699      116.768      285.560       59.281        0.036        0.023       16.145        6.515        0.163      338.753       11.617      866.628
01/18/2014  17:02:00       13.541       18.965        8.572        8.185        6.221        8.094       66.997       38.699       65.508        0.039        0.009       23.303        4.417        0.036      338.797       11.692      866.631
01/18/2014  17:03:00       -9.818        1.648        0.900       13.091        7.116        4.809      171.372       50.644       23.129        0.017        0.012        9.955        4.419        0.197      338.729       11.579      866.636
01/18/2014  17:04:00      -25.590      -22.519       -6.035       11.671       15.224        7.470      136.222      231.770       55.799        0.081        0.021       34.087        3.805        0.012      338.144       10.595      866.645
01/18/2014  17:05:00      -60.419      -25.972      -13.999       12.477        9.950        6.517      155.667       99.000       42.467        0.241        0.015       65.764        3.640        0.003      337.609        9.697      866.654
01/18/2014  17:06:00      -81.370      -11.351      -17.727       12.915       13.984        9.273      166.804      195.549       85.987        0.376        0.022       82.158        1.727        0.000      337.584        9.658      866.661
01/18/2014  17:07:00      -78.553        7.736      -11.752       18.948       18.642       12.922      359.038      347.534      166.971        0.362        0.044       78.933       11.316        0.021      337.593        9.671      866.666
01/18/2014  17:08:00      -75.088        3.913      -11.488       23.680       14.425       13.148      560.721      208.089      172.859        0.336        0.047       75.190        9.474        0.016      337.643        9.756      866.679
01/18/2014  17:09:00      -73.257        6.524      -15.319       14.353       13.185        9.849      206.007      173.853       96.997        0.306        0.024       73.547        6.894        0.009      337.497        9.511      866.687
01/18/2014  17:10:00      -59.011        5.165      -14.941       14.971        8.699        7.110      224.123       75.678       50.548        0.204        0.018       59.237        7.046        0.014      337.463        9.452      866.706
01/18/2014  17:11:00      -55.288      -13.048       -7.521       12.636       11.845        8.784      159.664      140.314       77.166        0.183        0.019       56.806        4.130        0.005      337.524        9.558      866.722
01/18/2014  17:12:00      -57.926       -8.839       -9.473       10.507       18.702       12.631      110.401      349.767      159.542        0.207        0.031       58.596        8.907        0.023      337.318        9.210      866.735
01/18/2014  17:13:00      -54.619       64.231      -15.737       26.138       39.298       16.268      683.211     1544.346      264.662        0.492        0.125       84.314       18.765        0.050      337.939       10.252      866.747
01/18/2014  17:14:00      -45.691       57.561       -8.955       23.217       38.727       14.465      539.017     1499.819      209.247        0.386        0.112       73.491       11.557        0.025      338.114       10.546      866.753
01/18/2014  17:15:00      -40.261       13.546       -4.297       16.656       20.303        9.794      277.436      412.223       95.923        0.130        0.039       42.479        6.652        0.025      337.637        9.745      866.758
01/18/2014  17:16:00      -40.989        3.388       -6.614       12.221       16.142        7.913      149.347      260.557       62.608        0.110        0.024       41.128        7.361        0.032      337.696        9.846      866.774
01/18/2014  17:17:00      -54.207      -16.376      -10.946       10.112       11.605        9.157      102.257      134.687       83.856        0.182        0.016       56.626        7.219        0.016      337.406        9.358      866.787
01/18/2014  17:18:00      -53.560      -17.571       -9.600       14.699       11.050        6.830      216.070      122.100       46.648        0.183        0.019       56.368        2.266        0.002      337.397        9.344      866.790
01/18/2014  17:19:00      -53.298      -18.322      -13.522       20.179       15.813       10.377      407.186      250.062      107.680        0.206        0.038       56.359       10.388        0.034      337.406        9.358      866.798
01/18/2014  17:20:00      -67.390       -3.343      -16.600       12.167       14.146        8.291      148.042      200.106       68.738        0.262        0.021       67.473        7.633        0.013      337.284        9.153      866.801
01/18/2014  17:21:00      -57.219        7.539      -15.099       23.046       20.538       10.536      531.136      421.797      110.997        0.231        0.053       57.714       10.066        0.030      337.481        9.485      866.811
01/18/2014  17:22:00      -58.406        1.738      -13.059       27.863       10.723       14.485      776.372      114.976      209.808        0.234        0.055       58.432       14.876        0.065      337.303        9.188      866.812
01/18/2014  17:23:00      -80.340       -9.547      -13.950       19.436       17.113       13.473      377.751      292.847      181.520        0.380        0.043       80.906       12.041        0.022      337.045        8.754      866.815
01/18/2014  17:24:00      -89.466       -8.850      -15.063       29.510       22.425       12.648      870.862      502.894      159.976        0.492        0.077       89.902       11.538        0.016      336.940        8.578      866.823
01/18/2014  17:25:00      -72.602      -15.327      -15.743       22.463       22.772       16.741      504.586      518.547      280.252        0.353        0.065       74.202        6.923        0.009      336.996        8.672      866.830
01/18/2014  17:26:00      -71.502      -27.566       -9.923       24.735       25.936       12.849      611.820      672.677      165.103        0.371        0.072       76.631        7.538        0.010      336.873        8.466      866.835
01/18/2014  17:27:00      -92.391      -15.018      -20.942       20.679       21.483       17.554      427.601      461.522      308.155        0.520        0.060       93.603       10.980        0.014      336.755        8.272      866.835
01/18/2014  17:28:00     -102.900       -7.326      -16.092       35.644       23.947       18.296     1270.466      573.468      334.744        0.654        0.109      103.160       11.520        0.012      336.774        8.300      866.837
01/18/2014  17:29:00      -76.808       -1.468      -13.820       26.209       28.140       22.226      686.938      791.869      493.991        0.403        0.099       76.822       17.159        0.050      336.708        8.192      866.837
01/18/2014  17:30:00      -91.840      -12.245      -12.001       36.068       25.030       24.346     1300.871      626.498      592.704        0.562        0.126       92.652       20.493        0.049      336.610        8.027      866.832
01/18/2014  17:31:00     -119.198      -11.621      -16.057       40.694       28.229       20.601     1656.015      796.858      424.404        0.874        0.144      119.764       14.538        0.015      336.654        8.101      866.822
01/18/2014  17:32:00      -95.561       -5.180      -14.659       35.421       19.624       13.422     1254.650      385.090      180.163        0.560        0.091       95.701        9.753        0.010      336.557        7.940      866.822
01/18/2014  17:33:00      -99.550       -1.069      -19.360       19.055       21.103       13.978      363.094      445.330      195.385        0.564        0.050       99.556       11.881        0.014      336.629        8.059      866.823
01/18/2014  17:34:00      -85.994      -12.201      -16.919       18.614       20.296       14.658      346.480      411.913      214.862        0.440        0.049       86.856       13.091        0.023      336.538        7.907      866.834
01/18/2014  17:35:00      -96.438        1.638      -18.459       19.255       19.419       15.254      370.772      377.112      232.675        0.531        0.049       96.452       11.860        0.015      336.498        7.840      866.839
01/18/2014  17:36:00     -111.675       -0.638      -26.368       30.666       20.616       19.300      940.396      425.018      372.500        0.745        0.087      111.676       15.085        0.018      336.533        7.902      866.847
01/18/2014  17:37:00     -101.848        8.228      -17.684       28.240       18.682       12.627      797.484      349.019      159.448        0.603        0.065      102.179        8.665        0.007      336.460        7.777      866.845
01/18/2014  17:38:00     -100.674        9.257      -16.878       34.748       25.032       22.555     1207.449      626.596      508.742        0.642        0.117      101.099       20.991        0.043      336.495        7.834      866.840
01/18/2014  17:39:00     -116.923        8.858      -17.840       32.475       27.520       22.385     1054.642      757.354      501.079        0.819        0.116      117.258       20.924        0.032      336.488        7.825      866.839
01/18/2014  17:40:00     -140.655       21.253      -28.036       28.581       29.211       17.446      816.874      853.276      304.379        1.150        0.099      142.252       12.704        0.008      336.564        7.950      866.843
01/18/2014  17:41:00     -121.222        4.818      -20.897       46.300       33.578       25.525     2143.699     1127.515      651.523        0.954        0.196      121.318       25.287        0.043      336.535        7.902      866.847
01/18/2014  17:42:00      -98.903        3.002      -24.816       28.795       31.806       18.104      829.139     1011.652      327.760        0.629        0.108       98.948       10.956        0.012      336.465        7.785      866.856
01/18/2014  17:43:00     -123.073        5.244      -18.178       46.313       29.740       28.088     2144.926      884.471      788.935        0.966        0.191      123.185       29.387        0.057      336.426        7.719      866.866
01/18/2014  17:44:00      -98.894       10.418      -12.725       47.276       35.109       28.171     2234.996     1232.647      793.618        0.716        0.213       99.442       26.177        0.069      336.337        7.571      866.867
01/18/2014  17:45:00     -107.775      -10.882      -16.817       26.864       43.437       28.172      721.657     1886.769      793.676        0.771        0.170      108.323       16.886        0.024      336.384        7.648      866.868
01/18/2014  17:46:00      -86.581      -19.353      -10.287       36.237       32.765       23.602     1313.123     1073.547      557.057        0.546        0.147       88.717       24.092        0.074      336.262        7.446      866.872
01/18/2014  17:47:00     -100.363      -44.366       -7.823       23.830       22.532       19.145      567.852      507.707      366.532        0.677        0.072      109.732       14.941        0.019      336.225        7.383      866.871
01/18/2014  17:48:00      -90.155      -52.368       -0.187       39.417       29.831       18.455     1553.729      889.903      340.584        0.683        0.139      104.261       20.962        0.040      336.167        7.286      866.872
01/18/2014  17:49:00      -81.627      -49.504       -5.777       40.878       28.056       26.125     1670.991      787.113      682.536        0.614        0.157       95.465       27.959        0.086      336.134        7.231      866.876
01/18/2014  17:50:00     -120.021      -48.488       -3.669       23.606       20.979       15.990      557.230      440.099      255.684        0.901        0.063      129.445       12.843        0.010      336.285        7.484      866.876
01/18/2014  17:51:00      -44.586      -48.989        3.006       24.380       20.034       14.202      594.361      401.348      201.703        0.280        0.060       66.241        9.789        0.022      336.512        7.863      866.878
01/18/2014  17:52:00      -43.711      -45.583        2.267       19.025       22.318       17.994      361.961      498.077      323.779        0.259        0.059       63.155       13.973        0.049      336.533        7.900      866.887
01/18/2014  17:53:00      -80.879      -67.404       -3.552       29.853       28.316       14.834      891.182      801.792      220.055        0.650        0.096      105.284       14.407        0.019      336.532        7.897      866.898
01/18/2014  17:54:00      -91.539      -49.644      -17.113       21.853       16.491       15.580      477.573      271.949      242.738        0.606        0.050      104.134       12.094        0.013      336.574        7.968      866.906
01/18/2014  17:55:00     -125.872      -52.250      -15.644       13.855       18.435       11.113      191.953      339.832      123.490        0.974        0.033      136.286        9.412        0.005      336.698        8.177      866.919
01/18/2014  17:56:00     -118.643      -38.875       -9.931       17.685       20.126       14.613      312.760      405.057      213.554        0.831        0.047      124.849        8.673        0.005      336.436        7.737      866.922
01/18/2014  17:57:00     -111.113      -41.469       -7.044       23.999       13.643        9.825      575.958      186.135       96.533        0.749        0.043      118.599        8.290        0.005      336.425        7.716      866.931
01/18/2014  17:58:00     -107.486      -23.676      -15.957        9.549       10.421        8.840       91.177      108.597       78.145        0.632        0.014      110.062        2.030        0.000      336.525        7.887      866.943
01/18/2014  17:59:00     -110.489      -34.655      -19.519       14.436       12.046        6.706      208.391      145.101       44.971        0.709        0.020      115.797        5.239        0.002      336.502        7.847      866.935
01/18/2014  18:00:00     -127.526      -44.105      -16.061        8.260        8.924        7.099       68.232       79.634       50.403        0.933        0.010      134.938        5.864        0.002      336.510        7.861      866.926
01/18/2014  18:01:00     -117.509      -18.798      -16.859       13.730       12.090       12.125      188.525      146.177      147.015        0.746        0.024      119.003        4.010        0.001      336.385        7.649      866.932
01/18/2014  18:02:00     -108.620        1.830      -22.896       23.196       15.107       12.445      538.040      228.223      154.886        0.662        0.046      108.636        9.736        0.008      336.379        7.640      866.938
01/18/2014  18:03:00      -56.491      -10.265      -10.355       25.623       16.015        8.975      656.545      256.482       80.543        0.220        0.050       57.417        5.429        0.009      336.402        7.679      866.943
01/18/2014  18:04:00     -100.349       -9.118      -16.676       12.883       10.527        9.282      165.965      110.825       86.155        0.540        0.018      100.762        2.884        0.001      336.355        7.602      866.944
01/18/2014  18:05:00      -85.891      -22.585      -11.822       15.747       15.622       10.475      247.976      244.032      109.721        0.431        0.030       88.811        8.268        0.009      336.250        7.426      866.944
01/18/2014  18:06:00      -72.497      -38.488      -14.628       14.710       12.510        9.749      216.373      156.507       95.046        0.371        0.023       82.080        3.480        0.002      336.231        7.392      866.951
01/18/2014  18:07:00      -88.485      -25.174      -18.044       18.839       12.311       10.517      354.913      151.563      110.607        0.470        0.031       91.997        8.518        0.009      336.120        7.208      866.951
01/18/2014  18:08:00      -82.774      -16.486      -13.160       15.671       16.452       10.357      245.576      270.675      107.262        0.396        0.031       84.400        5.506        0.004      336.139        7.240      866.955
01/18/2014  18:09:00      -77.946      -26.647       -9.268       17.115       20.487       12.847      292.926      419.727      165.042        0.387        0.044       82.375       10.613        0.017      336.085        7.150      866.959
01/18/2014  18:10:00      -74.050      -15.492      -13.140       18.348       13.375       13.606      336.667      178.901      185.110        0.330        0.035       75.653       10.052        0.018      336.039        7.074      866.963
01/18/2014  18:11:00      -75.203      -37.541       -7.328       18.587       22.056       16.150      345.482      486.478      260.823        0.411        0.055       84.052        8.478        0.010      336.033        7.063      866.976
01/18/2014  18:12:00      -93.744       -9.978      -16.869       20.899       25.877       17.720      436.775      669.599      314.006        0.530        0.071       94.273       12.941        0.019      336.183        7.313      866.976
01/18/2014  18:13:00      -79.183      -34.723      -19.292       16.107       16.562       11.067      259.439      274.306      122.487        0.425        0.033       86.461       10.242        0.014      335.977        6.969      866.977
01/18/2014  18:14:00     -104.963      -28.417      -17.292       16.820       17.578       11.703      282.898      309.001      136.971        0.643        0.036      108.742       11.950        0.012      335.995        7.000      866.969
01/18/2014  18:15:00     -111.267      -21.475      -22.525       12.812       12.559        8.792      164.142      157.718       77.293        0.687        0.020      113.321        6.865        0.004      335.889        6.823      866.973
01/18/2014  18:16:00      -90.983      -29.889      -14.503       20.474       24.800       16.500      419.182      615.065      272.246        0.534        0.065       95.767       14.592        0.023      335.842        6.745      866.974
01/18/2014  18:17:00      -65.430      -36.097      -12.900       20.118       26.867       15.029      404.732      721.832      225.873        0.355        0.068       74.727        8.799        0.014      335.759        6.609      866.967
01/18/2014  18:18:00      -56.504      -25.124       -8.428       32.298       26.488       17.904     1043.176      701.640      320.555        0.298        0.103       61.838       17.717        0.082      335.710        6.526      866.968
01/18/2014  18:19:00      -87.211      -16.169      -14.625       22.167       30.543       14.418      491.375      932.880      207.873        0.486        0.082       88.697        8.680        0.010      335.778        6.638      866.969
01/18/2014  18:20:00     -120.104       -7.338      -20.555       24.257       24.066       13.178      588.423      579.165      173.652        0.812        0.067      120.328       10.462        0.008      335.717        6.537      866.970
01/18/2014  18:21:00      -80.280      -23.508       -6.090       22.415       23.273       17.188      502.432      541.625      295.410        0.419        0.067       83.652       13.273        0.025      335.656        6.436      866.976
01/18/2014  18:22:00      -77.611       -6.297      -12.133       21.825       22.881       15.585      476.327      523.538      242.888        0.373        0.062       77.866       12.380        0.025      335.659        6.441      866.981
01/18/2014  18:23:00     -101.739       -2.607      -18.224       18.792       18.692        9.436      353.148      349.394       89.044        0.574        0.040      101.772        4.756        0.002      335.541        6.243      866.983
01/18/2014  18:24:00      -83.440      -11.572      -12.887       20.037       18.114       11.828      401.498      328.109      139.891        0.407        0.043       84.239       11.293        0.018      335.535        6.235      866.987
01/18/2014  18:25:00      -98.300       -6.715      -19.453       23.737       15.487       15.994      563.464      239.833      255.799        0.557        0.053       98.529       15.540        0.025      335.502        6.180      866.982
01/18/2014  18:26:00     -109.447        0.892      -23.547       24.178       15.826       11.828      584.570      250.473      139.896        0.675        0.049      109.451        3.193        0.001      335.531        6.226      866.974
01/18/2014  18:27:00      -92.644        7.953      -17.005       24.427       20.348       18.740      596.668      414.029      351.206        0.515        0.068       92.984       13.856        0.022      335.616        6.368      866.968
01/18/2014  18:28:00      -85.544      -10.817      -19.949       16.344       20.709       16.780      267.123      428.866      281.581        0.440        0.049       86.225       10.739        0.016      335.505        6.182      866.955
01/18/2014  18:29:00      -88.765      -13.631      -15.014       23.632       28.038       16.131      558.475      786.103      260.213        0.495        0.080       89.806       13.374        0.022      335.488        6.155      866.943
01/18/2014  18:30:00     -108.197       -8.986      -14.713       25.280       28.790       20.298      639.081      828.885      411.996        0.694        0.094      108.569       18.154        0.028      335.464        6.115      866.933
01/18/2014  18:31:00     -100.020      -15.404      -10.303       28.574       31.297       19.653      816.454      979.493      386.252        0.626        0.109      101.200       17.748        0.031      335.473        6.130      866.926
01/18/2014  18:32:00     -112.894      -24.203      -16.122       36.307       25.565       19.493     1318.170      653.577      379.959        0.797        0.118      115.459       14.052        0.015      335.381        5.978      866.939
01/18/2014  18:33:00      -88.702      -49.171      -13.075       33.318       29.521       19.722     1110.117      871.486      388.953        0.641        0.119      101.419       17.983        0.031      335.362        5.944      866.944
01/18/2014  18:34:00     -142.217      -38.072      -11.136       48.092       41.216       24.502     2312.862     1698.764      600.351        1.320        0.231      147.225       14.176        0.009      335.322        5.877      866.951
01/18/2014  18:35:00      -95.077       -0.630      -10.611       68.222       40.786       28.825     4654.249     1663.526      830.866        0.815        0.357       95.079       27.873        0.086      335.271        5.791      866.964
01/18/2014  18:36:00     -148.546      -32.231      -11.286       50.780       45.573       27.445     2578.630     2076.870      753.244        1.432        0.270      152.003       25.541        0.028      335.292        5.827      866.964
01/18/2014  18:37:00     -139.778      -31.718       -7.138       43.604       55.099       29.549     1901.334     3035.947      873.145        1.320        0.291      143.332       23.652        0.027      335.228        5.722      866.968
01/18/2014  18:38:00     -121.557       17.222       -6.745       66.512       42.668       29.731     4423.800     1820.579      883.906        1.112        0.356      122.771       28.464        0.054      335.310        5.859      866.969
01/18/2014  18:39:00     -173.432        2.018      -18.861       61.179       42.335       28.638     3742.847     1792.230      820.140        1.840        0.318      173.444       27.465        0.025      335.254        5.764      866.967
01/18/2014  18:40:00     -165.829        9.659       -6.599       64.669       60.652       26.247     4182.113     3678.725      688.884        1.809        0.427      166.110       28.249        0.029      335.237        5.735      866.971
01/18/2014  18:41:00     -132.987        6.473      -11.648       49.988       49.380       22.096     2498.796     2438.424      488.225        1.164        0.271      133.145       19.858        0.022      335.210        5.692      866.966
01/18/2014  18:42:00     -121.867        5.011      -10.331       71.738       54.827       33.489     5146.331     3006.046     1121.506        1.213        0.464      121.970       30.960        0.064      335.274        5.798      866.972
01/18/2014  18:43:00     -126.068       -1.348      -11.767       52.820       51.172       29.635     2789.972     2618.618      878.251        1.116        0.314      126.075       28.182        0.050      335.220        5.709      866.967
01/18/2014  18:44:00      -89.816      -19.107       -9.470       55.060       48.812       32.130     3031.619     2382.592     1032.316        0.748        0.322       91.826       24.243        0.070      335.117        5.540      866.964
01/18/2014  18:45:00      -70.759      -18.303       -9.168       45.702       46.310       20.406     2088.636     2144.577      416.388        0.504        0.232       73.088       20.626        0.080      335.094        5.501      866.971
01/18/2014  18:46:00     -106.390      -34.690       -2.131       51.645       33.094       31.288     2667.194     1095.201      978.959        0.863        0.237      111.903       26.654        0.057      335.065        5.451      866.972
01/18/2014  18:47:00     -104.322      -48.328      -10.483       43.103       36.567       21.023     1857.877     1337.175      441.981        0.848        0.182      114.973       15.342        0.018      335.095        5.501      866.981
01/18/2014  18:48:00     -101.799      -57.269       -1.468       37.578       40.060       23.768     1412.131     1604.803      564.913        0.861        0.179      116.802       14.010        0.014      335.063        5.449      866.989
01/18/2014  18:49:00     -119.827      -40.754      -11.251       39.061       35.473       21.999     1525.753     1258.313      483.978        0.971        0.163      126.568       15.543        0.015      335.072        5.463      867.011
01/18/2014  18:50:00     -110.021      -48.958       -5.659       37.001       45.991       20.798     1369.072     2115.177      432.554        0.922        0.196      120.422       15.490        0.017      335.065        5.455      867.029
01/18/2014  18:51:00      -62.339      -18.708      -11.619       36.608       33.969       21.498     1340.149     1153.918      462.160        0.366        0.148       65.086       13.773        0.045      335.108        5.524      867.054
01/18/2014  18:52:00      -85.681       -7.827      -14.733       42.994       46.399       24.603     1848.448     2152.867      605.326        0.611        0.230       86.038       18.340        0.045      335.142        5.581      867.065
01/18/2014  18:53:00      -56.818        3.006      -14.713       23.566       27.928       16.014      555.354      779.974      256.444        0.252        0.080       56.897        8.448        0.022      335.140        5.575      867.074
01/18/2014  18:54:00     -118.888       -0.227      -15.264       40.249       38.157       22.381     1619.972     1455.929      500.900        0.897        0.179      118.889       16.108        0.018      335.130        5.559      867.090
01/18/2014  18:55:00     -126.073       -2.677      -19.066       33.767       30.233       22.997     1140.203      914.024      528.841        0.942        0.129      126.101       19.153        0.023      335.104        5.517      867.092
01/18/2014  18:56:00     -106.270       -8.112      -14.190       33.561       24.465       19.619     1126.356      598.548      384.910        0.683        0.105      106.580       11.834        0.012      335.110        5.526      867.097
01/18/2014  18:57:00      -96.618        1.159      -12.111       56.323       32.964       23.665     3172.245     1086.617      560.033        0.715        0.241       96.625       27.711        0.082      335.013        5.366      867.091
01/18/2014  18:58:00      -55.515       -5.228      -11.299       44.728       25.951       19.151     2000.599      673.433      366.764        0.314        0.152       55.761       17.367        0.097      335.065        5.452      867.103
01/18/2014  18:59:00     -128.655       -6.142      -18.409       32.699       28.526       22.915     1069.208      813.755      525.117        0.967        0.120      128.802       11.685        0.008      335.075        5.469      867.096
01/18/2014  19:00:00     -103.969      -11.518       -9.829       34.702       28.447       19.732     1204.230      809.225      389.366        0.672        0.120      104.605       16.819        0.026      335.026        5.388      867.099
01/18/2014  19:01:00      -97.086      -20.949      -12.250       29.324       28.313       18.400      859.923      801.649      338.571        0.601        0.100       99.320       10.233        0.011      335.072        5.464      867.099
01/18/2014  19:02:00     -123.373       -6.083      -17.028       42.393       35.495       27.211     1797.134     1259.870      740.425        0.967        0.190      123.523       23.279        0.036      335.055        5.435      867.092
01/18/2014  19:03:00     -116.292       -0.349      -14.989       36.923       32.385       23.260     1363.340     1048.783      541.038        0.835        0.148      116.293       18.740        0.026      334.972        5.297      867.086
01/18/2014  19:04:00      -99.420        7.587      -11.924       27.242       34.913       23.690      742.147     1218.915      561.237        0.630        0.126       99.709       14.910        0.022      334.996        5.338      867.082
01/18/2014  19:05:00      -90.057       -1.730      -11.534       26.695       24.900       18.190      712.613      620.013      330.860        0.495        0.083       90.074       14.349        0.025      334.998        5.341      867.074
01/18/2014  19:06:00      -68.669       -4.838       -8.887       23.405       22.914       18.604      547.781      525.043      346.112        0.312        0.071       68.839       13.960        0.041      334.923        5.216      867.074
01/18/2014  19:07:00      -96.986       -3.779      -12.517       29.934       22.204       16.873      896.017      493.029      284.694        0.563        0.084       97.059       17.161        0.031      334.950        5.262      867.064
01/18/2014  19:08:00     -119.300      -17.374      -17.985       22.523       22.549       15.606      507.287      508.475      243.557        0.806        0.063      120.558        8.905        0.005      334.952        5.264      867.070
01/18/2014  19:09:00     -112.901      -33.959      -11.506       18.392       21.301       15.540      338.273      453.750      241.504        0.753        0.052      117.898        9.372        0.006      334.929        5.225      867.062
01/18/2014  19:10:00     -111.271      -51.501      -19.451       21.072       21.663       13.490      444.011      469.277      181.987        0.825        0.055      122.612        6.365        0.003      334.906        5.187      867.071
01/18/2014  19:11:00     -120.164      -50.759      -19.642       25.856       16.586       16.172      668.555      275.081      261.538        0.930        0.060      130.444       14.110        0.012      334.924        5.218      867.080
01/18/2014  19:12:00     -124.516      -52.347      -10.179       19.148       22.310       10.846      366.629      497.733      117.626        0.966        0.049      135.072        5.535        0.002      334.884        5.151      867.084
01/18/2014  19:13:00     -110.606      -52.574      -17.825       31.630       16.504       12.910     1000.429      272.379      166.668        0.838        0.072      122.465        4.872        0.002      335.041        5.413      867.088
01/18/2014  19:14:00     -101.591      -66.237      -14.082       25.129       15.154       15.240      631.463      229.647      232.243        0.800        0.055      121.277       10.072        0.007      335.090        5.494      867.095
01/18/2014  19:15:00     -104.002      -57.742      -10.587       11.755       14.742        9.290      138.181      217.336       86.297        0.735        0.022      118.956        5.092        0.002      335.078        5.474      867.106
01/18/2014  19:16:00     -104.857      -43.069       -5.499       18.311       14.426       11.916      335.289      208.096      141.992        0.678        0.034      113.358        9.394        0.007      335.056        5.437      867.105
01/18/2014  19:17:00     -111.762      -47.415       -7.578       11.145       12.359       11.168      124.203      152.757      124.734        0.760        0.020      121.404        4.330        0.001      334.996        5.337      867.104
01/18/2014  19:18:00     -102.590      -60.717      -10.636       22.423       14.355       14.616      502.798      206.080      213.632        0.762        0.046      119.211       10.106        0.007      334.892        5.165      867.104
01/18/2014  19:19:00      -67.494      -49.770       -5.807       34.626       26.028       18.183     1198.961      677.445      330.617        0.464        0.110       83.860        9.846        0.014      334.857        5.107      867.093
01/18/2014  19:20:00      -82.648      -72.302        0.294       33.789       27.785       19.466     1141.697      772.008      378.935        0.718        0.115      109.811       16.941        0.024      334.931        5.229      867.089
01/18/2014  19:21:00      -94.871      -67.419       -0.729       43.347       27.913       21.926     1878.959      779.135      480.730        0.834        0.157      116.386       25.533        0.048      334.966        5.287      867.078
01/18/2014  19:22:00     -114.731      -73.734       -9.009       32.069       22.648       20.579     1028.406      512.932      423.493        1.032        0.098      136.382       12.615        0.009      334.949        5.259      867.080
01/18/2014  19:23:00      -75.030      -52.217        0.003       38.591       33.706       22.172     1489.278     1136.090      491.617        0.574        0.156       91.412       21.059        0.053      334.883        5.149      867.081
01/18/2014  19:24:00      -85.451      -58.231        2.919       37.648       25.744       22.950     1417.396      662.779      526.682        0.665        0.130      103.406       20.400        0.039      334.861        5.113      867.075
01/18/2014  19:25:00      -64.940      -40.526        7.454       34.176       26.658       20.738     1168.000      710.628      430.078        0.411        0.115       76.548       20.326        0.071      334.836        5.071      867.084
01/18/2014  19:26:00      -62.866      -45.917        7.963       42.125       34.299       24.411     1774.552     1176.397      595.890        0.483        0.177       77.849       21.890        0.079      334.870        5.128      867.083
01/18/2014  19:27:00      -59.045      -37.373        5.584       53.805       36.000       21.588     2894.983     1296.004      466.053        0.478        0.233       69.879       25.998        0.138      334.838        5.075      867.071
01/18/2014  19:28:00     -100.955      -64.452       -5.056       41.007       23.393       19.908     1681.596      547.243      396.347        0.850        0.131      119.774       16.968        0.020      334.867        5.123      867.065
01/18/2014  19:29:00     -123.586      -75.083       -7.575       52.520       22.124       21.605     2758.390      489.485      466.785        1.234        0.186      144.606       22.959        0.025      334.894        5.169      867.068
01/18/2014  19:30:00     -135.030      -74.701       -7.432       41.920       28.850       21.904     1757.286      832.312      479.806        1.347        0.153      154.315       22.953        0.022      334.885        5.153      867.057
01/18/2014  19:31:00     -122.271      -77.146      -14.808       42.309       24.785       25.513     1790.018      614.319      650.922        1.209        0.153      144.574       20.585        0.020      334.816        5.039      867.055
01/18/2014  19:32:00     -133.395      -83.108       -8.492       30.971       32.945       25.017      959.198     1085.364      625.853        1.372        0.134      157.166       19.353        0.015      334.773        4.966      867.052
01/18/2014  19:33:00     -136.074      -81.058       -3.925       27.447       21.705       16.656      753.361      471.111      277.420        1.330        0.075      158.387       11.108        0.005      334.759        4.944      867.052
01/18/2014  19:34:00     -153.107      -61.758      -15.699       25.528       23.903       15.935      651.657      571.349      253.936        1.449        0.074      165.094        7.920        0.002      334.740        4.910      867.059
01/18/2014  19:35:00     -167.207      -60.427       -8.288       23.202       24.178       17.316      538.341      584.579      299.851        1.655        0.071      177.791       12.826        0.005      334.770        4.961      867.065
01/18/2014  19:36:00     -158.087      -71.833      -15.171       16.977       15.382       15.321      288.228      236.591      234.732        1.557        0.038      173.642        8.962        0.003      334.757        4.940      867.063
01/18/2014  19:37:00     -148.961      -79.446       -5.657       26.837       25.334       21.833      720.249      641.819      476.668        1.519        0.092      168.822       16.065        0.009      334.669        4.793      867.061
01/18/2014  19:38:00      -91.624      -51.398        0.484       39.683       23.846       21.054     1574.732      568.615      443.282        0.681        0.129      105.056       11.452        0.012      334.673        4.800      867.064
01/18/2014  19:39:00      -99.045      -38.829      -12.163       28.343       28.481       21.047      803.330      811.172      442.986        0.676        0.103      106.384       13.558        0.016      334.710        4.862      867.060
01/18/2014  19:40:00      -95.843      -64.062      -12.669       36.366       26.523       17.880     1322.501      703.483      319.698        0.790        0.117      115.281       10.977        0.009      334.636        4.739      867.064
01/18/2014  19:41:00     -119.494      -67.293      -12.986       24.762       20.580       17.066      613.156      423.535      291.247        1.015        0.066      137.139       13.782        0.010      334.615        4.705      867.065
01/18/2014  19:42:00      -92.192      -55.062       -8.574       36.230       31.331       21.029     1312.620      981.633      442.205        0.717        0.137      107.383       15.225        0.020      334.648        4.759      867.052
01/18/2014  19:43:00      -73.962      -54.497       -1.026       29.468       31.461       21.686      868.391      989.796      470.266        0.538        0.116       91.871       12.374        0.018      334.558        4.609      867.058
01/18/2014  19:44:00     -103.847      -66.176      -12.418       26.440       18.318       11.236      699.061      335.555      126.244        0.824        0.058      123.140        8.446        0.005      334.533        4.567      867.049
01/18/2014  19:45:00      -90.705      -52.469       -7.087       27.845       17.158       14.570      775.316      294.411      212.298        0.616        0.064      104.787       14.319        0.019      334.536        4.573      867.039
01/18/2014  19:46:00      -95.145      -60.524       -9.272       12.774       14.412       11.211      163.187      207.712      125.694        0.665        0.025      112.764        4.366        0.001      334.508        4.525      867.045
01/18/2014  19:47:00     -103.877      -51.309      -16.572       21.039       16.219       12.976      442.632      263.069      168.367        0.729        0.044      115.858        8.807        0.006      334.461        4.450      867.046
01/18/2014  19:48:00     -119.683      -41.348      -19.567       12.199       15.825        7.724      148.814      250.419       59.663        0.844        0.023      126.624        7.843        0.004      334.504        4.520      867.039
01/18/2014  19:49:00     -126.691      -39.498      -21.165        7.504        6.488        5.574       56.313       42.100       31.073        0.909        0.006      132.706        2.465        0.000      334.539        4.577      867.048
01/18/2014  19:50:00     -126.374      -44.281      -16.617       10.295       11.781       12.204      105.993      138.800      148.945        0.930        0.020      133.907        6.759        0.003      334.502        4.516      867.054
01/18/2014  19:51:00     -115.103      -48.140      -12.480       15.231       19.267       12.032      231.972      371.232      144.775        0.823        0.037      124.765        6.584        0.003      334.507        4.525      867.044
01/18/2014  19:52:00     -107.493      -41.318      -12.025       15.175       14.229       11.983      230.272      202.473      143.585        0.699        0.029      115.160        7.795        0.005      334.536        4.573      867.034
01/18/2014  19:53:00     -108.917      -41.574      -11.880        8.272       12.124        7.545       68.431      146.997       56.921        0.700        0.014      116.582        3.692        0.001      334.532        4.566      867.026
01/18/2014  19:54:00     -117.468      -54.774      -13.120       14.348        9.883       10.300      205.877       97.679      106.083        0.869        0.020      129.611        5.030        0.002      334.558        4.610      867.008
01/18/2014  19:55:00     -145.368      -55.888      -15.508       12.157        9.987        9.055      147.783       99.744       81.986        1.241        0.016      155.741        5.318        0.001      334.599        4.678      867.001
01/18/2014  19:56:00     -143.668      -44.223      -14.320        9.827       12.861       10.300       96.563      165.411      106.086        1.158        0.018      150.320        8.169        0.003      334.572        4.633      867.000
01/18/2014  19:57:00     -125.740      -55.421       -9.848       19.680       16.113       14.472      387.295      259.622      209.446        0.992        0.043      137.412        9.238        0.005      334.521        4.547      866.995
01/18/2014  19:58:00      -98.004      -56.576      -11.772       15.863       12.065       13.535      251.634      145.556      183.207        0.676        0.029      113.162       10.352        0.008      334.531        4.564      866.989
01/18/2014  19:59:00     -107.196      -50.546      -13.951       13.620        9.285       10.548      185.499       86.215      111.262        0.731        0.019      118.516        4.657        0.002      334.489        4.497      866.987
01/18/2014  20:00:00     -125.388      -55.998      -13.243       10.255       11.920       10.805      105.172      142.081      116.739        0.970        0.018      137.324        6.193        0.002      334.524        4.553      866.994
01/18/2014  20:01:00     -138.683      -65.387      -16.185       16.961       19.261       10.010      287.684      370.994      100.191        1.226        0.038      153.325        4.902        0.001      334.466        4.457      866.990
01/18/2014  20:02:00     -113.565      -79.026       -5.700       27.111       27.171       22.543      734.984      738.282      508.196        1.058        0.099      138.355       13.697        0.010      334.419        4.380      866.983
01/18/2014  20:03:00     -108.363      -68.435       -9.368       44.039       33.099       27.204     1939.444     1095.556      740.062        1.014        0.189      128.163       25.879        0.041      334.335        4.241      867.000
01/18/2014  20:04:00     -119.211      -65.703       -5.777       58.410       32.590       22.673     3411.696     1062.133      514.062        1.177        0.249      136.118       29.199        0.046      334.326        4.225      866.996
01/18/2014  20:05:00     -103.790      -38.871       -3.810       64.701       37.042       30.864     4186.213     1372.095      952.598        0.940        0.326      110.830       33.227        0.090      334.259        4.113      866.999
01/18/2014  20:06:00     -115.368      -79.513       -4.818       57.281       43.153       27.081     3281.135     1862.186      733.363        1.276        0.294      140.115       27.021        0.037      334.293        4.171      867.019
01/18/2014  20:07:00     -165.883      -45.650       -9.109       50.917       36.669       26.208     2592.516     1344.614      686.872        1.715        0.231      172.050       21.110        0.015      334.229        4.064      867.023
01/18/2014  20:08:00     -137.842      -72.188        2.506       46.788       44.377       26.543     2189.142     1969.322      704.539        1.454        0.243      155.601       26.978        0.030      334.223        4.054      867.035
01/18/2014  20:09:00     -106.164      -53.412       -0.682       52.558       50.075       26.541     2762.376     2507.535      704.416        1.005        0.299      118.843       24.449        0.042      334.200        4.016      867.030
01/18/2014  20:10:00     -109.352      -31.890       -6.498       44.135       55.610       25.510     1947.907     3092.512      650.775        0.935        0.285      113.907       23.370        0.042      334.175        3.973      867.030
01/18/2014  20:11:00     -119.789      -30.319      -10.489       41.759       38.944       24.927     1743.830     1516.660      621.341        0.963        0.194      123.566       19.920        0.026      334.130        3.900      867.019
01/18/2014  20:12:00     -164.083      -15.971      -18.114       51.802       37.587       25.922     2683.466     1412.788      671.929        1.614        0.238      164.858       26.211        0.025      334.107        3.860      867.014
01/18/2014  20:13:00     -113.126      -42.250       -7.875       48.916       44.785       24.108     2392.775     2005.654      581.214        0.981        0.249      120.758       18.276        0.023      334.090        3.833      867.017
01/18/2014  20:14:00     -122.059      -41.036       -8.398       39.741       45.790       23.523     1579.325     2096.736      553.318        1.044        0.211      128.773       17.057        0.018      334.088        3.829      867.007
01/18/2014  20:15:00      -84.265      -30.803       -3.739       49.027       40.312       25.856     2403.628     1625.059      668.555        0.638        0.235       89.719       29.765        0.110      334.103        3.854      866.996
01/18/2014  20:16:00      -76.295      -38.562       -6.496       40.878       26.486       21.222     1671.018      701.515      450.364        0.509        0.141       85.487       20.651        0.058      334.077        3.812      866.998
01/18/2014  20:17:00      -86.734      -29.056      -14.372       35.463       25.700       21.007     1257.629      660.511      441.295        0.547        0.118       91.472       11.036        0.015      334.024        3.724      866.999
01/18/2014  20:18:00     -108.890      -64.897      -11.654       31.138       25.230       18.326      969.552      636.565      335.825        0.907        0.097      126.762       10.960        0.007      333.936        3.578      867.000
01/18/2014  20:19:00     -144.474      -54.321      -17.671       29.100       21.510       13.068      846.837      462.700      170.784        1.281        0.074      154.349       10.502        0.005      333.915        3.543      867.005
01/18/2014  20:20:00     -138.574      -45.740      -18.391       17.172       20.650       18.559      294.883      426.430      344.418        1.135        0.053      145.927       11.414        0.006      333.898        3.515      867.008
01/18/2014  20:21:00     -136.340      -50.301      -14.586       28.027       24.312       15.776      785.501      591.062      248.872        1.148        0.081      145.323       14.772        0.010      333.899        3.517      867.006
01/18/2014  20:22:00     -112.284      -62.478      -11.164       35.008       26.296       21.234     1225.565      691.497      450.898        0.950        0.118      128.496       18.035        0.020      333.880        3.485      867.006
01/18/2014  20:23:00      -75.632      -50.630       -2.639       36.683       26.519       21.975     1345.668      703.238      482.915        0.541        0.127       91.015       17.566        0.037      333.841        3.421      867.012
01/18/2014  20:24:00      -71.199      -33.451       -5.403       35.176       27.988       16.393     1237.321      783.316      268.729        0.425        0.114       78.665       11.135        0.020      333.791        3.338      867.020
01/18/2014  20:25:00      -68.809      -27.011       -7.027       29.828       24.865       17.120      889.729      618.245      293.094        0.366        0.090       73.920       11.629        0.025      333.837        3.414      867.009
01/18/2014  20:26:00      -74.496      -31.299       -7.809       40.513       29.336       16.376     1641.290      860.573      268.166        0.468        0.139       80.804       10.816        0.018      333.831        3.404      867.012
01/18/2014  20:27:00     -106.038      -30.512       -9.679       23.550       28.758       19.224      554.618      827.036      369.544        0.701        0.088      110.341       12.310        0.012      333.826        3.395      867.008
01/18/2014  20:28:00      -68.343      -23.882      -10.141       42.237       20.794       23.947     1783.999      432.410      573.437        0.407        0.139       72.395       13.275        0.034      333.828        3.399      866.989
01/18/2014  20:29:00      -52.364      -19.492      -14.339       31.509       20.813       18.569      992.816      433.174      344.813        0.255        0.089       55.874       12.800        0.052      333.836        3.413      866.981
01/18/2014  20:30:00      -50.357      -13.502      -10.251       37.464       21.997       26.063     1403.584      483.854      679.289        0.269        0.128       52.136       25.687        0.243      333.788        3.333      866.982
01/18/2014  20:31:00      -68.444      -44.400      -16.526       24.427       23.536       20.016      596.658      553.935      400.650        0.424        0.078       81.584       11.369        0.019      333.838        3.416      866.964
01/18/2014  20:32:00      -79.135      -48.169      -17.654       23.289       20.952       19.024      542.399      438.976      361.916        0.512        0.067       92.642        7.752        0.007      333.727        3.231      866.952
01/18/2014  20:33:00     -100.070      -36.475      -10.290       22.130       16.594       14.689      489.743      275.355      215.761        0.622        0.049      106.510       11.920        0.013      333.710        3.204      866.962
01/18/2014  20:34:00      -55.226      -34.908       -4.929       30.866       26.921       18.633      952.722      724.734      347.171        0.316        0.101       65.334       17.948        0.075      333.767        3.298      866.964
01/18/2014  20:35:00      -69.511      -34.239      -15.102       30.106       24.897       16.074      906.347      619.856      258.378        0.401        0.089       77.487       10.386        0.018      333.785        3.328      866.961
01/18/2014  20:36:00        9.815      -12.460       12.700       22.387       22.360       20.650      501.174      499.966      426.415        0.092        0.071       15.861       10.505        0.439      333.737        3.249      866.970
01/18/2014  20:37:00      -14.489      -36.517      -10.638       26.222       22.932       14.347      687.600      525.867      205.824        0.154        0.071       39.286       12.503        0.101      333.864        3.459      866.973
01/18/2014  20:38:00      -58.485      -44.941      -10.989       21.364       17.102       12.995      456.423      292.469      168.868        0.324        0.046       73.757        7.469        0.010      333.709        3.201      866.973
01/18/2014  20:39:00      -58.577      -38.317      -12.018       19.574       15.783       16.441      383.142      249.089      270.310        0.297        0.045       69.997        7.237        0.011      333.638        3.083      866.977
01/18/2014  20:40:00      -74.362      -53.217      -15.112       14.007       13.440       11.098      196.189      180.626      123.170        0.454        0.025       91.443        6.486        0.005      333.636        3.082      866.984
01/18/2014  20:41:00      -74.863      -37.834      -17.683       15.830       13.835       12.580      250.599      191.409      158.254        0.397        0.030       83.880        6.356        0.006      333.582        2.990      866.986
01/18/2014  20:42:00      -86.464      -27.774       -9.797       13.014       12.512        7.728      169.374      156.549       59.721        0.436        0.019       90.815        5.601        0.004      333.534        2.911      867.001
01/18/2014  20:43:00      -84.723      -35.432       -8.506       11.563       10.238        8.885      133.699      104.809       78.948        0.441        0.016       91.833        5.352        0.003      333.471        2.804      867.010
01/18/2014  20:44:00      -78.726      -34.589      -11.770       10.977       11.263        7.860      120.489      126.854       61.776        0.392        0.015       85.990        4.897        0.003      333.522        2.891      867.026
01/18/2014  20:45:00      -69.000      -26.265      -10.247       13.031       12.156       10.533      169.812      147.759      110.935        0.299        0.021       73.830        7.719        0.011      333.589        3.004      867.040
01/18/2014  20:46:00      -80.202      -28.774      -10.798        8.998       10.577        7.541       80.966      111.877       56.861        0.381        0.012       85.208        4.848        0.003      333.594        3.011      867.060
01/18/2014  20:47:00      -88.685      -31.531       -9.961       16.556       11.202        8.963      274.098      125.494       80.344        0.472        0.024       94.123        3.832        0.002      333.598        3.017      867.057
01/18/2014  20:48:00      -96.994      -38.600       -6.557       12.459       14.345        8.206      155.215      205.781       67.345        0.568        0.021      104.392        4.186        0.002      333.581        2.990      867.064
01/18/2014  20:49:00      -99.214      -41.435       -8.593       11.480       13.093        7.999      131.780      171.434       63.982        0.600        0.018      107.519        6.190        0.003      333.606        3.031      867.064
01/18/2014  20:50:00      -95.147      -32.381      -13.305        8.462       11.828        9.229       71.601      139.906       85.173        0.529        0.015      100.507        5.273        0.003      333.502        2.858      867.061
01/18/2014  20:51:00      -88.894      -35.884      -12.167        9.617        9.738        7.484       92.489       94.832       56.017        0.479        0.012       95.863        3.997        0.002      333.467        2.800      867.062
01/18/2014  20:52:00      -83.231      -42.290      -14.936        9.581        7.668        5.321       91.798       58.802       28.316        0.456        0.009       93.359        2.938        0.001      333.506        2.863      867.071
01/18/2014  20:53:00      -96.115      -35.342      -14.007        8.068       11.059        8.276       65.090      122.298       68.491        0.547        0.013      102.407        3.563        0.001      333.474        2.811      867.060
01/18/2014  20:54:00      -95.194      -31.934       -8.451        9.368       12.388        6.342       87.753      153.456       40.219        0.522        0.014      100.408        2.606        0.001      333.486        2.829      867.053
01/18/2014  20:55:00      -84.001      -38.692       -9.189       10.269       10.290        9.183      105.463      105.874       84.319        0.447        0.015       92.484        4.703        0.003      333.432        2.742      867.060
01/18/2014  20:56:00     -106.816      -27.750      -13.379       19.053       10.293        7.906      362.998      105.946       62.506        0.644        0.027      110.362        6.662        0.004      333.412        2.709      867.062
01/18/2014  20:57:00     -129.234      -40.050      -10.646       12.631       14.169        9.239      159.534      200.760       85.353        0.943        0.022      135.297        6.119        0.002      333.398        2.686      867.053
01/18/2014  20:58:00     -134.791      -36.052      -14.530       10.666       11.342        9.466      113.760      128.652       89.597        1.001        0.017      139.529        4.925        0.001      333.367        2.636      867.048
01/18/2014  20:59:00     -118.744      -33.723      -18.192       11.300       10.539       10.302      127.696      111.072      106.134        0.796        0.017      123.440        4.141        0.001      333.374        2.647      867.051
01/18/2014  21:00:00     -102.303      -27.825      -19.475        9.773        7.412        7.392       95.516       54.942       54.648        0.591        0.010      106.020        4.901        0.002      333.432        2.742      867.038
01/18/2014  21:01:00      -81.606      -27.572      -11.435       18.791       10.189       10.141      353.101      103.811      102.844        0.406        0.028       86.138        9.423        0.012      333.479        2.818      867.042
01/18/2014  21:02:00      -94.156      -25.053      -17.172        6.494       11.327        7.242       42.176      128.300       52.450        0.501        0.011       97.432        4.675        0.002      333.445        2.763      867.048
01/18/2014  21:03:00      -92.895      -35.135      -15.244        8.439       11.249        6.591       71.212      126.547       43.446        0.517        0.012       99.318        4.174        0.002      333.406        2.701      867.051
01/18/2014  21:04:00      -84.991      -32.648      -10.501       13.444       12.009       12.253      180.745      144.223      150.138        0.444        0.024       91.046        5.953        0.004      333.390        2.674      867.050
01/18/2014  21:05:00     -108.493      -40.515       -9.862       17.581       11.667        9.581      309.081      136.127       91.791        0.702        0.027      115.811        6.003        0.003      333.338        2.587      867.047
01/18/2014  21:06:00     -109.217      -35.908       -9.227       17.209       16.751       10.906      296.154      280.594      118.932        0.700        0.035      114.969        3.413        0.001      333.348        2.603      867.056
01/18/2014  21:07:00      -98.843      -36.987      -12.932       18.893       12.665        7.494      356.936      160.410       56.157        0.594        0.029      105.536        7.642        0.005      333.371        2.642      867.076
01/18/2014  21:08:00     -101.280      -14.385      -16.853       12.297       11.874        8.172      151.217      140.984       66.781        0.555        0.018      102.296        5.918        0.003      333.371        2.642      867.082
01/18/2014  21:09:00     -104.859      -29.054      -14.241       18.423       13.460       12.412      339.406      181.162      154.051        0.636        0.034      108.810       10.795        0.010      333.300        2.525      867.083
01/18/2014  21:10:00     -127.528      -10.955      -22.017       11.408        9.756        7.953      130.141       95.172       63.243        0.858        0.014      127.997        5.685        0.002      333.232        2.412      867.075
01/18/2014  21:11:00     -102.301      -19.548      -13.579       18.338       18.308       12.413      336.268      335.191      154.083        0.593        0.041      104.152        9.071        0.008      333.259        2.457      867.075
01/18/2014  21:12:00     -115.891       -5.364      -16.609       20.130       15.434       13.932      405.203      238.220      194.093        0.729        0.042      116.015       12.508        0.012      333.289        2.505      867.077
01/18/2014  21:13:00     -116.881      -17.477      -16.054       12.496       10.136        8.336      156.140      102.736       69.493        0.728        0.016      118.180        5.745        0.002      333.229        2.406      867.076
01/18/2014  21:14:00     -120.491      -20.198      -11.418       19.588       17.338       15.704      383.687      300.621      246.614        0.799        0.047      122.172       13.585        0.012      333.195        2.350      867.080
01/18/2014  21:15:00     -108.177      -33.976      -10.633       14.412       16.052       14.331      207.717      257.657      205.384        0.682        0.034      113.387        6.639        0.003      333.234        2.414      867.098
01/18/2014  21:16:00     -108.173      -43.303      -13.927       12.596       15.542       12.396      158.670      241.539      153.655        0.716        0.028      116.519        7.004        0.004      333.221        2.392      867.108
01/18/2014  21:17:00     -101.724      -43.102      -16.024       18.665       17.293       12.977      348.378      299.046      168.407        0.664        0.041      110.479        9.907        0.008      333.137        2.255      867.115
01/18/2014  21:18:00      -79.070      -43.482       -2.125       45.056       21.732       18.804     2030.074      472.288      353.609        0.550        0.143       90.237       24.330        0.073      333.101        2.194      867.115
01/18/2014  21:19:00      -92.667      -52.500      -16.242       20.678       21.035       16.527      427.595      442.451      273.126        0.638        0.057      106.506       13.605        0.016      333.142        2.263      867.132
01/18/2014  21:20:00      -87.478      -64.600      -10.454       30.279       23.555       17.860      916.808      554.852      318.995        0.686        0.090      108.745       10.889        0.010      333.163        2.298      867.148
01/18/2014  21:21:00     -121.570      -74.659      -11.703       20.217       24.001       14.178      408.710      576.063      201.004        1.084        0.059      142.665       11.237        0.006      333.156        2.286      867.151
01/18/2014  21:22:00     -137.621      -49.405      -10.773       19.302       20.432       10.062      372.562      417.476      101.241        1.119        0.045      146.220        8.239        0.003      333.085        2.169      867.158
01/18/2014  21:23:00     -123.580      -55.603      -10.473       20.609       20.775       14.736      424.727      431.596      217.139        0.977        0.054      135.513       11.305        0.007      333.056        2.122      867.172
01/18/2014  21:24:00     -103.194      -62.337      -11.331       34.098       19.044       13.483     1162.642      362.685      181.799        0.818        0.085      120.561        5.167        0.002      333.012        2.048      867.188
01/18/2014  21:25:00     -113.215      -67.983       -5.926       25.875       21.387       15.630      669.495      457.399      244.309        0.942        0.069      132.058       11.049        0.007      333.042        2.097      867.205
01/18/2014  21:26:00     -102.791      -58.289      -17.773       15.900       13.161       10.022      252.814      173.209      100.445        0.740        0.026      118.168        3.102        0.001      333.047        2.106      867.207
01/18/2014  21:27:00      -87.885      -45.276      -12.852       13.439       13.335       11.640      180.612      177.811      135.487        0.522        0.025       98.862        6.040        0.004      332.988        2.009      867.218
01/18/2014  21:28:00      -86.998      -50.063      -12.426       14.010       11.517        9.655      196.276      132.643       93.214        0.533        0.021      100.374        8.450        0.007      332.970        1.978      867.235
01/18/2014  21:29:00      -87.656      -59.715       -7.068       22.647       16.954       13.179      512.882      287.436      173.681        0.614        0.049      106.063       12.804        0.015      332.991        2.014      867.242
01/18/2014  21:30:00      -47.694      -43.871      -11.631       23.971       14.377       13.384      574.616      206.709      179.132        0.265        0.048       64.803       12.535        0.037      333.061        2.129      867.253
01/18/2014  21:31:00      -65.755      -52.593       -8.829       27.970       16.993       15.883      782.345      288.757      252.258        0.425        0.066       84.200       13.101        0.024      332.986        2.006      867.263
01/18/2014  21:32:00     -115.431      -35.427      -15.359       20.306       13.495       11.325      412.314      182.107      128.256        0.777        0.036      120.745        9.145        0.006      333.023        2.067      867.272
01/18/2014  21:33:00     -121.514      -29.546      -18.011       19.442       14.516       13.339      377.999      210.718      177.935        0.836        0.038      125.055        7.550        0.004      332.944        1.937      867.273
01/18/2014  21:34:00     -111.323      -34.123      -14.005       17.658       12.109       13.770      311.821      146.626      189.600        0.720        0.032      116.435        9.344        0.006      332.965        1.970      867.271
01/18/2014  21:35:00     -121.626      -41.061      -16.219       12.535       14.123       10.200      157.118      199.462      104.032        0.860        0.023      128.370        6.963        0.003      333.007        2.039      867.280
01/18/2014  21:36:00     -128.705      -54.272      -15.385       13.829       11.813        9.570      191.242      139.538       91.582        1.008        0.021      139.680        5.794        0.002      332.933        1.919      867.285
01/18/2014  21:37:00     -150.612      -53.785      -15.069       13.394       12.581       10.831      179.390      158.287      117.305        1.313        0.023      159.928        6.251        0.002      332.989        2.010      867.284
01/18/2014  21:38:00     -151.169      -51.645      -14.660       20.709       14.870       12.428      428.864      221.106      154.444        1.327        0.040      159.747       11.369        0.005      332.959        1.962      867.285
01/18/2014  21:39:00     -142.776      -37.374      -11.364       22.646       15.337       15.259      512.857      235.211      232.844        1.145        0.049      147.586       14.376        0.009      332.923        1.902      867.285
01/18/2014  21:40:00     -146.398      -34.845      -14.380       12.205       12.536       10.313      148.960      157.151      106.353        1.163        0.021      150.488        6.925        0.002      332.917        1.891      867.281
01/18/2014  21:41:00     -135.702      -36.677      -13.302       20.261       12.010       12.497      410.494      144.232      156.173        1.032        0.036      140.571        7.443        0.003      332.916        1.889      867.277
01/18/2014  21:42:00     -112.275      -31.200      -14.726       13.986       13.318       11.316      195.618      177.372      128.042        0.715        0.025      116.529        8.836        0.006      332.939        1.929      867.286
01/18/2014  21:43:00     -106.456      -33.976      -14.296       10.033       11.408       10.480      100.655      130.149      109.825        0.652        0.017      111.746        4.209        0.001      332.978        1.991      867.299
01/18/2014  21:44:00     -105.374      -36.272      -14.533        8.880        8.706        7.442       78.853       75.797       55.388        0.642        0.011      111.443        3.986        0.001      332.997        2.022      867.306
01/18/2014  21:45:00     -108.378      -35.948      -14.332        6.785        8.171        7.705       46.032       66.760       59.368        0.671        0.009      114.185        3.694        0.001      333.018        2.058      867.314
01/18/2014  21:46:00     -107.019      -37.851      -10.257       11.335       14.327       10.493      128.489      205.271      110.096        0.672        0.022      113.516        8.584        0.006      333.037        2.089      867.330
01/18/2014  21:47:00     -119.438      -45.594      -12.237       16.572       15.738       10.847      274.617      247.679      117.658        0.857        0.032      127.845        8.559        0.004      333.071        2.147      867.328
01/18/2014  21:48:00     -129.336      -47.632      -12.042       12.300       12.834       11.901      151.282      164.718      141.645        0.980        0.023      137.828        8.320        0.004      333.016        2.055      867.328
01/18/2014  21:49:00     -142.785      -43.698      -18.543       10.449       14.158       10.309      109.183      200.463      106.276        1.153        0.021      149.322        7.675        0.003      333.009        2.044      867.336
01/18/2014  21:50:00     -114.218      -29.858      -14.684       23.129       13.999       12.732      534.967      195.974      162.092        0.752        0.045      118.056       14.694        0.015      333.000        2.028      867.334
01/18/2014  21:51:00     -129.951      -24.624      -21.784       11.720       11.231       13.755      137.355      126.129      189.193        0.921        0.023      132.264        6.160        0.002      332.896        1.856      867.320
01/18/2014  21:52:00     -126.307      -35.187      -18.137       23.123       18.585       15.679      534.684      345.390      245.816        0.932        0.056      131.117       13.198        0.010      332.889        1.846      867.301
01/18/2014  21:53:00      -96.544      -44.026      -13.835       24.846       20.879       15.039      617.337      435.946      226.175        0.636        0.064      106.108       12.986        0.015      332.870        1.815      867.296
01/18/2014  21:54:00      -90.474      -42.265      -17.955       25.327       26.356       17.008      641.441      694.628      289.257        0.596        0.081       99.859        8.531        0.007      332.886        1.840      867.278
01/18/2014  21:55:00      -94.233      -51.862      -23.543       27.692       24.589       19.862      766.861      604.604      394.480        0.694        0.088      107.562       13.867        0.017      332.895        1.856      867.265
01/18/2014  21:56:00      -76.106      -43.345      -14.579       32.785       45.300       21.336     1074.834     2052.059      455.233        0.573        0.179       87.584       12.649        0.021      332.931        1.914      867.269
01/18/2014  21:57:00      -69.933      -36.015       -8.310       33.958       27.425       23.343     1153.144      752.103      544.881        0.435        0.123       78.662       20.021        0.065      332.938        1.926      867.273
01/18/2014  21:58:00      -63.925      -27.659       -4.461       40.355       26.108       19.948     1628.492      681.635      397.924        0.379        0.135       69.652       11.945        0.029      332.907        1.876      867.281
01/18/2014  21:59:00     -112.149      -58.281      -10.328       23.313       20.090       17.235      543.473      403.611      297.057        0.866        0.062      126.388        4.907        0.002      332.878        1.828      867.286
01/18/2014  22:00:00     -134.543      -42.248      -13.349       11.188       10.997        9.859      125.173      120.937       97.203        1.020        0.017      141.020        3.793        0.001      332.856        1.792      867.294
01/18/2014  22:01:00     -125.977      -66.550      -14.227       33.521       23.165       20.807     1123.679      536.630      432.928        1.130        0.105      142.475       13.758        0.009      332.859        1.797      867.293
01/18/2014  22:02:00      -83.695      -61.009       -7.616       36.846       23.970       19.179     1357.649      574.537      367.825        0.654        0.115      103.571       16.506        0.025      332.824        1.740      867.286
01/18/2014  22:03:00      -74.827      -56.570        2.345       40.576       30.989       24.165     1646.451      960.345      583.943        0.600        0.160       93.804       22.979        0.060      332.733        1.588      867.288
01/18/2014  22:04:00      -83.930      -66.669       -5.103       36.216       26.510       19.652     1311.628      702.778      386.213        0.696        0.120      107.187        8.551        0.006      332.921        1.899      867.290
01/18/2014  22:05:00      -57.393      -41.856       10.668       47.209       30.040       25.065     2228.703      902.384      628.244        0.446        0.188       71.034       22.661        0.102      332.841        1.767      867.294
01/18/2014  22:06:00      -89.943      -52.128       -3.093       38.037       21.299       19.083     1446.833      453.661      364.154        0.654        0.113      103.957       18.109        0.030      332.814        1.722      867.291
01/18/2014  22:07:00     -112.008      -49.222      -12.578       10.749       16.703        9.074      115.551      278.994       82.346        0.780        0.024      122.346        3.128        0.001      332.703        1.537      867.284
01/18/2014  22:08:00     -101.149      -52.269      -13.703       16.024       13.770        9.476      256.755      189.602       89.800        0.684        0.027      113.856        3.996        0.001      332.672        1.487      867.287
01/18/2014  22:09:00     -104.732      -54.857      -16.528        9.485       14.350        9.016       89.960      205.927       81.283        0.731        0.019      118.229        4.983        0.002      332.671        1.485      867.285
01/18/2014  22:10:00      -88.548      -58.047      -10.644       14.630       15.828       11.522      214.029      250.536      132.763        0.596        0.030      105.878        4.559        0.002      332.796        1.694      867.280
01/18/2014  22:11:00      -92.375      -33.367       -7.341       16.209       17.142       14.367      262.739      293.832      206.400        0.523        0.038       98.217       10.267        0.011      332.777        1.662      867.274
01/18/2014  22:12:00      -88.215      -36.393       -7.757       14.547       17.490       14.755      211.628      305.902      217.700        0.495        0.037       95.427       11.271        0.014      332.801        1.700      867.271
01/18/2014  22:13:00      -88.281      -34.806       -6.369       16.512       20.748       15.151      272.650      430.477      229.550        0.499        0.047       94.895       10.932        0.013      332.828        1.745      867.271
01/18/2014  22:14:00     -108.888      -21.490      -13.399       15.343       18.992       13.368      235.417      360.701      178.696        0.664        0.039      110.988        9.526        0.007      332.779        1.663      867.263
01/18/2014  22:15:00     -102.556      -36.283      -17.760       13.802       14.172       13.492      190.489      200.837      182.025        0.636        0.029      108.785        9.805        0.008      332.714        1.556      867.262
01/18/2014  22:16:00      -92.199      -42.807      -11.451       16.627       15.593       10.968      276.450      243.138      120.297        0.555        0.032      101.652        6.821        0.005      332.690        1.516      867.275
01/18/2014  22:17:00      -89.412      -29.691      -18.032       17.545       16.804       12.583      307.822      282.384      158.344        0.497        0.037       94.213        9.822        0.011      332.697        1.527      867.293
01/18/2014  22:18:00      -96.296      -35.439      -15.313       15.650       19.464       13.872      244.924      378.838      192.427        0.579        0.041      102.610        6.973        0.005      332.705        1.542      867.300
01/18/2014  22:19:00     -105.098      -44.963      -16.333       12.348       20.574       11.430      152.466      423.276      130.647        0.702        0.035      114.312       12.467        0.012      332.658        1.463      867.308
01/18/2014  22:20:00     -106.872      -46.232      -14.838       14.647       15.517       12.333      214.544      240.771      152.104        0.719        0.030      116.443        9.750        0.007      332.650        1.449      867.298
01/18/2014  22:21:00      -99.564      -38.656      -12.514       17.213       13.733       11.517      296.304      188.586      132.653        0.609        0.031      106.805        8.321        0.006      332.637        1.429      867.299
01/18/2014  22:22:00      -92.343      -40.965      -14.471       11.173       13.230        9.484      124.830      175.021       89.950        0.540        0.019      101.022        7.716        0.006      332.694        1.523      867.304
01/18/2014  22:23:00      -81.306      -51.117       -9.215       13.765       14.907       11.914      189.470      222.225      141.935        0.493        0.028       96.040        8.053        0.007      332.735        1.592      867.302
01/18/2014  22:24:00      -64.940      -41.616      -12.042       12.691       13.701        9.229      161.063      187.705       85.166        0.326        0.022       77.130        8.349        0.012      332.730        1.584      867.297
01/18/2014  22:25:00      -62.450      -32.678       -5.315       15.378       24.839       14.666      236.496      616.986      215.082        0.303        0.053       70.483        8.634        0.015      332.736        1.593      867.288
01/18/2014  22:26:00      -74.847      -12.683      -10.171       17.029       16.783       14.918      289.993      281.653      222.549        0.333        0.040       75.914       11.695        0.024      332.828        1.746      867.288
01/18/2014  22:27:00      -81.671      -22.232      -11.589       16.212       22.778       10.787      262.843      518.832      116.356        0.410        0.045       84.643        6.299        0.006      332.818        1.729      867.293
01/18/2014  22:28:00      -88.415      -38.170      -11.881       13.427       15.682       11.321      180.274      245.937      128.169        0.498        0.028       96.302        8.872        0.008      332.801        1.699      867.293
01/18/2014  22:29:00     -101.212      -46.272      -17.292       14.912       14.522       11.264      222.378      210.877      126.885        0.662        0.028      111.288        4.269        0.001      332.738        1.597      867.294
01/18/2014  22:30:00      -98.897      -63.231      -15.645       27.370       17.179       13.536      749.120      295.134      183.225        0.763        0.061      117.383        7.760        0.004      332.772        1.654      867.282
01/18/2014  22:31:00     -100.780      -76.402      -14.910       19.474       23.666       14.124      379.222      560.064      199.498        0.868        0.057      126.467        8.623        0.005      332.673        1.490      867.279
01/18/2014  22:32:00      -79.097      -52.698       -6.816       28.500       23.659       14.528      812.223      559.761      211.069        0.533        0.079       95.044       12.228        0.017      332.689        1.516      867.276
01/18/2014  22:33:00     -103.671      -56.994       -8.484       15.796       12.463       10.824      249.514      155.332      117.167        0.729        0.026      118.304        5.879        0.002      332.704        1.539      867.258
01/18/2014  22:34:00      -99.938      -50.671       -9.764       14.419       11.258       12.704      207.900      126.752      161.392        0.657        0.025      112.050        7.740        0.005      332.687        1.512      867.242
01/18/2014  22:35:00     -114.726      -52.017      -10.914       13.611       10.022        8.637      185.249      100.442       74.597        0.817        0.018      125.968        4.846        0.001      332.660        1.468      867.224
01/18/2014  22:36:00     -108.735      -58.992      -10.261       19.356       14.537       13.706      374.671      211.326      187.858        0.809        0.039      123.707        8.590        0.005      332.611        1.385      867.220
01/18/2014  22:37:00     -122.167      -57.127      -11.255       18.626       13.421       12.312      346.913      180.121      151.576        0.950        0.034      134.864        4.510        0.001      332.658        1.463      867.224
01/18/2014  22:38:00     -105.427      -53.347       -6.792       13.987       14.173       12.565      195.623      200.883      157.878        0.728        0.028      118.156        6.434        0.003      332.569        1.316      867.225
01/18/2014  22:39:00     -104.481      -40.768      -11.977       11.967       11.740        7.632      143.197      137.823       58.249        0.653        0.017      112.153        6.477        0.003      332.590        1.350      867.220
01/18/2014  22:40:00      -91.934      -27.439      -15.844        8.937       12.478        9.392       79.868      155.699       88.219        0.489        0.016       95.942        3.895        0.002      332.620        1.402      867.211
01/18/2014  22:41:00      -92.152      -25.450      -14.663       15.725       10.191        9.324      247.288      103.850       86.946        0.490        0.022       95.601        8.653        0.008      332.605        1.377      867.195
01/18/2014  22:42:00     -101.867      -39.464      -13.028        8.789       12.233        8.122       77.253      149.651       65.971        0.620        0.015      109.244        5.400        0.002      332.590        1.352      867.186
01/18/2014  22:43:00     -105.482      -52.047      -11.591       10.070        9.285        7.851      101.397       86.202       61.645        0.711        0.012      117.623        3.480        0.001      332.619        1.400      867.178
01/18/2014  22:44:00     -110.121      -39.672      -13.814       10.596       13.349        8.263      112.273      178.199       68.277        0.713        0.018      117.050        1.521        0.000      332.510        1.218      867.176
01/18/2014  22:45:00     -104.780      -53.804      -16.315       14.208       12.632       10.388      201.872      159.566      107.901        0.730        0.023      117.787        7.848        0.004      332.454        1.126      867.183
01/18/2014  22:46:00     -105.421      -71.745       -9.032       27.222       25.192       18.200      741.053      634.623      331.244        0.902        0.085      127.519       15.246        0.014      332.493        1.191      867.178
01/18/2014  22:47:00     -121.675      -70.781      -11.149       14.693       17.168       11.775      215.881      294.726      138.652        1.029        0.032      140.765        7.584        0.003      332.544        1.276      867.176
01/18/2014  22:48:00     -123.388      -61.907      -15.519       12.520       11.181        9.170      156.757      125.025       84.096        0.983        0.018      138.048        4.628        0.001      332.530        1.252      867.167
01/18/2014  22:49:00     -101.299      -56.479      -12.384       21.601       18.072       15.334      466.604      326.605      235.145        0.732        0.051      115.980       10.451        0.008      332.507        1.214      867.155
01/18/2014  22:50:00     -115.926      -50.842      -13.341       15.189       16.367       11.032      230.692      267.874      121.698        0.841        0.031      126.585        8.403        0.004      332.451        1.120      867.155
01/18/2014  22:51:00     -109.228      -49.873      -13.179       14.736       13.706        9.512      217.136      187.843       90.481        0.754        0.025      120.075        8.527        0.005      332.433        1.094      867.150
01/18/2014  22:52:00      -90.784      -40.891       -7.593       10.525        7.301        7.366      110.783       53.301       54.265        0.509        0.011       99.568        3.259        0.001      332.402        1.041      867.149
01/18/2014  22:53:00      -88.456      -44.505      -12.441        7.357       12.813       10.256       54.125      164.177      105.187        0.514        0.016       99.021        7.200        0.005      332.477        1.165      867.146
01/18/2014  22:54:00      -93.375      -41.075      -13.360        6.263        9.488        6.784       39.226       90.014       46.021        0.538        0.009      102.010        5.141        0.003      332.451        1.122      867.143
01/18/2014  22:55:00     -101.811      -37.621      -16.050        6.641       11.520        6.886       44.102      132.709       47.416        0.613        0.011      108.540        4.885        0.002      332.410        1.053      867.135
01/18/2014  22:56:00     -105.690      -50.482      -12.895        8.146        7.033        9.536       66.359       49.468       90.934        0.705        0.010      117.128        5.006        0.002      332.351        0.957      867.147
01/18/2014  22:57:00     -108.475      -55.339      -15.235       14.537       11.794       10.409      211.322      139.107      108.347        0.776        0.023      121.776        3.816        0.001      332.347        0.951      867.170
01/18/2014  22:58:00     -105.043      -49.259      -14.701        8.531       10.023        7.119       72.776      100.464       50.685        0.695        0.011      116.020        4.838        0.002      332.335        0.929      867.180
01/18/2014  22:59:00      -94.691      -44.726      -12.792       12.908       17.241       14.369      166.607      297.265      206.471        0.590        0.034      104.722       12.400        0.014      332.273        0.828      867.179
01/18/2014  23:00:00      -95.440      -41.048      -16.143       11.407        9.692        8.108      130.115       93.937       65.747        0.567        0.014      103.893        2.593        0.001      332.188        0.690      867.176
01/18/2014  23:01:00      -54.235      -39.525       -9.928       19.225       15.683       12.562      369.603      245.958      157.795        0.269        0.039       67.109        7.743        0.013      332.267        0.818      867.174
01/18/2014  23:02:00      -55.409      -53.167       -5.968       22.882       13.525       15.478      523.585      182.914      239.584        0.344        0.047       76.791       14.545        0.036      332.277        0.836      867.169
01/18/2014  23:03:00      -88.848      -28.054      -16.812       31.630       17.629       13.163     1000.429      310.777      173.257        0.522        0.074       93.172       16.516        0.031      332.357        0.967      867.174
01/18/2014  23:04:00      -96.620      -32.815       -7.920       25.507       20.260       14.330      650.590      410.453      205.350        0.587        0.063      102.041        8.678        0.007      332.352        0.957      867.164
01/18/2014  23:05:00     -108.369      -52.646      -14.124       27.912       21.830       17.535      779.064      476.540      307.488        0.814        0.078      120.480       14.070        0.014      332.270        0.824      867.161
01/18/2014  23:06:00      -96.347      -69.811      -12.291       36.729       24.089       16.701     1348.987      580.288      278.907        0.826        0.110      118.981        8.529        0.005      332.286        0.851      867.150
01/18/2014  23:07:00     -113.244      -72.975       -8.660       29.034       24.574       16.823      842.984      603.903      283.003        0.998        0.086      134.720        7.900        0.003      332.248        0.787      867.149
01/18/2014  23:08:00      -84.935      -46.323       -0.140       33.728       28.156       22.035     1137.570      792.766      485.559        0.589        0.121       96.746       18.068        0.035      332.191        0.694      867.142
01/18/2014  23:09:00     -115.503      -15.719       -8.649       39.292       32.281       27.419     1543.823     1042.081      751.813        0.850        0.167      116.568       22.521        0.037      332.245        0.782      867.134
01/18/2014  23:10:00      -26.242       -2.050        3.303       36.081       32.789       17.895     1301.815     1075.129      320.226        0.170        0.135       26.322       15.423        0.343      332.211        0.726      867.132
01/18/2014  23:11:00      -28.585      -17.843        3.762       36.309       31.415       25.826     1318.329      986.926      666.976        0.206        0.149       33.697       18.728        0.309      332.258        0.803      867.131
01/18/2014  23:12:00      -74.040      -16.591       -7.827       22.431       23.159       14.942      503.151      536.359      223.252        0.354        0.063       75.876       10.227        0.018      332.319        0.904      867.130
01/18/2014  23:13:00      -84.789      -15.827      -12.705       25.482       26.322       20.332      649.321      692.836      413.383        0.468        0.088       86.254       17.957        0.043      332.349        0.954      867.131
01/18/2014  23:14:00      -76.816        3.304      -18.793       20.944       14.228       18.082      438.652      202.436      326.962        0.362        0.048       76.887        5.194        0.005      332.476        1.163      867.124
01/18/2014  23:15:00      -91.165      -12.129      -13.884       15.676       19.864       12.852      245.728      394.596      165.186        0.473        0.040       91.968        3.116        0.001      332.337        0.933      867.117
01/18/2014  23:16:00      -88.668      -15.106      -11.318       24.931       19.004       14.652      621.530      361.137      214.691        0.471        0.060       89.946       13.557        0.023      332.263        0.812      867.118
01/18/2014  23:17:00      -68.112      -24.684      -10.768       41.307       21.335       17.493     1706.247      455.199      306.021        0.392        0.123       72.447       21.326        0.087      332.256        0.801      867.113
01/18/2014  23:18:00      -94.723      -17.403      -15.800       23.833       19.451       15.114      568.030      378.336      228.441        0.535        0.059       96.308       16.280        0.029      332.290        0.857      867.109
01/18/2014  23:19:00      -92.242      -20.567      -16.582       23.173       27.984       15.728      536.995      783.103      247.373        0.539        0.078       94.507       15.421        0.027      332.256        0.800      867.102
01/18/2014  23:20:00      -82.463      -40.514      -17.301       31.910       21.330       16.373     1018.238      454.967      268.070        0.524        0.087       91.878       17.523        0.036      332.256        0.801      867.097
01/18/2014  23:21:00      -94.695      -32.001      -15.699       21.847       22.598       15.750      477.298      510.671      248.055        0.574        0.062       99.956       13.163        0.017      332.197        0.702      867.093
01/18/2014  23:22:00     -132.392      -13.840      -20.398       18.623       17.163       13.034      346.801      294.554      169.887        0.947        0.041      133.113        6.374        0.002      332.192        0.697      867.086
01/18/2014  23:23:00     -107.544       -7.479      -23.902       16.962       14.862       10.147      287.714      220.877      102.959        0.640        0.031      107.804        8.207        0.006      332.191        0.694      867.085
01/18/2014  23:24:00      -90.229      -18.946      -15.083       12.786       15.001       12.818      163.494      225.018      164.306        0.464        0.028       92.197        9.809        0.011      332.183        0.681      867.090
01/18/2014  23:25:00      -87.334      -32.489      -12.174       15.937       21.531       14.060      253.989      463.601      197.677        0.487        0.046       93.181        8.557        0.008      332.173        0.664      867.083
01/18/2014  23:26:00     -105.584      -32.128      -13.930       18.543       20.851       18.678      343.861      434.775      348.880        0.675        0.056      110.364       14.439        0.017      332.115        0.567      867.071
01/18/2014  23:27:00     -109.489      -30.599      -16.547       17.534       16.124       13.968      307.439      259.993      195.093        0.698        0.038      113.685       10.862        0.009      332.091        0.528      867.067
01/18/2014  23:28:00     -126.923      -24.848      -20.676       27.818       23.805       14.365      773.845      566.677      206.362        0.935        0.077      129.332        8.715        0.005      332.127        0.588      867.065
01/18/2014  23:29:00     -102.221      -36.506      -12.227       21.632       29.418       21.519      467.949      865.420      463.078        0.686        0.090      108.544       13.916        0.016      332.163        0.648      867.069
01/18/2014  23:30:00      -96.648      -42.215      -21.829       27.452       25.381       18.805      753.596      644.184      353.611        0.668        0.088      105.465       12.649        0.014      332.189        0.690      867.067
01/18/2014  23:31:00     -105.066      -35.321      -21.215       29.787       27.274       20.219      887.267      743.857      408.813        0.739        0.102      110.845       18.144        0.027      332.207        0.720      867.067
01/18/2014  23:32:00     -126.720      -39.477      -17.257       20.325       17.195       10.812      413.109      295.655      116.889        0.937        0.041      132.727        9.450        0.005      332.108        0.555      867.071
01/18/2014  23:33:00     -124.864      -28.011      -16.732       12.538       18.597       12.290      157.214      345.839      151.048        0.865        0.033      127.967        4.893        0.001      332.100        0.542      867.063
01/18/2014  23:34:00     -120.106      -42.314      -15.220       13.111       12.680        9.540      171.907      160.779       91.008        0.844        0.021      127.342        6.793        0.003      332.101        0.544      867.049
01/18/2014  23:35:00     -120.748      -36.499      -19.093       12.459       15.282       11.427      155.229      233.534      130.567        0.840        0.026      126.144        9.265        0.005      332.095        0.533      867.042
01/18/2014  23:36:00     -114.619      -38.160      -14.993       15.768       16.665       11.491      248.633      277.711      132.052        0.774        0.033      120.805        9.271        0.006      332.107        0.555      867.032
01/18/2014  23:37:00      -97.749      -53.617       -9.532       14.043       15.077       11.584      197.196      227.326      134.194        0.654        0.028      111.488        5.954        0.003      332.141        0.612      867.028
01/18/2014  23:38:00     -108.633      -52.126      -18.177       12.603       12.052        9.512      158.840      145.255       90.483        0.762        0.020      120.492        5.455        0.002      332.143        0.615      867.022
01/18/2014  23:39:00     -103.854      -52.497      -12.157       13.371       13.101        7.618      178.786      171.635       58.029        0.705        0.020      116.368        6.329        0.003      332.172        0.663      867.012
01/18/2014  23:40:00     -118.174      -48.013      -16.794       14.479       13.540        8.846      209.654      183.340       78.255        0.851        0.024      127.555        6.018        0.002      332.168        0.654      867.000
01/18/2014  23:41:00     -114.140      -53.749      -19.587        9.838       11.363        9.121       96.781      129.111       83.189        0.830        0.015      126.162        5.508        0.002      332.082        0.513      866.996
01/18/2014  23:42:00     -106.990      -55.518      -14.895        9.296       11.821        9.095       86.408      139.726       82.725        0.753        0.015      120.536        6.410        0.003      332.082        0.513      866.997
01/18/2014  23:43:00      -97.473      -45.996       -9.909       13.282       16.534       13.034      176.410      273.389      169.878        0.617        0.031      107.780        9.149        0.007      332.034        0.434      867.003
01/18/2014  23:44:00      -92.021      -45.421      -14.767       10.320       16.627       11.683      106.506      276.460      136.490        0.563        0.026      102.620        7.129        0.005      331.997        0.373      867.002
01/18/2014  23:45:00     -102.038      -39.012      -12.230        9.043       14.077       10.143       81.777      198.176      102.881        0.623        0.019      109.242        6.858        0.004      331.995        0.369      866.999
01/18/2014  23:46:00     -112.977      -46.906      -15.097        7.498       11.448        7.721       56.223      131.054       59.621        0.772        0.012      122.327        4.174        0.001      332.025        0.419      866.993
01/18/2014  23:47:00     -110.083      -47.857       -8.928       14.925       17.455        9.234      222.754      304.670       85.263        0.755        0.031      120.036        7.623        0.004      332.064        0.484      866.999
01/18/2014  23:48:00     -118.042      -56.644      -14.000       14.111        9.619        9.648      199.127       92.518       93.077        0.886        0.019      130.929        4.947        0.001      332.044        0.451      866.987
01/18/2014  23:49:00     -122.072      -57.108       -9.786       13.364       10.787       12.204      178.594      116.366      148.950        0.935        0.022      134.770        9.060        0.005      332.004        0.385      866.986
01/18/2014  23:50:00      -98.696      -48.627       -5.998       20.420       13.873       13.845      416.993      192.452      191.692        0.647        0.040      110.025       11.774        0.011      331.952        0.298      866.986
01/18/2014  23:51:00      -84.299      -40.532      -11.957       12.048       14.727       11.134      145.153      216.880      123.977        0.469        0.024       93.538        7.500        0.006      331.972        0.331      866.993
01/18/2014  23:52:00      -82.889      -43.651      -16.009       10.324       14.925        8.982      106.578      222.754       80.670        0.472        0.021       93.680        3.228        0.001      331.984        0.352      866.982
01/18/2014  23:53:00      -94.674      -59.039      -11.030       11.914       11.764        9.683      141.950      138.384       93.757        0.647        0.019      111.574        5.350        0.002      331.939        0.279      866.973
01/18/2014  23:54:00      -97.722      -43.043      -14.285       10.246       10.301        9.853      104.983      106.111       97.082        0.596        0.015      106.781        4.324        0.002      331.955        0.303      866.961
01/18/2014  23:55:00      -98.391      -36.402      -12.374        7.740       10.810        6.969       59.910      116.850       48.563        0.569        0.011      104.909        3.445        0.001      331.976        0.339      866.946
01/18/2014  23:56:00      -90.368      -38.440      -13.344        6.960        6.612        6.024       48.441       43.712       36.291        0.498        0.006       98.204        2.794        0.001      331.989        0.359      866.931
01/18/2014  23:57:00      -96.832      -26.344      -10.406       10.340       11.227        8.173      106.913      126.055       66.803        0.524        0.015      100.351        4.363        0.002      332.012        0.398      866.938
01/18/2014  23:58:00     -111.343      -28.458      -18.191       17.905       11.760       11.160      320.597      138.303      124.542        0.706        0.029      114.923        9.648        0.007      332.062        0.480      866.942
01/18/2014  23:59:00     -118.778      -37.695      -22.448       19.192       12.907       11.546      368.326      166.584      133.305        0.835        0.033      124.616       11.481        0.008      332.003        0.384      866.946
